<?xml version="1.0" encoding="UTF-8" standalone="no" ?>
<gpx xmlns="http://www.topografix.com/GPX/1/1" xmlns:xsi="http://www.w3.org/2001/XMLSchema-instance" xsi:schemaLocation="http://www.topografix.com/GPX/1/1 http://www.topografix.com/GPX/1/1/gpx.xsd" version="1.1" creator="VisuGPX - https://www.visugpx.com">
  <metadata>
    <name>TRAIL DES RUTHENES 2016 - 31KM - 1260 M </name>
    <desc><![CDATA[DIMANCHE 21 FEVRIER 2016 - 9H00
Marcillac-Vallon (12)]]></desc>
  </metadata>
  <trk>
    <name><![CDATA[Move]]></name>
    <trkseg>
      <trkpt lat="44.47387" lon="2.46515">
        <ele>281</ele>
        <time>2015-09-06T07:12:35.000Z</time>
      </trkpt>
      <trkpt lat="44.47372" lon="2.46526">
        <ele>281</ele>
        <time>2015-09-06T07:12:45.000Z</time>
      </trkpt>
      <trkpt lat="44.47363" lon="2.46532">
        <ele>281</ele>
        <time>2015-09-06T07:12:49.000Z</time>
      </trkpt>
      <trkpt lat="44.47351" lon="2.46536">
        <ele>282</ele>
        <time>2015-09-06T07:12:53.000Z</time>
      </trkpt>
      <trkpt lat="44.47339" lon="2.4654">
        <ele>282</ele>
        <time>2015-09-06T07:12:56.000Z</time>
      </trkpt>
      <trkpt lat="44.47327" lon="2.46543">
        <ele>282</ele>
        <time>2015-09-06T07:12:59.000Z</time>
      </trkpt>
      <trkpt lat="44.47314" lon="2.46544">
        <ele>282</ele>
        <time>2015-09-06T07:13:03.000Z</time>
      </trkpt>
      <trkpt lat="44.47302" lon="2.46544">
        <ele>282</ele>
        <time>2015-09-06T07:13:06.000Z</time>
      </trkpt>
      <trkpt lat="44.47292" lon="2.46542">
        <ele>282</ele>
        <time>2015-09-06T07:13:09.000Z</time>
      </trkpt>
      <trkpt lat="44.47284" lon="2.46529">
        <ele>283</ele>
        <time>2015-09-06T07:13:12.000Z</time>
      </trkpt>
      <trkpt lat="44.47277" lon="2.46519">
        <ele>283</ele>
        <time>2015-09-06T07:13:15.000Z</time>
      </trkpt>
      <trkpt lat="44.47269" lon="2.46508">
        <ele>283</ele>
        <time>2015-09-06T07:13:18.000Z</time>
      </trkpt>
      <trkpt lat="44.47262" lon="2.46498">
        <ele>283</ele>
        <time>2015-09-06T07:13:21.000Z</time>
      </trkpt>
      <trkpt lat="44.47255" lon="2.46488">
        <ele>283</ele>
        <time>2015-09-06T07:13:24.000Z</time>
      </trkpt>
      <trkpt lat="44.47248" lon="2.46477">
        <ele>283</ele>
        <time>2015-09-06T07:13:27.000Z</time>
      </trkpt>
      <trkpt lat="44.4724" lon="2.46465">
        <ele>283</ele>
        <time>2015-09-06T07:13:30.000Z</time>
      </trkpt>
      <trkpt lat="44.47238" lon="2.46451">
        <ele>283</ele>
        <time>2015-09-06T07:13:33.000Z</time>
      </trkpt>
      <trkpt lat="44.47238" lon="2.46433">
        <ele>282</ele>
        <time>2015-09-06T07:13:37.000Z</time>
      </trkpt>
      <trkpt lat="44.47232" lon="2.46419">
        <ele>282</ele>
        <time>2015-09-06T07:13:42.000Z</time>
      </trkpt>
      <trkpt lat="44.47221" lon="2.46416">
        <ele>283</ele>
        <time>2015-09-06T07:13:46.000Z</time>
      </trkpt>
      <trkpt lat="44.47209" lon="2.46416">
        <ele>283</ele>
        <time>2015-09-06T07:13:51.000Z</time>
      </trkpt>
      <trkpt lat="44.47197" lon="2.46415">
        <ele>283</ele>
        <time>2015-09-06T07:13:55.000Z</time>
      </trkpt>
      <trkpt lat="44.47187" lon="2.46413">
        <ele>283</ele>
        <time>2015-09-06T07:13:59.000Z</time>
      </trkpt>
      <trkpt lat="44.47178" lon="2.46405">
        <ele>283</ele>
        <time>2015-09-06T07:14:03.000Z</time>
      </trkpt>
      <trkpt lat="44.47168" lon="2.46404">
        <ele>283</ele>
        <time>2015-09-06T07:14:07.000Z</time>
      </trkpt>
      <trkpt lat="44.47158" lon="2.46404">
        <ele>287</ele>
        <time>2015-09-06T07:14:11.000Z</time>
      </trkpt>
      <trkpt lat="44.47147" lon="2.46405">
        <ele>288</ele>
        <time>2015-09-06T07:14:15.000Z</time>
      </trkpt>
      <trkpt lat="44.47136" lon="2.46406">
        <ele>289</ele>
        <time>2015-09-06T07:14:19.990Z</time>
      </trkpt>
      <trkpt lat="44.47124" lon="2.4641">
        <ele>290</ele>
        <time>2015-09-06T07:14:24.990Z</time>
      </trkpt>
      <trkpt lat="44.47115" lon="2.46413">
        <ele>291</ele>
        <time>2015-09-06T07:14:29.000Z</time>
      </trkpt>
      <trkpt lat="44.47104" lon="2.46419">
        <ele>289</ele>
        <time>2015-09-06T07:14:33.000Z</time>
      </trkpt>
      <trkpt lat="44.47097" lon="2.4643">
        <ele>289</ele>
        <time>2015-09-06T07:14:38.000Z</time>
      </trkpt>
      <trkpt lat="44.47093" lon="2.46445">
        <ele>288</ele>
        <time>2015-09-06T07:14:43.000Z</time>
      </trkpt>
      <trkpt lat="44.47103" lon="2.46447">
        <ele>287</ele>
        <time>2015-09-06T07:14:47.990Z</time>
      </trkpt>
      <trkpt lat="44.47115" lon="2.46444">
        <ele>287</ele>
        <time>2015-09-06T07:14:52.990Z</time>
      </trkpt>
      <trkpt lat="44.47122" lon="2.46458">
        <ele>286</ele>
        <time>2015-09-06T07:14:57.990Z</time>
      </trkpt>
      <trkpt lat="44.47125" lon="2.46475">
        <ele>286</ele>
        <time>2015-09-06T07:15:02.000Z</time>
      </trkpt>
      <trkpt lat="44.4713" lon="2.46491">
        <ele>285</ele>
        <time>2015-09-06T07:15:06.010Z</time>
      </trkpt>
      <trkpt lat="44.47133" lon="2.46503">
        <ele>285</ele>
        <time>2015-09-06T07:15:09.000Z</time>
      </trkpt>
      <trkpt lat="44.47136" lon="2.46521">
        <ele>285</ele>
        <time>2015-09-06T07:15:12.990Z</time>
      </trkpt>
      <trkpt lat="44.4714" lon="2.46536">
        <ele>285</ele>
        <time>2015-09-06T07:15:16.000Z</time>
      </trkpt>
      <trkpt lat="44.47142" lon="2.46552">
        <ele>285</ele>
        <time>2015-09-06T07:15:20.000Z</time>
      </trkpt>
      <trkpt lat="44.47145" lon="2.46565">
        <ele>285</ele>
        <time>2015-09-06T07:15:23.990Z</time>
      </trkpt>
      <trkpt lat="44.47148" lon="2.46582">
        <ele>285</ele>
        <time>2015-09-06T07:15:27.990Z</time>
      </trkpt>
      <trkpt lat="44.47147" lon="2.46598">
        <ele>291</ele>
        <time>2015-09-06T07:15:32.300Z</time>
      </trkpt>
      <trkpt lat="44.47143" lon="2.46611">
        <ele>293</ele>
        <time>2015-09-06T07:15:36.000Z</time>
      </trkpt>
      <trkpt lat="44.47143" lon="2.46626">
        <ele>294</ele>
        <time>2015-09-06T07:15:41.990Z</time>
      </trkpt>
      <trkpt lat="44.4713" lon="2.46624">
        <ele>294</ele>
        <time>2015-09-06T07:15:47.990Z</time>
      </trkpt>
      <trkpt lat="44.47119" lon="2.46621">
        <ele>294</ele>
        <time>2015-09-06T07:15:51.990Z</time>
      </trkpt>
      <trkpt lat="44.4711" lon="2.46613">
        <ele>294</ele>
        <time>2015-09-06T07:15:57.000Z</time>
      </trkpt>
      <trkpt lat="44.47095" lon="2.4661">
        <ele>293</ele>
        <time>2015-09-06T07:16:04.000Z</time>
      </trkpt>
      <trkpt lat="44.47084" lon="2.46606">
        <ele>293</ele>
        <time>2015-09-06T07:16:08.000Z</time>
      </trkpt>
      <trkpt lat="44.47072" lon="2.46608">
        <ele>297</ele>
        <time>2015-09-06T07:16:13.000Z</time>
      </trkpt>
      <trkpt lat="44.47062" lon="2.4661">
        <ele>299</ele>
        <time>2015-09-06T07:16:18.000Z</time>
      </trkpt>
      <trkpt lat="44.47051" lon="2.46614">
        <ele>300</ele>
        <time>2015-09-06T07:16:21.990Z</time>
      </trkpt>
      <trkpt lat="44.47043" lon="2.46622">
        <ele>301</ele>
        <time>2015-09-06T07:16:25.990Z</time>
      </trkpt>
      <trkpt lat="44.47053" lon="2.46629">
        <ele>302</ele>
        <time>2015-09-06T07:16:33.000Z</time>
      </trkpt>
      <trkpt lat="44.47064" lon="2.46632">
        <ele>302</ele>
        <time>2015-09-06T07:16:38.000Z</time>
      </trkpt>
      <trkpt lat="44.47075" lon="2.46636">
        <ele>302</ele>
        <time>2015-09-06T07:16:43.000Z</time>
      </trkpt>
      <trkpt lat="44.4708" lon="2.46649">
        <ele>304</ele>
        <time>2015-09-06T07:16:50.990Z</time>
      </trkpt>
      <trkpt lat="44.47071" lon="2.46658">
        <ele>304</ele>
        <time>2015-09-06T07:16:58.000Z</time>
      </trkpt>
      <trkpt lat="44.47063" lon="2.46669">
        <ele>315</ele>
        <time>2015-09-06T07:17:03.990Z</time>
      </trkpt>
      <trkpt lat="44.47059" lon="2.46684">
        <ele>318</ele>
        <time>2015-09-06T07:17:10.990Z</time>
      </trkpt>
      <trkpt lat="44.47056" lon="2.467">
        <ele>321</ele>
        <time>2015-09-06T07:17:16.990Z</time>
      </trkpt>
      <trkpt lat="44.47052" lon="2.46717">
        <ele>323</ele>
        <time>2015-09-06T07:17:25.000Z</time>
      </trkpt>
      <trkpt lat="44.4705" lon="2.46731">
        <ele>325</ele>
        <time>2015-09-06T07:17:34.000Z</time>
      </trkpt>
      <trkpt lat="44.47047" lon="2.46745">
        <ele>326</ele>
        <time>2015-09-06T07:17:41.000Z</time>
      </trkpt>
      <trkpt lat="44.47043" lon="2.46758">
        <ele>337</ele>
        <time>2015-09-06T07:17:46.990Z</time>
      </trkpt>
      <trkpt lat="44.47038" lon="2.46772">
        <ele>338</ele>
        <time>2015-09-06T07:17:54.000Z</time>
      </trkpt>
      <trkpt lat="44.47038" lon="2.46786">
        <ele>339</ele>
        <time>2015-09-06T07:17:58.990Z</time>
      </trkpt>
      <trkpt lat="44.47032" lon="2.46798">
        <ele>340</ele>
        <time>2015-09-06T07:18:03.990Z</time>
      </trkpt>
      <trkpt lat="44.47028" lon="2.46812">
        <ele>341</ele>
        <time>2015-09-06T07:18:08.990Z</time>
      </trkpt>
      <trkpt lat="44.47022" lon="2.46826">
        <ele>342</ele>
        <time>2015-09-06T07:18:14.990Z</time>
      </trkpt>
      <trkpt lat="44.47019" lon="2.46838">
        <ele>350</ele>
        <time>2015-09-06T07:18:19.990Z</time>
      </trkpt>
      <trkpt lat="44.47016" lon="2.46853">
        <ele>352</ele>
        <time>2015-09-06T07:18:24.990Z</time>
      </trkpt>
      <trkpt lat="44.47013" lon="2.46868">
        <ele>354</ele>
        <time>2015-09-06T07:18:31.010Z</time>
      </trkpt>
      <trkpt lat="44.47009" lon="2.46881">
        <ele>355</ele>
        <time>2015-09-06T07:18:36.990Z</time>
      </trkpt>
      <trkpt lat="44.47009" lon="2.46897">
        <ele>357</ele>
        <time>2015-09-06T07:18:43.990Z</time>
      </trkpt>
      <trkpt lat="44.47008" lon="2.4691">
        <ele>358</ele>
        <time>2015-09-06T07:18:51.000Z</time>
      </trkpt>
      <trkpt lat="44.47005" lon="2.46925">
        <ele>364</ele>
        <time>2015-09-06T07:18:57.990Z</time>
      </trkpt>
      <trkpt lat="44.47003" lon="2.46939">
        <ele>369</ele>
        <time>2015-09-06T07:19:06.010Z</time>
      </trkpt>
      <trkpt lat="44.46998" lon="2.46951">
        <ele>366</ele>
        <time>2015-09-06T07:19:12.990Z</time>
      </trkpt>
      <trkpt lat="44.4699" lon="2.46961">
        <ele>368</ele>
        <time>2015-09-06T07:19:19.990Z</time>
      </trkpt>
      <trkpt lat="44.4698" lon="2.46967">
        <ele>369</ele>
        <time>2015-09-06T07:19:26.990Z</time>
      </trkpt>
      <trkpt lat="44.4697" lon="2.46972">
        <ele>369</ele>
        <time>2015-09-06T07:19:36.990Z</time>
      </trkpt>
      <trkpt lat="44.46959" lon="2.46972">
        <ele>369</ele>
        <time>2015-09-06T07:19:43.990Z</time>
      </trkpt>
      <trkpt lat="44.46947" lon="2.46975">
        <ele>369</ele>
        <time>2015-09-06T07:19:49.990Z</time>
      </trkpt>
      <trkpt lat="44.46937" lon="2.46978">
        <ele>370</ele>
        <time>2015-09-06T07:19:56.990Z</time>
      </trkpt>
      <trkpt lat="44.46927" lon="2.46981">
        <ele>371</ele>
        <time>2015-09-06T07:20:02.990Z</time>
      </trkpt>
      <trkpt lat="44.46917" lon="2.46988">
        <ele>374</ele>
        <time>2015-09-06T07:20:08.990Z</time>
      </trkpt>
      <trkpt lat="44.46908" lon="2.46996">
        <ele>372</ele>
        <time>2015-09-06T07:20:14.990Z</time>
      </trkpt>
      <trkpt lat="44.469" lon="2.47004">
        <ele>382</ele>
        <time>2015-09-06T07:20:19.990Z</time>
      </trkpt>
      <trkpt lat="44.46891" lon="2.4701">
        <ele>383</ele>
        <time>2015-09-06T07:20:23.990Z</time>
      </trkpt>
      <trkpt lat="44.46883" lon="2.47017">
        <ele>383</ele>
        <time>2015-09-06T07:20:28.990Z</time>
      </trkpt>
      <trkpt lat="44.46876" lon="2.47028">
        <ele>384</ele>
        <time>2015-09-06T07:20:36.010Z</time>
      </trkpt>
      <trkpt lat="44.46867" lon="2.47035">
        <ele>385</ele>
        <time>2015-09-06T07:20:41.990Z</time>
      </trkpt>
      <trkpt lat="44.4686" lon="2.47045">
        <ele>386</ele>
        <time>2015-09-06T07:20:46.990Z</time>
      </trkpt>
      <trkpt lat="44.46871" lon="2.47046">
        <ele>387</ele>
        <time>2015-09-06T07:20:56.990Z</time>
      </trkpt>
      <trkpt lat="44.46882" lon="2.47043">
        <ele>387</ele>
        <time>2015-09-06T07:21:01.990Z</time>
      </trkpt>
      <trkpt lat="44.46894" lon="2.47039">
        <ele>387</ele>
        <time>2015-09-06T07:21:06.000Z</time>
      </trkpt>
      <trkpt lat="44.46905" lon="2.4704">
        <ele>388</ele>
        <time>2015-09-06T07:21:10.000Z</time>
      </trkpt>
      <trkpt lat="44.46915" lon="2.47046">
        <ele>389</ele>
        <time>2015-09-06T07:21:14.000Z</time>
      </trkpt>
      <trkpt lat="44.46924" lon="2.47054">
        <ele>394</ele>
        <time>2015-09-06T07:21:18.000Z</time>
      </trkpt>
      <trkpt lat="44.46931" lon="2.47065">
        <ele>396</ele>
        <time>2015-09-06T07:21:21.990Z</time>
      </trkpt>
      <trkpt lat="44.46935" lon="2.47077">
        <ele>397</ele>
        <time>2015-09-06T07:21:27.990Z</time>
      </trkpt>
      <trkpt lat="44.46943" lon="2.47087">
        <ele>412</ele>
        <time>2015-09-06T07:21:32.990Z</time>
      </trkpt>
      <trkpt lat="44.46932" lon="2.47085">
        <ele>410</ele>
        <time>2015-09-06T07:21:38.990Z</time>
      </trkpt>
      <trkpt lat="44.46924" lon="2.47074">
        <ele>399</ele>
        <time>2015-09-06T07:21:42.990Z</time>
      </trkpt>
      <trkpt lat="44.46915" lon="2.47066">
        <ele>395</ele>
        <time>2015-09-06T07:21:46.990Z</time>
      </trkpt>
      <trkpt lat="44.46904" lon="2.47063">
        <ele>393</ele>
        <time>2015-09-06T07:21:51.000Z</time>
      </trkpt>
      <trkpt lat="44.46892" lon="2.47067">
        <ele>392</ele>
        <time>2015-09-06T07:21:54.990Z</time>
      </trkpt>
      <trkpt lat="44.46881" lon="2.47073">
        <ele>391</ele>
        <time>2015-09-06T07:21:58.990Z</time>
      </trkpt>
      <trkpt lat="44.46872" lon="2.47081">
        <ele>391</ele>
        <time>2015-09-06T07:22:02.990Z</time>
      </trkpt>
      <trkpt lat="44.46862" lon="2.47087">
        <ele>409</ele>
        <time>2015-09-06T07:22:06.990Z</time>
      </trkpt>
      <trkpt lat="44.46854" lon="2.47095">
        <ele>408</ele>
        <time>2015-09-06T07:22:11.000Z</time>
      </trkpt>
      <trkpt lat="44.46846" lon="2.47103">
        <ele>409</ele>
        <time>2015-09-06T07:22:14.990Z</time>
      </trkpt>
      <trkpt lat="44.46839" lon="2.47113">
        <ele>411</ele>
        <time>2015-09-06T07:22:18.990Z</time>
      </trkpt>
      <trkpt lat="44.4683" lon="2.47123">
        <ele>405</ele>
        <time>2015-09-06T07:22:22.990Z</time>
      </trkpt>
      <trkpt lat="44.46821" lon="2.47131">
        <ele>407</ele>
        <time>2015-09-06T07:22:26.990Z</time>
      </trkpt>
      <trkpt lat="44.46813" lon="2.47141">
        <ele>409</ele>
        <time>2015-09-06T07:22:31.000Z</time>
      </trkpt>
      <trkpt lat="44.46804" lon="2.4715">
        <ele>408</ele>
        <time>2015-09-06T07:22:34.990Z</time>
      </trkpt>
      <trkpt lat="44.46795" lon="2.47157">
        <ele>407</ele>
        <time>2015-09-06T07:22:38.990Z</time>
      </trkpt>
      <trkpt lat="44.46786" lon="2.47163">
        <ele>406</ele>
        <time>2015-09-06T07:22:42.990Z</time>
      </trkpt>
      <trkpt lat="44.46777" lon="2.4717">
        <ele>423</ele>
        <time>2015-09-06T07:22:47.990Z</time>
      </trkpt>
      <trkpt lat="44.46766" lon="2.47177">
        <ele>420</ele>
        <time>2015-09-06T07:22:52.990Z</time>
      </trkpt>
      <trkpt lat="44.46758" lon="2.47186">
        <ele>421</ele>
        <time>2015-09-06T07:22:57.990Z</time>
      </trkpt>
      <trkpt lat="44.46749" lon="2.47193">
        <ele>411</ele>
        <time>2015-09-06T07:23:02.000Z</time>
      </trkpt>
      <trkpt lat="44.4674" lon="2.47199">
        <ele>412</ele>
        <time>2015-09-06T07:23:06.000Z</time>
      </trkpt>
      <trkpt lat="44.46729" lon="2.47208">
        <ele>414</ele>
        <time>2015-09-06T07:23:09.990Z</time>
      </trkpt>
      <trkpt lat="44.46719" lon="2.47215">
        <ele>414</ele>
        <time>2015-09-06T07:23:13.990Z</time>
      </trkpt>
      <trkpt lat="44.46709" lon="2.47222">
        <ele>414</ele>
        <time>2015-09-06T07:23:17.990Z</time>
      </trkpt>
      <trkpt lat="44.46698" lon="2.4723">
        <ele>413</ele>
        <time>2015-09-06T07:23:21.990Z</time>
      </trkpt>
      <trkpt lat="44.46689" lon="2.47241">
        <ele>413</ele>
        <time>2015-09-06T07:23:26.990Z</time>
      </trkpt>
      <trkpt lat="44.46682" lon="2.47253">
        <ele>424</ele>
        <time>2015-09-06T07:23:31.010Z</time>
      </trkpt>
      <trkpt lat="44.46675" lon="2.47265">
        <ele>425</ele>
        <time>2015-09-06T07:23:34.990Z</time>
      </trkpt>
      <trkpt lat="44.4667" lon="2.47278">
        <ele>429</ele>
        <time>2015-09-06T07:23:38.990Z</time>
      </trkpt>
      <trkpt lat="44.46665" lon="2.47293">
        <ele>411</ele>
        <time>2015-09-06T07:23:42.990Z</time>
      </trkpt>
      <trkpt lat="44.46662" lon="2.47307">
        <ele>414</ele>
        <time>2015-09-06T07:23:46.990Z</time>
      </trkpt>
      <trkpt lat="44.46661" lon="2.47321">
        <ele>421</ele>
        <time>2015-09-06T07:23:51.000Z</time>
      </trkpt>
      <trkpt lat="44.46659" lon="2.47333">
        <ele>426</ele>
        <time>2015-09-06T07:23:53.990Z</time>
      </trkpt>
      <trkpt lat="44.46658" lon="2.47346">
        <ele>428</ele>
        <time>2015-09-06T07:23:57.990Z</time>
      </trkpt>
      <trkpt lat="44.46654" lon="2.4736">
        <ele>425</ele>
        <time>2015-09-06T07:24:01.990Z</time>
      </trkpt>
      <trkpt lat="44.46652" lon="2.47375">
        <ele>425</ele>
        <time>2015-09-06T07:24:06.000Z</time>
      </trkpt>
      <trkpt lat="44.46651" lon="2.47391">
        <ele>427</ele>
        <time>2015-09-06T07:24:11.000Z</time>
      </trkpt>
      <trkpt lat="44.46649" lon="2.47405">
        <ele>430</ele>
        <time>2015-09-06T07:24:16.000Z</time>
      </trkpt>
      <trkpt lat="44.46648" lon="2.47422">
        <ele>438</ele>
        <time>2015-09-06T07:24:21.010Z</time>
      </trkpt>
      <trkpt lat="44.46647" lon="2.47437">
        <ele>437</ele>
        <time>2015-09-06T07:24:26.000Z</time>
      </trkpt>
      <trkpt lat="44.46646" lon="2.47451">
        <ele>437</ele>
        <time>2015-09-06T07:24:29.990Z</time>
      </trkpt>
      <trkpt lat="44.46644" lon="2.47467">
        <ele>438</ele>
        <time>2015-09-06T07:24:33.990Z</time>
      </trkpt>
      <trkpt lat="44.46643" lon="2.47483">
        <ele>440</ele>
        <time>2015-09-06T07:24:37.990Z</time>
      </trkpt>
      <trkpt lat="44.46641" lon="2.47499">
        <ele>442</ele>
        <time>2015-09-06T07:24:42.000Z</time>
      </trkpt>
      <trkpt lat="44.46639" lon="2.47513">
        <ele>448</ele>
        <time>2015-09-06T07:24:46.000Z</time>
      </trkpt>
      <trkpt lat="44.46637" lon="2.47529">
        <ele>449</ele>
        <time>2015-09-06T07:24:50.990Z</time>
      </trkpt>
      <trkpt lat="44.4663" lon="2.47541">
        <ele>448</ele>
        <time>2015-09-06T07:24:55.000Z</time>
      </trkpt>
      <trkpt lat="44.46624" lon="2.47552">
        <ele>449</ele>
        <time>2015-09-06T07:24:58.990Z</time>
      </trkpt>
      <trkpt lat="44.46614" lon="2.47563">
        <ele>448</ele>
        <time>2015-09-06T07:25:03.990Z</time>
      </trkpt>
      <trkpt lat="44.46603" lon="2.47569">
        <ele>448</ele>
        <time>2015-09-06T07:25:08.990Z</time>
      </trkpt>
      <trkpt lat="44.46593" lon="2.47569">
        <ele>448</ele>
        <time>2015-09-06T07:25:13.990Z</time>
      </trkpt>
      <trkpt lat="44.4658" lon="2.47568">
        <ele>445</ele>
        <time>2015-09-06T07:25:17.990Z</time>
      </trkpt>
      <trkpt lat="44.46568" lon="2.47566">
        <ele>445</ele>
        <time>2015-09-06T07:25:21.990Z</time>
      </trkpt>
      <trkpt lat="44.46557" lon="2.47566">
        <ele>444</ele>
        <time>2015-09-06T07:25:25.990Z</time>
      </trkpt>
      <trkpt lat="44.46545" lon="2.47565">
        <ele>444</ele>
        <time>2015-09-06T07:25:30.000Z</time>
      </trkpt>
      <trkpt lat="44.46535" lon="2.47566">
        <ele>444</ele>
        <time>2015-09-06T07:25:33.990Z</time>
      </trkpt>
      <trkpt lat="44.46524" lon="2.47565">
        <ele>445</ele>
        <time>2015-09-06T07:25:38.990Z</time>
      </trkpt>
      <trkpt lat="44.46513" lon="2.47566">
        <ele>446</ele>
        <time>2015-09-06T07:25:42.990Z</time>
      </trkpt>
      <trkpt lat="44.46505" lon="2.47574">
        <ele>449</ele>
        <time>2015-09-06T07:25:47.990Z</time>
      </trkpt>
      <trkpt lat="44.46498" lon="2.47585">
        <ele>454</ele>
        <time>2015-09-06T07:25:51.990Z</time>
      </trkpt>
      <trkpt lat="44.46491" lon="2.47598">
        <ele>455</ele>
        <time>2015-09-06T07:25:55.990Z</time>
      </trkpt>
      <trkpt lat="44.46485" lon="2.47611">
        <ele>456</ele>
        <time>2015-09-06T07:26:00.000Z</time>
      </trkpt>
      <trkpt lat="44.46479" lon="2.47625">
        <ele>457</ele>
        <time>2015-09-06T07:26:05.010Z</time>
      </trkpt>
      <trkpt lat="44.46473" lon="2.47639">
        <ele>458</ele>
        <time>2015-09-06T07:26:08.990Z</time>
      </trkpt>
      <trkpt lat="44.46465" lon="2.47649">
        <ele>458</ele>
        <time>2015-09-06T07:26:12.990Z</time>
      </trkpt>
      <trkpt lat="44.46459" lon="2.4766">
        <ele>458</ele>
        <time>2015-09-06T07:26:16.990Z</time>
      </trkpt>
      <trkpt lat="44.46452" lon="2.4767">
        <ele>459</ele>
        <time>2015-09-06T07:26:23.000Z</time>
      </trkpt>
      <trkpt lat="44.46448" lon="2.47684">
        <ele>459</ele>
        <time>2015-09-06T07:26:33.990Z</time>
      </trkpt>
      <trkpt lat="44.4644" lon="2.47692">
        <ele>459</ele>
        <time>2015-09-06T07:26:39.000Z</time>
      </trkpt>
      <trkpt lat="44.46428" lon="2.47702">
        <ele>459</ele>
        <time>2015-09-06T07:26:44.000Z</time>
      </trkpt>
      <trkpt lat="44.46419" lon="2.47714">
        <ele>459</ele>
        <time>2015-09-06T07:26:48.010Z</time>
      </trkpt>
      <trkpt lat="44.46411" lon="2.47725">
        <ele>458</ele>
        <time>2015-09-06T07:26:50.990Z</time>
      </trkpt>
      <trkpt lat="44.46402" lon="2.47733">
        <ele>458</ele>
        <time>2015-09-06T07:26:53.990Z</time>
      </trkpt>
      <trkpt lat="44.46393" lon="2.47741">
        <ele>458</ele>
        <time>2015-09-06T07:26:56.990Z</time>
      </trkpt>
      <trkpt lat="44.46383" lon="2.47751">
        <ele>458</ele>
        <time>2015-09-06T07:27:00.990Z</time>
      </trkpt>
      <trkpt lat="44.46387" lon="2.4777">
        <ele>458</ele>
        <time>2015-09-06T07:27:04.990Z</time>
      </trkpt>
      <trkpt lat="44.46394" lon="2.47782">
        <ele>458</ele>
        <time>2015-09-06T07:27:08.000Z</time>
      </trkpt>
      <trkpt lat="44.46401" lon="2.47797">
        <ele>459</ele>
        <time>2015-09-06T07:27:11.990Z</time>
      </trkpt>
      <trkpt lat="44.46409" lon="2.47807">
        <ele>459</ele>
        <time>2015-09-06T07:27:14.990Z</time>
      </trkpt>
      <trkpt lat="44.46415" lon="2.47818">
        <ele>459</ele>
        <time>2015-09-06T07:27:18.000Z</time>
      </trkpt>
      <trkpt lat="44.4642" lon="2.4783">
        <ele>460</ele>
        <time>2015-09-06T07:27:20.990Z</time>
      </trkpt>
      <trkpt lat="44.46424" lon="2.47845">
        <ele>461</ele>
        <time>2015-09-06T07:27:24.990Z</time>
      </trkpt>
      <trkpt lat="44.46427" lon="2.47861">
        <ele>461</ele>
        <time>2015-09-06T07:27:29.000Z</time>
      </trkpt>
      <trkpt lat="44.46429" lon="2.47878">
        <ele>461</ele>
        <time>2015-09-06T07:27:32.000Z</time>
      </trkpt>
      <trkpt lat="44.46427" lon="2.47892">
        <ele>461</ele>
        <time>2015-09-06T07:27:34.990Z</time>
      </trkpt>
      <trkpt lat="44.46425" lon="2.47911">
        <ele>460</ele>
        <time>2015-09-06T07:27:38.990Z</time>
      </trkpt>
      <trkpt lat="44.46423" lon="2.47925">
        <ele>461</ele>
        <time>2015-09-06T07:27:42.000Z</time>
      </trkpt>
      <trkpt lat="44.4642" lon="2.47941">
        <ele>462</ele>
        <time>2015-09-06T07:27:45.990Z</time>
      </trkpt>
      <trkpt lat="44.46417" lon="2.47955">
        <ele>463</ele>
        <time>2015-09-06T07:27:48.990Z</time>
      </trkpt>
      <trkpt lat="44.46416" lon="2.47971">
        <ele>463</ele>
        <time>2015-09-06T07:27:52.990Z</time>
      </trkpt>
      <trkpt lat="44.46415" lon="2.47988">
        <ele>463</ele>
        <time>2015-09-06T07:27:57.990Z</time>
      </trkpt>
      <trkpt lat="44.46414" lon="2.48005">
        <ele>465</ele>
        <time>2015-09-06T07:28:02.000Z</time>
      </trkpt>
      <trkpt lat="44.46409" lon="2.48018">
        <ele>466</ele>
        <time>2015-09-06T07:28:05.990Z</time>
      </trkpt>
      <trkpt lat="44.46399" lon="2.48026">
        <ele>467</ele>
        <time>2015-09-06T07:28:11.100Z</time>
      </trkpt>
      <trkpt lat="44.4639" lon="2.48033">
        <ele>467</ele>
        <time>2015-09-06T07:28:14.000Z</time>
      </trkpt>
      <trkpt lat="44.4638" lon="2.48039">
        <ele>468</ele>
        <time>2015-09-06T07:28:17.990Z</time>
      </trkpt>
      <trkpt lat="44.4637" lon="2.48046">
        <ele>468</ele>
        <time>2015-09-06T07:28:22.990Z</time>
      </trkpt>
      <trkpt lat="44.4636" lon="2.48049">
        <ele>468</ele>
        <time>2015-09-06T07:28:26.990Z</time>
      </trkpt>
      <trkpt lat="44.46349" lon="2.48055">
        <ele>469</ele>
        <time>2015-09-06T07:28:31.000Z</time>
      </trkpt>
      <trkpt lat="44.46338" lon="2.48061">
        <ele>469</ele>
        <time>2015-09-06T07:28:34.000Z</time>
      </trkpt>
      <trkpt lat="44.46327" lon="2.48066">
        <ele>472</ele>
        <time>2015-09-06T07:28:37.000Z</time>
      </trkpt>
      <trkpt lat="44.46317" lon="2.48072">
        <ele>472</ele>
        <time>2015-09-06T07:28:41.000Z</time>
      </trkpt>
      <trkpt lat="44.46305" lon="2.48074">
        <ele>472</ele>
        <time>2015-09-06T07:28:44.990Z</time>
      </trkpt>
      <trkpt lat="44.46295" lon="2.48081">
        <ele>473</ele>
        <time>2015-09-06T07:28:49.000Z</time>
      </trkpt>
      <trkpt lat="44.46285" lon="2.48084">
        <ele>477</ele>
        <time>2015-09-06T07:28:53.000Z</time>
      </trkpt>
      <trkpt lat="44.46272" lon="2.48077">
        <ele>474</ele>
        <time>2015-09-06T07:28:57.010Z</time>
      </trkpt>
      <trkpt lat="44.46259" lon="2.48068">
        <ele>474</ele>
        <time>2015-09-06T07:29:02.000Z</time>
      </trkpt>
      <trkpt lat="44.46248" lon="2.48068">
        <ele>478</ele>
        <time>2015-09-06T07:29:06.000Z</time>
      </trkpt>
      <trkpt lat="44.46238" lon="2.4807">
        <ele>478</ele>
        <time>2015-09-06T07:29:10.000Z</time>
      </trkpt>
      <trkpt lat="44.46229" lon="2.48062">
        <ele>479</ele>
        <time>2015-09-06T07:29:14.990Z</time>
      </trkpt>
      <trkpt lat="44.4622" lon="2.48052">
        <ele>479</ele>
        <time>2015-09-06T07:29:19.990Z</time>
      </trkpt>
      <trkpt lat="44.46211" lon="2.48044">
        <ele>479</ele>
        <time>2015-09-06T07:29:24.990Z</time>
      </trkpt>
      <trkpt lat="44.46202" lon="2.48042">
        <ele>479</ele>
        <time>2015-09-06T07:29:29.990Z</time>
      </trkpt>
      <trkpt lat="44.46191" lon="2.48043">
        <ele>480</ele>
        <time>2015-09-06T07:29:35.990Z</time>
      </trkpt>
      <trkpt lat="44.46177" lon="2.48045">
        <ele>481</ele>
        <time>2015-09-06T07:29:43.000Z</time>
      </trkpt>
      <trkpt lat="44.46166" lon="2.48052">
        <ele>482</ele>
        <time>2015-09-06T07:29:47.990Z</time>
      </trkpt>
      <trkpt lat="44.46158" lon="2.48061">
        <ele>483</ele>
        <time>2015-09-06T07:29:53.990Z</time>
      </trkpt>
      <trkpt lat="44.4615" lon="2.4807">
        <ele>484</ele>
        <time>2015-09-06T07:29:58.990Z</time>
      </trkpt>
      <trkpt lat="44.46143" lon="2.48083">
        <ele>484</ele>
        <time>2015-09-06T07:30:03.990Z</time>
      </trkpt>
      <trkpt lat="44.46135" lon="2.48093">
        <ele>491</ele>
        <time>2015-09-06T07:30:08.990Z</time>
      </trkpt>
      <trkpt lat="44.46126" lon="2.48103">
        <ele>491</ele>
        <time>2015-09-06T07:30:14.990Z</time>
      </trkpt>
      <trkpt lat="44.46118" lon="2.48111">
        <ele>491</ele>
        <time>2015-09-06T07:30:18.990Z</time>
      </trkpt>
      <trkpt lat="44.46108" lon="2.48119">
        <ele>491</ele>
        <time>2015-09-06T07:30:22.990Z</time>
      </trkpt>
      <trkpt lat="44.46097" lon="2.48129">
        <ele>491</ele>
        <time>2015-09-06T07:30:27.000Z</time>
      </trkpt>
      <trkpt lat="44.46089" lon="2.48137">
        <ele>492</ele>
        <time>2015-09-06T07:30:29.990Z</time>
      </trkpt>
      <trkpt lat="44.46081" lon="2.48146">
        <ele>487</ele>
        <time>2015-09-06T07:30:32.990Z</time>
      </trkpt>
      <trkpt lat="44.46072" lon="2.48156">
        <ele>488</ele>
        <time>2015-09-06T07:30:37.000Z</time>
      </trkpt>
      <trkpt lat="44.46065" lon="2.48168">
        <ele>492</ele>
        <time>2015-09-06T07:30:40.990Z</time>
      </trkpt>
      <trkpt lat="44.46059" lon="2.48181">
        <ele>492</ele>
        <time>2015-09-06T07:30:44.990Z</time>
      </trkpt>
      <trkpt lat="44.46049" lon="2.48193">
        <ele>491</ele>
        <time>2015-09-06T07:30:48.990Z</time>
      </trkpt>
      <trkpt lat="44.4604" lon="2.48207">
        <ele>491</ele>
        <time>2015-09-06T07:30:52.990Z</time>
      </trkpt>
      <trkpt lat="44.46034" lon="2.48219">
        <ele>491</ele>
        <time>2015-09-06T07:30:56.000Z</time>
      </trkpt>
      <trkpt lat="44.46026" lon="2.48234">
        <ele>491</ele>
        <time>2015-09-06T07:30:59.990Z</time>
      </trkpt>
      <trkpt lat="44.4602" lon="2.48245">
        <ele>492</ele>
        <time>2015-09-06T07:31:03.000Z</time>
      </trkpt>
      <trkpt lat="44.46013" lon="2.48258">
        <ele>495</ele>
        <time>2015-09-06T07:31:05.990Z</time>
      </trkpt>
      <trkpt lat="44.46009" lon="2.48271">
        <ele>496</ele>
        <time>2015-09-06T07:31:08.990Z</time>
      </trkpt>
      <trkpt lat="44.46003" lon="2.48285">
        <ele>497</ele>
        <time>2015-09-06T07:31:11.990Z</time>
      </trkpt>
      <trkpt lat="44.45997" lon="2.48298">
        <ele>491</ele>
        <time>2015-09-06T07:31:14.990Z</time>
      </trkpt>
      <trkpt lat="44.45992" lon="2.4831">
        <ele>492</ele>
        <time>2015-09-06T07:31:18.000Z</time>
      </trkpt>
      <trkpt lat="44.45986" lon="2.48322">
        <ele>493</ele>
        <time>2015-09-06T07:31:20.990Z</time>
      </trkpt>
      <trkpt lat="44.4598" lon="2.48337">
        <ele>498</ele>
        <time>2015-09-06T07:31:25.000Z</time>
      </trkpt>
      <trkpt lat="44.45975" lon="2.48351">
        <ele>498</ele>
        <time>2015-09-06T07:31:29.000Z</time>
      </trkpt>
      <trkpt lat="44.45969" lon="2.48364">
        <ele>499</ele>
        <time>2015-09-06T07:31:32.000Z</time>
      </trkpt>
      <trkpt lat="44.45965" lon="2.48377">
        <ele>499</ele>
        <time>2015-09-06T07:31:35.990Z</time>
      </trkpt>
      <trkpt lat="44.45963" lon="2.48393">
        <ele>500</ele>
        <time>2015-09-06T07:31:41.000Z</time>
      </trkpt>
      <trkpt lat="44.45961" lon="2.48407">
        <ele>501</ele>
        <time>2015-09-06T07:31:46.000Z</time>
      </trkpt>
      <trkpt lat="44.45955" lon="2.48422">
        <ele>511</ele>
        <time>2015-09-06T07:31:50.990Z</time>
      </trkpt>
      <trkpt lat="44.4595" lon="2.48435">
        <ele>511</ele>
        <time>2015-09-06T07:31:55.000Z</time>
      </trkpt>
      <trkpt lat="44.45946" lon="2.48448">
        <ele>512</ele>
        <time>2015-09-06T07:32:00.990Z</time>
      </trkpt>
      <trkpt lat="44.45938" lon="2.48458">
        <ele>513</ele>
        <time>2015-09-06T07:32:05.990Z</time>
      </trkpt>
      <trkpt lat="44.45929" lon="2.48465">
        <ele>514</ele>
        <time>2015-09-06T07:32:11.000Z</time>
      </trkpt>
      <trkpt lat="44.4592" lon="2.48471">
        <ele>515</ele>
        <time>2015-09-06T07:32:15.000Z</time>
      </trkpt>
      <trkpt lat="44.45909" lon="2.48474">
        <ele>514</ele>
        <time>2015-09-06T07:32:20.000Z</time>
      </trkpt>
      <trkpt lat="44.45897" lon="2.48476">
        <ele>514</ele>
        <time>2015-09-06T07:32:25.000Z</time>
      </trkpt>
      <trkpt lat="44.45888" lon="2.4848">
        <ele>514</ele>
        <time>2015-09-06T07:32:28.000Z</time>
      </trkpt>
      <trkpt lat="44.45877" lon="2.48483">
        <ele>515</ele>
        <time>2015-09-06T07:32:31.000Z</time>
      </trkpt>
      <trkpt lat="44.45867" lon="2.48481">
        <ele>515</ele>
        <time>2015-09-06T07:32:34.990Z</time>
      </trkpt>
      <trkpt lat="44.45854" lon="2.48479">
        <ele>515</ele>
        <time>2015-09-06T07:32:41.000Z</time>
      </trkpt>
      <trkpt lat="44.45843" lon="2.4848">
        <ele>516</ele>
        <time>2015-09-06T07:32:45.000Z</time>
      </trkpt>
      <trkpt lat="44.4583" lon="2.48481">
        <ele>521</ele>
        <time>2015-09-06T07:32:51.000Z</time>
      </trkpt>
      <trkpt lat="44.45819" lon="2.48479">
        <ele>521</ele>
        <time>2015-09-06T07:32:55.000Z</time>
      </trkpt>
      <trkpt lat="44.45808" lon="2.48479">
        <ele>521</ele>
        <time>2015-09-06T07:32:59.000Z</time>
      </trkpt>
      <trkpt lat="44.4579" lon="2.48475">
        <ele>522</ele>
        <time>2015-09-06T07:33:05.000Z</time>
      </trkpt>
      <trkpt lat="44.4578" lon="2.48471">
        <ele>522</ele>
        <time>2015-09-06T07:33:09.990Z</time>
      </trkpt>
      <trkpt lat="44.4577" lon="2.48467">
        <ele>523</ele>
        <time>2015-09-06T07:33:14.000Z</time>
      </trkpt>
      <trkpt lat="44.4576" lon="2.48466">
        <ele>523</ele>
        <time>2015-09-06T07:33:18.110Z</time>
      </trkpt>
      <trkpt lat="44.45751" lon="2.48457">
        <ele>522</ele>
        <time>2015-09-06T07:33:22.010Z</time>
      </trkpt>
      <trkpt lat="44.45741" lon="2.48444">
        <ele>526</ele>
        <time>2015-09-06T07:33:28.000Z</time>
      </trkpt>
      <trkpt lat="44.45731" lon="2.48443">
        <ele>526</ele>
        <time>2015-09-06T07:33:32.000Z</time>
      </trkpt>
      <trkpt lat="44.45721" lon="2.48442">
        <ele>527</ele>
        <time>2015-09-06T07:33:37.000Z</time>
      </trkpt>
      <trkpt lat="44.4571" lon="2.48439">
        <ele>527</ele>
        <time>2015-09-06T07:33:42.000Z</time>
      </trkpt>
      <trkpt lat="44.45699" lon="2.4844">
        <ele>528</ele>
        <time>2015-09-06T07:33:46.000Z</time>
      </trkpt>
      <trkpt lat="44.4569" lon="2.48447">
        <ele>528</ele>
        <time>2015-09-06T07:33:51.000Z</time>
      </trkpt>
      <trkpt lat="44.45689" lon="2.4846">
        <ele>528</ele>
        <time>2015-09-06T07:34:46.990Z</time>
      </trkpt>
      <trkpt lat="44.45697" lon="2.48469">
        <ele>529</ele>
        <time>2015-09-06T07:35:07.990Z</time>
      </trkpt>
      <trkpt lat="44.4569" lon="2.48478">
        <ele>529</ele>
        <time>2015-09-06T07:35:29.990Z</time>
      </trkpt>
      <trkpt lat="44.45682" lon="2.48484">
        <ele>529</ele>
        <time>2015-09-06T07:35:32.990Z</time>
      </trkpt>
      <trkpt lat="44.45671" lon="2.48493">
        <ele>530</ele>
        <time>2015-09-06T07:35:35.990Z</time>
      </trkpt>
      <trkpt lat="44.45661" lon="2.48498">
        <ele>530</ele>
        <time>2015-09-06T07:35:38.990Z</time>
      </trkpt>
      <trkpt lat="44.4565" lon="2.48504">
        <ele>531</ele>
        <time>2015-09-06T07:35:42.000Z</time>
      </trkpt>
      <trkpt lat="44.4564" lon="2.48504">
        <ele>531</ele>
        <time>2015-09-06T07:35:44.990Z</time>
      </trkpt>
      <trkpt lat="44.45629" lon="2.48507">
        <ele>531</ele>
        <time>2015-09-06T07:35:47.990Z</time>
      </trkpt>
      <trkpt lat="44.45617" lon="2.48515">
        <ele>531</ele>
        <time>2015-09-06T07:35:52.000Z</time>
      </trkpt>
      <trkpt lat="44.45608" lon="2.4852">
        <ele>530</ele>
        <time>2015-09-06T07:35:54.990Z</time>
      </trkpt>
      <trkpt lat="44.45597" lon="2.48528">
        <ele>530</ele>
        <time>2015-09-06T07:35:58.990Z</time>
      </trkpt>
      <trkpt lat="44.45588" lon="2.48533">
        <ele>530</ele>
        <time>2015-09-06T07:36:02.000Z</time>
      </trkpt>
      <trkpt lat="44.45578" lon="2.48539">
        <ele>529</ele>
        <time>2015-09-06T07:36:04.990Z</time>
      </trkpt>
      <trkpt lat="44.45568" lon="2.48548">
        <ele>529</ele>
        <time>2015-09-06T07:36:07.990Z</time>
      </trkpt>
      <trkpt lat="44.45559" lon="2.48556">
        <ele>529</ele>
        <time>2015-09-06T07:36:10.990Z</time>
      </trkpt>
      <trkpt lat="44.4555" lon="2.48565">
        <ele>529</ele>
        <time>2015-09-06T07:36:13.990Z</time>
      </trkpt>
      <trkpt lat="44.45542" lon="2.48573">
        <ele>528</ele>
        <time>2015-09-06T07:36:17.000Z</time>
      </trkpt>
      <trkpt lat="44.45534" lon="2.48585">
        <ele>528</ele>
        <time>2015-09-06T07:36:19.990Z</time>
      </trkpt>
      <trkpt lat="44.45526" lon="2.48596">
        <ele>528</ele>
        <time>2015-09-06T07:36:22.990Z</time>
      </trkpt>
      <trkpt lat="44.45517" lon="2.48611">
        <ele>528</ele>
        <time>2015-09-06T07:36:27.000Z</time>
      </trkpt>
      <trkpt lat="44.45507" lon="2.48617">
        <ele>528</ele>
        <time>2015-09-06T07:36:30.000Z</time>
      </trkpt>
      <trkpt lat="44.45496" lon="2.48625">
        <ele>528</ele>
        <time>2015-09-06T07:36:34.990Z</time>
      </trkpt>
      <trkpt lat="44.45488" lon="2.48633">
        <ele>528</ele>
        <time>2015-09-06T07:36:38.000Z</time>
      </trkpt>
      <trkpt lat="44.45476" lon="2.48638">
        <ele>529</ele>
        <time>2015-09-06T07:36:41.990Z</time>
      </trkpt>
      <trkpt lat="44.45464" lon="2.48642">
        <ele>529</ele>
        <time>2015-09-06T07:36:46.000Z</time>
      </trkpt>
      <trkpt lat="44.45452" lon="2.48648">
        <ele>529</ele>
        <time>2015-09-06T07:36:51.000Z</time>
      </trkpt>
      <trkpt lat="44.45443" lon="2.48658">
        <ele>529</ele>
        <time>2015-09-06T07:36:55.010Z</time>
      </trkpt>
      <trkpt lat="44.45434" lon="2.48667">
        <ele>530</ele>
        <time>2015-09-06T07:36:58.990Z</time>
      </trkpt>
      <trkpt lat="44.45426" lon="2.48679">
        <ele>531</ele>
        <time>2015-09-06T07:37:02.990Z</time>
      </trkpt>
      <trkpt lat="44.45419" lon="2.48692">
        <ele>531</ele>
        <time>2015-09-06T07:37:06.990Z</time>
      </trkpt>
      <trkpt lat="44.45413" lon="2.48707">
        <ele>531</ele>
        <time>2015-09-06T07:37:10.990Z</time>
      </trkpt>
      <trkpt lat="44.4541" lon="2.48721">
        <ele>531</ele>
        <time>2015-09-06T07:37:15.000Z</time>
      </trkpt>
      <trkpt lat="44.45405" lon="2.48736">
        <ele>531</ele>
        <time>2015-09-06T07:37:18.990Z</time>
      </trkpt>
      <trkpt lat="44.45402" lon="2.48751">
        <ele>531</ele>
        <time>2015-09-06T07:37:22.990Z</time>
      </trkpt>
      <trkpt lat="44.45395" lon="2.48765">
        <ele>531</ele>
        <time>2015-09-06T07:37:26.990Z</time>
      </trkpt>
      <trkpt lat="44.45387" lon="2.48777">
        <ele>531</ele>
        <time>2015-09-06T07:37:30.010Z</time>
      </trkpt>
      <trkpt lat="44.45379" lon="2.48788">
        <ele>531</ele>
        <time>2015-09-06T07:37:33.990Z</time>
      </trkpt>
      <trkpt lat="44.45371" lon="2.48798">
        <ele>530</ele>
        <time>2015-09-06T07:37:36.990Z</time>
      </trkpt>
      <trkpt lat="44.45359" lon="2.48805">
        <ele>530</ele>
        <time>2015-09-06T07:37:41.990Z</time>
      </trkpt>
      <trkpt lat="44.4535" lon="2.48811">
        <ele>530</ele>
        <time>2015-09-06T07:37:45.000Z</time>
      </trkpt>
      <trkpt lat="44.45339" lon="2.4882">
        <ele>530</ele>
        <time>2015-09-06T07:37:48.990Z</time>
      </trkpt>
      <trkpt lat="44.4533" lon="2.48829">
        <ele>528</ele>
        <time>2015-09-06T07:37:51.990Z</time>
      </trkpt>
      <trkpt lat="44.45321" lon="2.48839">
        <ele>528</ele>
        <time>2015-09-06T07:37:55.000Z</time>
      </trkpt>
      <trkpt lat="44.45313" lon="2.48848">
        <ele>528</ele>
        <time>2015-09-06T07:37:58.990Z</time>
      </trkpt>
      <trkpt lat="44.45305" lon="2.48857">
        <ele>527</ele>
        <time>2015-09-06T07:38:01.990Z</time>
      </trkpt>
      <trkpt lat="44.45297" lon="2.48867">
        <ele>527</ele>
        <time>2015-09-06T07:38:05.000Z</time>
      </trkpt>
      <trkpt lat="44.45289" lon="2.48878">
        <ele>527</ele>
        <time>2015-09-06T07:38:07.990Z</time>
      </trkpt>
      <trkpt lat="44.45283" lon="2.48888">
        <ele>527</ele>
        <time>2015-09-06T07:38:10.990Z</time>
      </trkpt>
      <trkpt lat="44.45276" lon="2.48899">
        <ele>526</ele>
        <time>2015-09-06T07:38:13.990Z</time>
      </trkpt>
      <trkpt lat="44.45269" lon="2.48914">
        <ele>525</ele>
        <time>2015-09-06T07:38:17.990Z</time>
      </trkpt>
      <trkpt lat="44.45265" lon="2.48931">
        <ele>527</ele>
        <time>2015-09-06T07:38:21.990Z</time>
      </trkpt>
      <trkpt lat="44.45264" lon="2.48946">
        <ele>528</ele>
        <time>2015-09-06T07:38:25.990Z</time>
      </trkpt>
      <trkpt lat="44.45259" lon="2.48962">
        <ele>528</ele>
        <time>2015-09-06T07:38:30.990Z</time>
      </trkpt>
      <trkpt lat="44.45251" lon="2.48977">
        <ele>528</ele>
        <time>2015-09-06T07:38:35.000Z</time>
      </trkpt>
      <trkpt lat="44.45243" lon="2.48988">
        <ele>522</ele>
        <time>2015-09-06T07:38:37.990Z</time>
      </trkpt>
      <trkpt lat="44.45236" lon="2.48998">
        <ele>521</ele>
        <time>2015-09-06T07:38:40.990Z</time>
      </trkpt>
      <trkpt lat="44.45228" lon="2.49009">
        <ele>520</ele>
        <time>2015-09-06T07:38:43.990Z</time>
      </trkpt>
      <trkpt lat="44.45222" lon="2.49019">
        <ele>519</ele>
        <time>2015-09-06T07:38:46.990Z</time>
      </trkpt>
      <trkpt lat="44.45215" lon="2.49036">
        <ele>518</ele>
        <time>2015-09-06T07:38:50.990Z</time>
      </trkpt>
      <trkpt lat="44.45211" lon="2.49048">
        <ele>517</ele>
        <time>2015-09-06T07:38:53.990Z</time>
      </trkpt>
      <trkpt lat="44.45205" lon="2.49061">
        <ele>517</ele>
        <time>2015-09-06T07:38:56.990Z</time>
      </trkpt>
      <trkpt lat="44.45198" lon="2.49075">
        <ele>516</ele>
        <time>2015-09-06T07:39:00.990Z</time>
      </trkpt>
      <trkpt lat="44.45191" lon="2.49085">
        <ele>516</ele>
        <time>2015-09-06T07:39:03.990Z</time>
      </trkpt>
      <trkpt lat="44.45185" lon="2.491">
        <ele>516</ele>
        <time>2015-09-06T07:39:07.990Z</time>
      </trkpt>
      <trkpt lat="44.45176" lon="2.49114">
        <ele>517</ele>
        <time>2015-09-06T07:39:11.990Z</time>
      </trkpt>
      <trkpt lat="44.4517" lon="2.4913">
        <ele>519</ele>
        <time>2015-09-06T07:39:15.990Z</time>
      </trkpt>
      <trkpt lat="44.45164" lon="2.49144">
        <ele>507</ele>
        <time>2015-09-06T07:39:20.000Z</time>
      </trkpt>
      <trkpt lat="44.45158" lon="2.49158">
        <ele>511</ele>
        <time>2015-09-06T07:39:22.990Z</time>
      </trkpt>
      <trkpt lat="44.4515" lon="2.49171">
        <ele>514</ele>
        <time>2015-09-06T07:39:25.990Z</time>
      </trkpt>
      <trkpt lat="44.45138" lon="2.49177">
        <ele>512</ele>
        <time>2015-09-06T07:39:28.990Z</time>
      </trkpt>
      <trkpt lat="44.45127" lon="2.49185">
        <ele>510</ele>
        <time>2015-09-06T07:39:31.990Z</time>
      </trkpt>
      <trkpt lat="44.45116" lon="2.49192">
        <ele>508</ele>
        <time>2015-09-06T07:39:35.000Z</time>
      </trkpt>
      <trkpt lat="44.45109" lon="2.49204">
        <ele>508</ele>
        <time>2015-09-06T07:39:38.990Z</time>
      </trkpt>
      <trkpt lat="44.45103" lon="2.49217">
        <ele>508</ele>
        <time>2015-09-06T07:39:44.000Z</time>
      </trkpt>
      <trkpt lat="44.45103" lon="2.49231">
        <ele>509</ele>
        <time>2015-09-06T07:39:47.990Z</time>
      </trkpt>
      <trkpt lat="44.45103" lon="2.49246">
        <ele>509</ele>
        <time>2015-09-06T07:39:52.990Z</time>
      </trkpt>
      <trkpt lat="44.45102" lon="2.4926">
        <ele>512</ele>
        <time>2015-09-06T07:39:57.000Z</time>
      </trkpt>
      <trkpt lat="44.45102" lon="2.49277">
        <ele>514</ele>
        <time>2015-09-06T07:40:00.990Z</time>
      </trkpt>
      <trkpt lat="44.45102" lon="2.49293">
        <ele>515</ele>
        <time>2015-09-06T07:40:04.990Z</time>
      </trkpt>
      <trkpt lat="44.45099" lon="2.49309">
        <ele>515</ele>
        <time>2015-09-06T07:40:08.990Z</time>
      </trkpt>
      <trkpt lat="44.45098" lon="2.49325">
        <ele>514</ele>
        <time>2015-09-06T07:40:12.990Z</time>
      </trkpt>
      <trkpt lat="44.45098" lon="2.49342">
        <ele>515</ele>
        <time>2015-09-06T07:40:17.000Z</time>
      </trkpt>
      <trkpt lat="44.451" lon="2.49359">
        <ele>517</ele>
        <time>2015-09-06T07:40:20.990Z</time>
      </trkpt>
      <trkpt lat="44.45103" lon="2.49374">
        <ele>517</ele>
        <time>2015-09-06T07:40:24.990Z</time>
      </trkpt>
      <trkpt lat="44.45107" lon="2.49389">
        <ele>517</ele>
        <time>2015-09-06T07:40:28.990Z</time>
      </trkpt>
      <trkpt lat="44.45108" lon="2.49404">
        <ele>516</ele>
        <time>2015-09-06T07:40:32.990Z</time>
      </trkpt>
      <trkpt lat="44.45106" lon="2.49418">
        <ele>514</ele>
        <time>2015-09-06T07:40:37.000Z</time>
      </trkpt>
      <trkpt lat="44.45104" lon="2.49433">
        <ele>514</ele>
        <time>2015-09-06T07:40:40.990Z</time>
      </trkpt>
      <trkpt lat="44.45104" lon="2.4945">
        <ele>515</ele>
        <time>2015-09-06T07:40:44.990Z</time>
      </trkpt>
      <trkpt lat="44.45106" lon="2.49468">
        <ele>514</ele>
        <time>2015-09-06T07:40:48.990Z</time>
      </trkpt>
      <trkpt lat="44.45106" lon="2.49482">
        <ele>513</ele>
        <time>2015-09-06T07:40:52.000Z</time>
      </trkpt>
      <trkpt lat="44.45108" lon="2.49496">
        <ele>512</ele>
        <time>2015-09-06T07:40:54.990Z</time>
      </trkpt>
      <trkpt lat="44.45108" lon="2.4951">
        <ele>512</ele>
        <time>2015-09-06T07:40:57.990Z</time>
      </trkpt>
      <trkpt lat="44.45108" lon="2.49526">
        <ele>513</ele>
        <time>2015-09-06T07:41:00.990Z</time>
      </trkpt>
      <trkpt lat="44.45107" lon="2.4954">
        <ele>513</ele>
        <time>2015-09-06T07:41:03.990Z</time>
      </trkpt>
      <trkpt lat="44.45108" lon="2.49555">
        <ele>513</ele>
        <time>2015-09-06T07:41:07.000Z</time>
      </trkpt>
      <trkpt lat="44.45112" lon="2.49569">
        <ele>513</ele>
        <time>2015-09-06T07:41:10.990Z</time>
      </trkpt>
      <trkpt lat="44.45116" lon="2.49584">
        <ele>512</ele>
        <time>2015-09-06T07:41:14.990Z</time>
      </trkpt>
      <trkpt lat="44.45117" lon="2.49602">
        <ele>513</ele>
        <time>2015-09-06T07:41:18.990Z</time>
      </trkpt>
      <trkpt lat="44.45119" lon="2.49619">
        <ele>513</ele>
        <time>2015-09-06T07:41:22.990Z</time>
      </trkpt>
      <trkpt lat="44.4512" lon="2.49637">
        <ele>512</ele>
        <time>2015-09-06T07:41:27.000Z</time>
      </trkpt>
      <trkpt lat="44.4512" lon="2.49655">
        <ele>511</ele>
        <time>2015-09-06T07:41:30.990Z</time>
      </trkpt>
      <trkpt lat="44.45122" lon="2.49666">
        <ele>511</ele>
        <time>2015-09-06T07:41:33.990Z</time>
      </trkpt>
      <trkpt lat="44.45123" lon="2.4968">
        <ele>508</ele>
        <time>2015-09-06T07:41:37.000Z</time>
      </trkpt>
      <trkpt lat="44.45128" lon="2.49695">
        <ele>508</ele>
        <time>2015-09-06T07:41:40.990Z</time>
      </trkpt>
      <trkpt lat="44.45134" lon="2.49709">
        <ele>509</ele>
        <time>2015-09-06T07:41:44.990Z</time>
      </trkpt>
      <trkpt lat="44.45141" lon="2.49722">
        <ele>511</ele>
        <time>2015-09-06T07:41:48.990Z</time>
      </trkpt>
      <trkpt lat="44.45143" lon="2.49739">
        <ele>512</ele>
        <time>2015-09-06T07:41:52.990Z</time>
      </trkpt>
      <trkpt lat="44.45144" lon="2.49756">
        <ele>511</ele>
        <time>2015-09-06T07:41:55.990Z</time>
      </trkpt>
      <trkpt lat="44.45145" lon="2.49773">
        <ele>509</ele>
        <time>2015-09-06T07:41:58.990Z</time>
      </trkpt>
      <trkpt lat="44.45146" lon="2.49788">
        <ele>508</ele>
        <time>2015-09-06T07:42:02.000Z</time>
      </trkpt>
      <trkpt lat="44.45147" lon="2.49802">
        <ele>508</ele>
        <time>2015-09-06T07:42:04.990Z</time>
      </trkpt>
      <trkpt lat="44.45137" lon="2.49807">
        <ele>507</ele>
        <time>2015-09-06T07:42:09.990Z</time>
      </trkpt>
      <trkpt lat="44.45126" lon="2.49802">
        <ele>504</ele>
        <time>2015-09-06T07:42:13.990Z</time>
      </trkpt>
      <trkpt lat="44.45115" lon="2.49801">
        <ele>502</ele>
        <time>2015-09-06T07:42:17.990Z</time>
      </trkpt>
      <trkpt lat="44.45104" lon="2.49808">
        <ele>500</ele>
        <time>2015-09-06T07:42:22.990Z</time>
      </trkpt>
      <trkpt lat="44.45093" lon="2.49814">
        <ele>497</ele>
        <time>2015-09-06T07:42:27.000Z</time>
      </trkpt>
      <trkpt lat="44.45084" lon="2.49822">
        <ele>494</ele>
        <time>2015-09-06T07:42:30.000Z</time>
      </trkpt>
      <trkpt lat="44.45068" lon="2.49838">
        <ele>479</ele>
        <time>2015-09-06T07:42:35.000Z</time>
      </trkpt>
      <trkpt lat="44.45072" lon="2.49852">
        <ele>478</ele>
        <time>2015-09-06T07:42:40.000Z</time>
      </trkpt>
      <trkpt lat="44.45077" lon="2.49865">
        <ele>478</ele>
        <time>2015-09-06T07:42:43.000Z</time>
      </trkpt>
      <trkpt lat="44.45083" lon="2.49877">
        <ele>478</ele>
        <time>2015-09-06T07:42:46.000Z</time>
      </trkpt>
      <trkpt lat="44.45086" lon="2.49897">
        <ele>500</ele>
        <time>2015-09-06T07:42:51.000Z</time>
      </trkpt>
      <trkpt lat="44.45088" lon="2.49914">
        <ele>498</ele>
        <time>2015-09-06T07:42:55.000Z</time>
      </trkpt>
      <trkpt lat="44.45086" lon="2.49931">
        <ele>501</ele>
        <time>2015-09-06T07:42:59.000Z</time>
      </trkpt>
      <trkpt lat="44.45086" lon="2.49949">
        <ele>503</ele>
        <time>2015-09-06T07:43:03.000Z</time>
      </trkpt>
      <trkpt lat="44.45081" lon="2.49968">
        <ele>481</ele>
        <time>2015-09-06T07:43:05.990Z</time>
      </trkpt>
      <trkpt lat="44.45076" lon="2.49982">
        <ele>483</ele>
        <time>2015-09-06T07:43:08.990Z</time>
      </trkpt>
      <trkpt lat="44.45075" lon="2.5">
        <ele>488</ele>
        <time>2015-09-06T07:43:11.990Z</time>
      </trkpt>
      <trkpt lat="44.45076" lon="2.50018">
        <ele>482</ele>
        <time>2015-09-06T07:43:15.990Z</time>
      </trkpt>
      <trkpt lat="44.45077" lon="2.50035">
        <ele>479</ele>
        <time>2015-09-06T07:43:20.000Z</time>
      </trkpt>
      <trkpt lat="44.45078" lon="2.5005">
        <ele>478</ele>
        <time>2015-09-06T07:43:23.990Z</time>
      </trkpt>
      <trkpt lat="44.45081" lon="2.50071">
        <ele>482</ele>
        <time>2015-09-06T07:43:29.000Z</time>
      </trkpt>
      <trkpt lat="44.45073" lon="2.50081">
        <ele>482</ele>
        <time>2015-09-06T07:43:33.990Z</time>
      </trkpt>
      <trkpt lat="44.45072" lon="2.50099">
        <ele>479</ele>
        <time>2015-09-06T07:44:02.000Z</time>
      </trkpt>
      <trkpt lat="44.45078" lon="2.50111">
        <ele>478</ele>
        <time>2015-09-06T07:44:06.010Z</time>
      </trkpt>
      <trkpt lat="44.45085" lon="2.50123">
        <ele>498</ele>
        <time>2015-09-06T07:44:11.000Z</time>
      </trkpt>
      <trkpt lat="44.45094" lon="2.50133">
        <ele>499</ele>
        <time>2015-09-06T07:44:15.000Z</time>
      </trkpt>
      <trkpt lat="44.45101" lon="2.50144">
        <ele>499</ele>
        <time>2015-09-06T07:44:20.000Z</time>
      </trkpt>
      <trkpt lat="44.45105" lon="2.50163">
        <ele>498</ele>
        <time>2015-09-06T07:44:26.000Z</time>
      </trkpt>
      <trkpt lat="44.45101" lon="2.50179">
        <ele>502</ele>
        <time>2015-09-06T07:44:33.000Z</time>
      </trkpt>
      <trkpt lat="44.45102" lon="2.50193">
        <ele>505</ele>
        <time>2015-09-06T07:44:39.000Z</time>
      </trkpt>
      <trkpt lat="44.451" lon="2.50208">
        <ele>507</ele>
        <time>2015-09-06T07:44:45.000Z</time>
      </trkpt>
      <trkpt lat="44.45091" lon="2.50217">
        <ele>506</ele>
        <time>2015-09-06T07:44:48.990Z</time>
      </trkpt>
      <trkpt lat="44.45084" lon="2.50229">
        <ele>505</ele>
        <time>2015-09-06T07:44:54.000Z</time>
      </trkpt>
      <trkpt lat="44.45076" lon="2.5024">
        <ele>491</ele>
        <time>2015-09-06T07:44:58.990Z</time>
      </trkpt>
      <trkpt lat="44.45076" lon="2.50255">
        <ele>496</ele>
        <time>2015-09-06T07:45:07.000Z</time>
      </trkpt>
      <trkpt lat="44.45073" lon="2.5027">
        <ele>493</ele>
        <time>2015-09-06T07:45:13.000Z</time>
      </trkpt>
      <trkpt lat="44.45068" lon="2.50282">
        <ele>492</ele>
        <time>2015-09-06T07:45:15.990Z</time>
      </trkpt>
      <trkpt lat="44.45066" lon="2.50296">
        <ele>493</ele>
        <time>2015-09-06T07:45:20.000Z</time>
      </trkpt>
      <trkpt lat="44.45068" lon="2.5031">
        <ele>495</ele>
        <time>2015-09-06T07:45:25.990Z</time>
      </trkpt>
      <trkpt lat="44.45075" lon="2.50321">
        <ele>500</ele>
        <time>2015-09-06T07:45:32.000Z</time>
      </trkpt>
      <trkpt lat="44.45079" lon="2.50335">
        <ele>508</ele>
        <time>2015-09-06T07:45:37.990Z</time>
      </trkpt>
      <trkpt lat="44.45084" lon="2.50349">
        <ele>518</ele>
        <time>2015-09-06T07:45:44.990Z</time>
      </trkpt>
      <trkpt lat="44.45089" lon="2.50362">
        <ele>522</ele>
        <time>2015-09-06T07:45:52.000Z</time>
      </trkpt>
      <trkpt lat="44.45091" lon="2.50377">
        <ele>524</ele>
        <time>2015-09-06T07:46:00.000Z</time>
      </trkpt>
      <trkpt lat="44.45096" lon="2.50389">
        <ele>525</ele>
        <time>2015-09-06T07:46:04.990Z</time>
      </trkpt>
      <trkpt lat="44.45099" lon="2.50405">
        <ele>525</ele>
        <time>2015-09-06T07:46:11.990Z</time>
      </trkpt>
      <trkpt lat="44.45104" lon="2.50419">
        <ele>531</ele>
        <time>2015-09-06T07:46:18.990Z</time>
      </trkpt>
      <trkpt lat="44.45114" lon="2.50418">
        <ele>534</ele>
        <time>2015-09-06T07:46:25.000Z</time>
      </trkpt>
      <trkpt lat="44.45118" lon="2.50431">
        <ele>536</ele>
        <time>2015-09-06T07:46:39.990Z</time>
      </trkpt>
      <trkpt lat="44.45118" lon="2.50445">
        <ele>537</ele>
        <time>2015-09-06T07:46:48.000Z</time>
      </trkpt>
      <trkpt lat="44.45118" lon="2.50463">
        <ele>539</ele>
        <time>2015-09-06T07:46:56.000Z</time>
      </trkpt>
      <trkpt lat="44.4512" lon="2.50478">
        <ele>540</ele>
        <time>2015-09-06T07:47:04.000Z</time>
      </trkpt>
      <trkpt lat="44.45117" lon="2.50493">
        <ele>541</ele>
        <time>2015-09-06T07:47:11.000Z</time>
      </trkpt>
      <trkpt lat="44.45115" lon="2.50507">
        <ele>548</ele>
        <time>2015-09-06T07:47:17.000Z</time>
      </trkpt>
      <trkpt lat="44.45112" lon="2.50521">
        <ele>549</ele>
        <time>2015-09-06T07:47:26.000Z</time>
      </trkpt>
      <trkpt lat="44.45103" lon="2.50533">
        <ele>550</ele>
        <time>2015-09-06T07:47:34.000Z</time>
      </trkpt>
      <trkpt lat="44.45094" lon="2.50543">
        <ele>550</ele>
        <time>2015-09-06T07:47:39.000Z</time>
      </trkpt>
      <trkpt lat="44.45085" lon="2.50551">
        <ele>551</ele>
        <time>2015-09-06T07:47:46.000Z</time>
      </trkpt>
      <trkpt lat="44.45075" lon="2.50555">
        <ele>550</ele>
        <time>2015-09-06T07:47:51.990Z</time>
      </trkpt>
      <trkpt lat="44.45061" lon="2.50556">
        <ele>550</ele>
        <time>2015-09-06T07:47:57.990Z</time>
      </trkpt>
      <trkpt lat="44.45051" lon="2.50558">
        <ele>550</ele>
        <time>2015-09-06T07:48:02.990Z</time>
      </trkpt>
      <trkpt lat="44.4504" lon="2.50562">
        <ele>551</ele>
        <time>2015-09-06T07:48:07.990Z</time>
      </trkpt>
      <trkpt lat="44.45029" lon="2.50564">
        <ele>552</ele>
        <time>2015-09-06T07:48:11.990Z</time>
      </trkpt>
      <trkpt lat="44.4502" lon="2.50572">
        <ele>553</ele>
        <time>2015-09-06T07:48:18.010Z</time>
      </trkpt>
      <trkpt lat="44.45008" lon="2.50571">
        <ele>555</ele>
        <time>2015-09-06T07:48:23.990Z</time>
      </trkpt>
      <trkpt lat="44.44998" lon="2.50571">
        <ele>557</ele>
        <time>2015-09-06T07:48:28.010Z</time>
      </trkpt>
      <trkpt lat="44.44986" lon="2.50572">
        <ele>556</ele>
        <time>2015-09-06T07:48:31.990Z</time>
      </trkpt>
      <trkpt lat="44.44975" lon="2.5057">
        <ele>555</ele>
        <time>2015-09-06T07:48:49.990Z</time>
      </trkpt>
      <trkpt lat="44.44965" lon="2.50568">
        <ele>555</ele>
        <time>2015-09-06T07:49:00.990Z</time>
      </trkpt>
      <trkpt lat="44.44955" lon="2.50566">
        <ele>555</ele>
        <time>2015-09-06T07:49:10.990Z</time>
      </trkpt>
      <trkpt lat="44.44942" lon="2.50561">
        <ele>555</ele>
        <time>2015-09-06T07:49:16.990Z</time>
      </trkpt>
      <trkpt lat="44.44931" lon="2.50555">
        <ele>555</ele>
        <time>2015-09-06T07:49:21.990Z</time>
      </trkpt>
      <trkpt lat="44.44922" lon="2.5055">
        <ele>554</ele>
        <time>2015-09-06T07:49:25.990Z</time>
      </trkpt>
      <trkpt lat="44.4491" lon="2.50544">
        <ele>555</ele>
        <time>2015-09-06T07:49:30.000Z</time>
      </trkpt>
      <trkpt lat="44.44898" lon="2.50539">
        <ele>555</ele>
        <time>2015-09-06T07:49:33.990Z</time>
      </trkpt>
      <trkpt lat="44.44889" lon="2.50534">
        <ele>554</ele>
        <time>2015-09-06T07:49:36.990Z</time>
      </trkpt>
      <trkpt lat="44.4488" lon="2.50524">
        <ele>554</ele>
        <time>2015-09-06T07:49:40.990Z</time>
      </trkpt>
      <trkpt lat="44.44868" lon="2.50517">
        <ele>554</ele>
        <time>2015-09-06T07:49:44.990Z</time>
      </trkpt>
      <trkpt lat="44.44858" lon="2.50513">
        <ele>554</ele>
        <time>2015-09-06T07:49:48.990Z</time>
      </trkpt>
      <trkpt lat="44.44849" lon="2.50506">
        <ele>554</ele>
        <time>2015-09-06T07:49:53.000Z</time>
      </trkpt>
      <trkpt lat="44.44841" lon="2.50498">
        <ele>550</ele>
        <time>2015-09-06T07:49:56.990Z</time>
      </trkpt>
      <trkpt lat="44.44832" lon="2.5049">
        <ele>551</ele>
        <time>2015-09-06T07:50:00.990Z</time>
      </trkpt>
      <trkpt lat="44.44823" lon="2.50487">
        <ele>550</ele>
        <time>2015-09-06T07:50:04.990Z</time>
      </trkpt>
      <trkpt lat="44.44814" lon="2.50492">
        <ele>549</ele>
        <time>2015-09-06T07:50:09.990Z</time>
      </trkpt>
      <trkpt lat="44.44806" lon="2.50492">
        <ele>548</ele>
        <time>2015-09-06T07:50:35.990Z</time>
      </trkpt>
      <trkpt lat="44.44798" lon="2.50486">
        <ele>548</ele>
        <time>2015-09-06T07:50:41.000Z</time>
      </trkpt>
      <trkpt lat="44.44788" lon="2.50479">
        <ele>547</ele>
        <time>2015-09-06T07:50:45.000Z</time>
      </trkpt>
      <trkpt lat="44.4478" lon="2.50474">
        <ele>547</ele>
        <time>2015-09-06T07:50:48.000Z</time>
      </trkpt>
      <trkpt lat="44.44771" lon="2.50469">
        <ele>547</ele>
        <time>2015-09-06T07:50:51.000Z</time>
      </trkpt>
      <trkpt lat="44.44762" lon="2.50462">
        <ele>546</ele>
        <time>2015-09-06T07:50:54.000Z</time>
      </trkpt>
      <trkpt lat="44.44754" lon="2.50453">
        <ele>546</ele>
        <time>2015-09-06T07:50:56.990Z</time>
      </trkpt>
      <trkpt lat="44.44746" lon="2.50445">
        <ele>545</ele>
        <time>2015-09-06T07:50:59.990Z</time>
      </trkpt>
      <trkpt lat="44.44738" lon="2.50435">
        <ele>545</ele>
        <time>2015-09-06T07:51:03.000Z</time>
      </trkpt>
      <trkpt lat="44.4473" lon="2.50425">
        <ele>545</ele>
        <time>2015-09-06T07:51:05.990Z</time>
      </trkpt>
      <trkpt lat="44.44724" lon="2.50414">
        <ele>539</ele>
        <time>2015-09-06T07:51:09.000Z</time>
      </trkpt>
      <trkpt lat="44.44717" lon="2.50403">
        <ele>538</ele>
        <time>2015-09-06T07:51:12.000Z</time>
      </trkpt>
      <trkpt lat="44.44708" lon="2.50395">
        <ele>538</ele>
        <time>2015-09-06T07:51:15.990Z</time>
      </trkpt>
      <trkpt lat="44.44699" lon="2.50397">
        <ele>538</ele>
        <time>2015-09-06T07:51:19.000Z</time>
      </trkpt>
      <trkpt lat="44.4469" lon="2.50402">
        <ele>539</ele>
        <time>2015-09-06T07:51:22.000Z</time>
      </trkpt>
      <trkpt lat="44.44681" lon="2.50405">
        <ele>539</ele>
        <time>2015-09-06T07:51:25.000Z</time>
      </trkpt>
      <trkpt lat="44.44671" lon="2.50412">
        <ele>541</ele>
        <time>2015-09-06T07:51:29.000Z</time>
      </trkpt>
      <trkpt lat="44.44663" lon="2.5042">
        <ele>540</ele>
        <time>2015-09-06T07:51:31.990Z</time>
      </trkpt>
      <trkpt lat="44.44655" lon="2.50428">
        <ele>537</ele>
        <time>2015-09-06T07:51:35.000Z</time>
      </trkpt>
      <trkpt lat="44.44647" lon="2.50434">
        <ele>535</ele>
        <time>2015-09-06T07:51:38.000Z</time>
      </trkpt>
      <trkpt lat="44.44639" lon="2.50441">
        <ele>534</ele>
        <time>2015-09-06T07:51:40.990Z</time>
      </trkpt>
      <trkpt lat="44.4463" lon="2.50451">
        <ele>533</ele>
        <time>2015-09-06T07:51:44.990Z</time>
      </trkpt>
      <trkpt lat="44.44626" lon="2.50465">
        <ele>532</ele>
        <time>2015-09-06T07:51:48.990Z</time>
      </trkpt>
      <trkpt lat="44.44617" lon="2.50477">
        <ele>530</ele>
        <time>2015-09-06T07:51:55.000Z</time>
      </trkpt>
      <trkpt lat="44.44608" lon="2.50469">
        <ele>529</ele>
        <time>2015-09-06T07:51:59.000Z</time>
      </trkpt>
      <trkpt lat="44.44599" lon="2.50458">
        <ele>529</ele>
        <time>2015-09-06T07:52:03.010Z</time>
      </trkpt>
      <trkpt lat="44.44592" lon="2.50442">
        <ele>528</ele>
        <time>2015-09-06T07:52:06.990Z</time>
      </trkpt>
      <trkpt lat="44.44584" lon="2.5043">
        <ele>527</ele>
        <time>2015-09-06T07:52:10.990Z</time>
      </trkpt>
      <trkpt lat="44.44579" lon="2.50418">
        <ele>521</ele>
        <time>2015-09-06T07:52:13.990Z</time>
      </trkpt>
      <trkpt lat="44.44576" lon="2.50406">
        <ele>518</ele>
        <time>2015-09-06T07:52:16.990Z</time>
      </trkpt>
      <trkpt lat="44.44571" lon="2.50393">
        <ele>515</ele>
        <time>2015-09-06T07:52:20.990Z</time>
      </trkpt>
      <trkpt lat="44.44565" lon="2.50381">
        <ele>514</ele>
        <time>2015-09-06T07:52:24.000Z</time>
      </trkpt>
      <trkpt lat="44.4456" lon="2.50369">
        <ele>513</ele>
        <time>2015-09-06T07:52:27.000Z</time>
      </trkpt>
      <trkpt lat="44.44556" lon="2.50356">
        <ele>514</ele>
        <time>2015-09-06T07:52:29.990Z</time>
      </trkpt>
      <trkpt lat="44.44555" lon="2.50342">
        <ele>514</ele>
        <time>2015-09-06T07:52:33.990Z</time>
      </trkpt>
      <trkpt lat="44.44552" lon="2.50329">
        <ele>515</ele>
        <time>2015-09-06T07:52:36.990Z</time>
      </trkpt>
      <trkpt lat="44.44546" lon="2.50316">
        <ele>512</ele>
        <time>2015-09-06T07:52:39.990Z</time>
      </trkpt>
      <trkpt lat="44.4454" lon="2.50305">
        <ele>511</ele>
        <time>2015-09-06T07:52:43.010Z</time>
      </trkpt>
      <trkpt lat="44.44535" lon="2.5029">
        <ele>510</ele>
        <time>2015-09-06T07:52:46.990Z</time>
      </trkpt>
      <trkpt lat="44.44536" lon="2.50273">
        <ele>509</ele>
        <time>2015-09-06T07:52:49.990Z</time>
      </trkpt>
      <trkpt lat="44.44535" lon="2.50259">
        <ele>508</ele>
        <time>2015-09-06T07:52:53.010Z</time>
      </trkpt>
      <trkpt lat="44.44536" lon="2.50243">
        <ele>502</ele>
        <time>2015-09-06T07:52:55.990Z</time>
      </trkpt>
      <trkpt lat="44.44538" lon="2.50229">
        <ele>502</ele>
        <time>2015-09-06T07:52:58.990Z</time>
      </trkpt>
      <trkpt lat="44.44542" lon="2.50215">
        <ele>502</ele>
        <time>2015-09-06T07:53:03.010Z</time>
      </trkpt>
      <trkpt lat="44.44539" lon="2.502">
        <ele>500</ele>
        <time>2015-09-06T07:53:05.990Z</time>
      </trkpt>
      <trkpt lat="44.44536" lon="2.50189">
        <ele>498</ele>
        <time>2015-09-06T07:53:08.990Z</time>
      </trkpt>
      <trkpt lat="44.44536" lon="2.50175">
        <ele>497</ele>
        <time>2015-09-06T07:53:11.990Z</time>
      </trkpt>
      <trkpt lat="44.44536" lon="2.50163">
        <ele>485</ele>
        <time>2015-09-06T07:53:14.990Z</time>
      </trkpt>
      <trkpt lat="44.4454" lon="2.50149">
        <ele>484</ele>
        <time>2015-09-06T07:53:18.010Z</time>
      </trkpt>
      <trkpt lat="44.44542" lon="2.50135">
        <ele>483</ele>
        <time>2015-09-06T07:53:20.990Z</time>
      </trkpt>
      <trkpt lat="44.44547" lon="2.50118">
        <ele>481</ele>
        <time>2015-09-06T07:53:24.990Z</time>
      </trkpt>
      <trkpt lat="44.44553" lon="2.50101">
        <ele>480</ele>
        <time>2015-09-06T07:53:28.010Z</time>
      </trkpt>
      <trkpt lat="44.4456" lon="2.50087">
        <ele>479</ele>
        <time>2015-09-06T07:53:30.990Z</time>
      </trkpt>
      <trkpt lat="44.44567" lon="2.50075">
        <ele>468</ele>
        <time>2015-09-06T07:53:33.010Z</time>
      </trkpt>
      <trkpt lat="44.44579" lon="2.50056">
        <ele>465</ele>
        <time>2015-09-06T07:53:37.000Z</time>
      </trkpt>
      <trkpt lat="44.44581" lon="2.50041">
        <ele>462</ele>
        <time>2015-09-06T07:53:41.010Z</time>
      </trkpt>
      <trkpt lat="44.4458" lon="2.50027">
        <ele>459</ele>
        <time>2015-09-06T07:53:42.990Z</time>
      </trkpt>
      <trkpt lat="44.44577" lon="2.50009">
        <ele>456</ele>
        <time>2015-09-06T07:53:46.010Z</time>
      </trkpt>
      <trkpt lat="44.44574" lon="2.49994">
        <ele>449</ele>
        <time>2015-09-06T07:53:48.990Z</time>
      </trkpt>
      <trkpt lat="44.44574" lon="2.49977">
        <ele>445</ele>
        <time>2015-09-06T07:53:51.990Z</time>
      </trkpt>
      <trkpt lat="44.44579" lon="2.49958">
        <ele>442</ele>
        <time>2015-09-06T07:53:57.000Z</time>
      </trkpt>
      <trkpt lat="44.44586" lon="2.4997">
        <ele>443</ele>
        <time>2015-09-06T07:54:00.000Z</time>
      </trkpt>
      <trkpt lat="44.44574" lon="2.49965">
        <ele>443</ele>
        <time>2015-09-06T07:54:52.000Z</time>
      </trkpt>
      <trkpt lat="44.44564" lon="2.49969">
        <ele>443</ele>
        <time>2015-09-06T07:54:56.990Z</time>
      </trkpt>
      <trkpt lat="44.44555" lon="2.49977">
        <ele>443</ele>
        <time>2015-09-06T07:55:00.990Z</time>
      </trkpt>
      <trkpt lat="44.44545" lon="2.49986">
        <ele>443</ele>
        <time>2015-09-06T07:55:06.100Z</time>
      </trkpt>
      <trkpt lat="44.44534" lon="2.49996">
        <ele>443</ele>
        <time>2015-09-06T07:55:10.000Z</time>
      </trkpt>
      <trkpt lat="44.44524" lon="2.50004">
        <ele>453</ele>
        <time>2015-09-06T07:55:14.000Z</time>
      </trkpt>
      <trkpt lat="44.44514" lon="2.5001">
        <ele>451</ele>
        <time>2015-09-06T07:55:18.990Z</time>
      </trkpt>
      <trkpt lat="44.44505" lon="2.50012">
        <ele>450</ele>
        <time>2015-09-06T07:55:23.990Z</time>
      </trkpt>
      <trkpt lat="44.44493" lon="2.5002">
        <ele>442</ele>
        <time>2015-09-06T07:55:28.010Z</time>
      </trkpt>
      <trkpt lat="44.44481" lon="2.50027">
        <ele>441</ele>
        <time>2015-09-06T07:55:31.990Z</time>
      </trkpt>
      <trkpt lat="44.44472" lon="2.50036">
        <ele>441</ele>
        <time>2015-09-06T07:55:35.990Z</time>
      </trkpt>
      <trkpt lat="44.44463" lon="2.50045">
        <ele>440</ele>
        <time>2015-09-06T07:55:38.990Z</time>
      </trkpt>
      <trkpt lat="44.44454" lon="2.50056">
        <ele>440</ele>
        <time>2015-09-06T07:55:41.990Z</time>
      </trkpt>
      <trkpt lat="44.44445" lon="2.50065">
        <ele>440</ele>
        <time>2015-09-06T07:55:45.000Z</time>
      </trkpt>
      <trkpt lat="44.44435" lon="2.50073">
        <ele>439</ele>
        <time>2015-09-06T07:55:48.990Z</time>
      </trkpt>
      <trkpt lat="44.44428" lon="2.50082">
        <ele>438</ele>
        <time>2015-09-06T07:55:51.990Z</time>
      </trkpt>
      <trkpt lat="44.44422" lon="2.50093">
        <ele>444</ele>
        <time>2015-09-06T07:55:54.990Z</time>
      </trkpt>
      <trkpt lat="44.44416" lon="2.5011">
        <ele>433</ele>
        <time>2015-09-06T07:55:58.990Z</time>
      </trkpt>
      <trkpt lat="44.44413" lon="2.50125">
        <ele>433</ele>
        <time>2015-09-06T07:56:01.990Z</time>
      </trkpt>
      <trkpt lat="44.4441" lon="2.5014">
        <ele>435</ele>
        <time>2015-09-06T07:56:04.990Z</time>
      </trkpt>
      <trkpt lat="44.44407" lon="2.50156">
        <ele>440</ele>
        <time>2015-09-06T07:56:08.010Z</time>
      </trkpt>
      <trkpt lat="44.44402" lon="2.50169">
        <ele>443</ele>
        <time>2015-09-06T07:56:10.990Z</time>
      </trkpt>
      <trkpt lat="44.444" lon="2.50186">
        <ele>440</ele>
        <time>2015-09-06T07:56:14.990Z</time>
      </trkpt>
      <trkpt lat="44.44405" lon="2.502">
        <ele>440</ele>
        <time>2015-09-06T07:56:18.990Z</time>
      </trkpt>
      <trkpt lat="44.44413" lon="2.50212">
        <ele>441</ele>
        <time>2015-09-06T07:56:23.010Z</time>
      </trkpt>
      <trkpt lat="44.44421" lon="2.50226">
        <ele>461</ele>
        <time>2015-09-06T07:56:28.000Z</time>
      </trkpt>
      <trkpt lat="44.44424" lon="2.5024">
        <ele>459</ele>
        <time>2015-09-06T07:56:33.000Z</time>
      </trkpt>
      <trkpt lat="44.44428" lon="2.50255">
        <ele>461</ele>
        <time>2015-09-06T07:56:38.010Z</time>
      </trkpt>
      <trkpt lat="44.4443" lon="2.50269">
        <ele>465</ele>
        <time>2015-09-06T07:56:41.990Z</time>
      </trkpt>
      <trkpt lat="44.44433" lon="2.50283">
        <ele>467</ele>
        <time>2015-09-06T07:56:45.990Z</time>
      </trkpt>
      <trkpt lat="44.44435" lon="2.50297">
        <ele>468</ele>
        <time>2015-09-06T07:56:49.990Z</time>
      </trkpt>
      <trkpt lat="44.44438" lon="2.50313">
        <ele>467</ele>
        <time>2015-09-06T07:56:54.990Z</time>
      </trkpt>
      <trkpt lat="44.4444" lon="2.50327">
        <ele>466</ele>
        <time>2015-09-06T07:57:00.990Z</time>
      </trkpt>
      <trkpt lat="44.44445" lon="2.50343">
        <ele>466</ele>
        <time>2015-09-06T07:57:06.990Z</time>
      </trkpt>
      <trkpt lat="44.44448" lon="2.50357">
        <ele>468</ele>
        <time>2015-09-06T07:57:11.990Z</time>
      </trkpt>
      <trkpt lat="44.4445" lon="2.50372">
        <ele>469</ele>
        <time>2015-09-06T07:57:16.990Z</time>
      </trkpt>
      <trkpt lat="44.44455" lon="2.50386">
        <ele>469</ele>
        <time>2015-09-06T07:57:23.000Z</time>
      </trkpt>
      <trkpt lat="44.44462" lon="2.50397">
        <ele>471</ele>
        <time>2015-09-06T07:57:26.990Z</time>
      </trkpt>
      <trkpt lat="44.44469" lon="2.50407">
        <ele>473</ele>
        <time>2015-09-06T07:57:30.990Z</time>
      </trkpt>
      <trkpt lat="44.44473" lon="2.50421">
        <ele>470</ele>
        <time>2015-09-06T07:57:35.990Z</time>
      </trkpt>
      <trkpt lat="44.44476" lon="2.50438">
        <ele>469</ele>
        <time>2015-09-06T07:57:40.990Z</time>
      </trkpt>
      <trkpt lat="44.44479" lon="2.50452">
        <ele>469</ele>
        <time>2015-09-06T07:57:44.990Z</time>
      </trkpt>
      <trkpt lat="44.44487" lon="2.50465">
        <ele>469</ele>
        <time>2015-09-06T07:57:48.990Z</time>
      </trkpt>
      <trkpt lat="44.44492" lon="2.50479">
        <ele>470</ele>
        <time>2015-09-06T07:57:53.010Z</time>
      </trkpt>
      <trkpt lat="44.44498" lon="2.5049">
        <ele>472</ele>
        <time>2015-09-06T07:57:56.000Z</time>
      </trkpt>
      <trkpt lat="44.44506" lon="2.50504">
        <ele>480</ele>
        <time>2015-09-06T07:57:59.000Z</time>
      </trkpt>
      <trkpt lat="44.44513" lon="2.50514">
        <ele>485</ele>
        <time>2015-09-06T07:58:03.000Z</time>
      </trkpt>
      <trkpt lat="44.44522" lon="2.50524">
        <ele>488</ele>
        <time>2015-09-06T07:58:06.010Z</time>
      </trkpt>
      <trkpt lat="44.44527" lon="2.50537">
        <ele>489</ele>
        <time>2015-09-06T07:58:11.010Z</time>
      </trkpt>
      <trkpt lat="44.44529" lon="2.50552">
        <ele>489</ele>
        <time>2015-09-06T07:58:17.990Z</time>
      </trkpt>
      <trkpt lat="44.44535" lon="2.50565">
        <ele>489</ele>
        <time>2015-09-06T07:58:23.990Z</time>
      </trkpt>
      <trkpt lat="44.44538" lon="2.50578">
        <ele>489</ele>
        <time>2015-09-06T07:58:29.000Z</time>
      </trkpt>
      <trkpt lat="44.44542" lon="2.50591">
        <ele>486</ele>
        <time>2015-09-06T07:58:32.990Z</time>
      </trkpt>
      <trkpt lat="44.44544" lon="2.50606">
        <ele>486</ele>
        <time>2015-09-06T07:58:37.990Z</time>
      </trkpt>
      <trkpt lat="44.44547" lon="2.5062">
        <ele>485</ele>
        <time>2015-09-06T07:58:41.990Z</time>
      </trkpt>
      <trkpt lat="44.44553" lon="2.50632">
        <ele>486</ele>
        <time>2015-09-06T07:58:46.010Z</time>
      </trkpt>
      <trkpt lat="44.44556" lon="2.50648">
        <ele>487</ele>
        <time>2015-09-06T07:58:51.000Z</time>
      </trkpt>
      <trkpt lat="44.44558" lon="2.50665">
        <ele>488</ele>
        <time>2015-09-06T07:58:54.990Z</time>
      </trkpt>
      <trkpt lat="44.4456" lon="2.5068">
        <ele>484</ele>
        <time>2015-09-06T07:58:57.990Z</time>
      </trkpt>
      <trkpt lat="44.4456" lon="2.50695">
        <ele>482</ele>
        <time>2015-09-06T07:59:01.010Z</time>
      </trkpt>
      <trkpt lat="44.44562" lon="2.5071">
        <ele>481</ele>
        <time>2015-09-06T07:59:04.990Z</time>
      </trkpt>
      <trkpt lat="44.44565" lon="2.50724">
        <ele>482</ele>
        <time>2015-09-06T07:59:07.990Z</time>
      </trkpt>
      <trkpt lat="44.44571" lon="2.50735">
        <ele>484</ele>
        <time>2015-09-06T07:59:12.990Z</time>
      </trkpt>
      <trkpt lat="44.44578" lon="2.50745">
        <ele>487</ele>
        <time>2015-09-06T07:59:17.990Z</time>
      </trkpt>
      <trkpt lat="44.44584" lon="2.50759">
        <ele>496</ele>
        <time>2015-09-06T07:59:24.000Z</time>
      </trkpt>
      <trkpt lat="44.44588" lon="2.50773">
        <ele>502</ele>
        <time>2015-09-06T07:59:27.990Z</time>
      </trkpt>
      <trkpt lat="44.4459" lon="2.50788">
        <ele>504</ele>
        <time>2015-09-06T07:59:33.990Z</time>
      </trkpt>
      <trkpt lat="44.44592" lon="2.50805">
        <ele>503</ele>
        <time>2015-09-06T07:59:40.010Z</time>
      </trkpt>
      <trkpt lat="44.44592" lon="2.50822">
        <ele>499</ele>
        <time>2015-09-06T07:59:45.010Z</time>
      </trkpt>
      <trkpt lat="44.44593" lon="2.50837">
        <ele>498</ele>
        <time>2015-09-06T07:59:50.990Z</time>
      </trkpt>
      <trkpt lat="44.44598" lon="2.50851">
        <ele>504</ele>
        <time>2015-09-06T07:59:57.000Z</time>
      </trkpt>
      <trkpt lat="44.446" lon="2.50865">
        <ele>507</ele>
        <time>2015-09-06T08:00:01.990Z</time>
      </trkpt>
      <trkpt lat="44.44598" lon="2.50879">
        <ele>508</ele>
        <time>2015-09-06T08:00:06.990Z</time>
      </trkpt>
      <trkpt lat="44.44603" lon="2.50893">
        <ele>509</ele>
        <time>2015-09-06T08:00:12.990Z</time>
      </trkpt>
      <trkpt lat="44.44608" lon="2.50908">
        <ele>509</ele>
        <time>2015-09-06T08:00:17.990Z</time>
      </trkpt>
      <trkpt lat="44.44608" lon="2.50923">
        <ele>514</ele>
        <time>2015-09-06T08:00:25.000Z</time>
      </trkpt>
      <trkpt lat="44.44603" lon="2.50938">
        <ele>515</ele>
        <time>2015-09-06T08:00:30.000Z</time>
      </trkpt>
      <trkpt lat="44.44603" lon="2.50952">
        <ele>518</ele>
        <time>2015-09-06T08:00:35.000Z</time>
      </trkpt>
      <trkpt lat="44.44602" lon="2.50969">
        <ele>520</ele>
        <time>2015-09-06T08:00:40.990Z</time>
      </trkpt>
      <trkpt lat="44.44601" lon="2.50984">
        <ele>520</ele>
        <time>2015-09-06T08:00:46.000Z</time>
      </trkpt>
      <trkpt lat="44.44595" lon="2.50998">
        <ele>519</ele>
        <time>2015-09-06T08:00:50.000Z</time>
      </trkpt>
      <trkpt lat="44.44591" lon="2.5101">
        <ele>525</ele>
        <time>2015-09-06T08:00:54.000Z</time>
      </trkpt>
      <trkpt lat="44.44586" lon="2.51023">
        <ele>529</ele>
        <time>2015-09-06T08:01:00.000Z</time>
      </trkpt>
      <trkpt lat="44.44575" lon="2.51031">
        <ele>524</ele>
        <time>2015-09-06T08:01:06.000Z</time>
      </trkpt>
      <trkpt lat="44.44564" lon="2.51036">
        <ele>525</ele>
        <time>2015-09-06T08:01:11.000Z</time>
      </trkpt>
      <trkpt lat="44.44554" lon="2.51034">
        <ele>525</ele>
        <time>2015-09-06T08:01:31.000Z</time>
      </trkpt>
      <trkpt lat="44.44541" lon="2.51029">
        <ele>524</ele>
        <time>2015-09-06T08:01:36.000Z</time>
      </trkpt>
      <trkpt lat="44.44531" lon="2.51024">
        <ele>523</ele>
        <time>2015-09-06T08:01:39.000Z</time>
      </trkpt>
      <trkpt lat="44.44521" lon="2.51022">
        <ele>522</ele>
        <time>2015-09-06T08:01:43.000Z</time>
      </trkpt>
      <trkpt lat="44.44511" lon="2.51017">
        <ele>520</ele>
        <time>2015-09-06T08:01:47.000Z</time>
      </trkpt>
      <trkpt lat="44.44498" lon="2.51016">
        <ele>520</ele>
        <time>2015-09-06T08:01:51.000Z</time>
      </trkpt>
      <trkpt lat="44.44486" lon="2.51013">
        <ele>521</ele>
        <time>2015-09-06T08:01:56.000Z</time>
      </trkpt>
      <trkpt lat="44.44475" lon="2.51011">
        <ele>524</ele>
        <time>2015-09-06T08:01:59.000Z</time>
      </trkpt>
      <trkpt lat="44.44465" lon="2.51006">
        <ele>525</ele>
        <time>2015-09-06T08:02:02.000Z</time>
      </trkpt>
      <trkpt lat="44.44456" lon="2.51">
        <ele>526</ele>
        <time>2015-09-06T08:02:06.000Z</time>
      </trkpt>
      <trkpt lat="44.44447" lon="2.50993">
        <ele>514</ele>
        <time>2015-09-06T08:02:09.000Z</time>
      </trkpt>
      <trkpt lat="44.44436" lon="2.50985">
        <ele>515</ele>
        <time>2015-09-06T08:02:13.000Z</time>
      </trkpt>
      <trkpt lat="44.44424" lon="2.50976">
        <ele>515</ele>
        <time>2015-09-06T08:02:17.000Z</time>
      </trkpt>
      <trkpt lat="44.44414" lon="2.5096">
        <ele>522</ele>
        <time>2015-09-06T08:02:22.000Z</time>
      </trkpt>
      <trkpt lat="44.44404" lon="2.50951">
        <ele>520</ele>
        <time>2015-09-06T08:02:25.000Z</time>
      </trkpt>
      <trkpt lat="44.44397" lon="2.5094">
        <ele>519</ele>
        <time>2015-09-06T08:02:28.000Z</time>
      </trkpt>
      <trkpt lat="44.44392" lon="2.50925">
        <ele>517</ele>
        <time>2015-09-06T08:02:31.000Z</time>
      </trkpt>
      <trkpt lat="44.44387" lon="2.50912">
        <ele>503</ele>
        <time>2015-09-06T08:02:34.000Z</time>
      </trkpt>
      <trkpt lat="44.4438" lon="2.509">
        <ele>503</ele>
        <time>2015-09-06T08:02:37.000Z</time>
      </trkpt>
      <trkpt lat="44.44374" lon="2.5089">
        <ele>503</ele>
        <time>2015-09-06T08:02:39.990Z</time>
      </trkpt>
      <trkpt lat="44.44367" lon="2.50877">
        <ele>502</ele>
        <time>2015-09-06T08:02:43.000Z</time>
      </trkpt>
      <trkpt lat="44.4436" lon="2.50865">
        <ele>501</ele>
        <time>2015-09-06T08:02:46.000Z</time>
      </trkpt>
      <trkpt lat="44.44347" lon="2.5085">
        <ele>501</ele>
        <time>2015-09-06T08:02:51.000Z</time>
      </trkpt>
      <trkpt lat="44.44337" lon="2.50841">
        <ele>500</ele>
        <time>2015-09-06T08:02:54.000Z</time>
      </trkpt>
      <trkpt lat="44.44331" lon="2.50827">
        <ele>500</ele>
        <time>2015-09-06T08:02:57.990Z</time>
      </trkpt>
      <trkpt lat="44.44323" lon="2.50813">
        <ele>500</ele>
        <time>2015-09-06T08:03:02.000Z</time>
      </trkpt>
      <trkpt lat="44.44314" lon="2.50804">
        <ele>500</ele>
        <time>2015-09-06T08:03:04.000Z</time>
      </trkpt>
      <trkpt lat="44.44305" lon="2.50799">
        <ele>500</ele>
        <time>2015-09-06T08:03:06.000Z</time>
      </trkpt>
      <trkpt lat="44.44296" lon="2.50778">
        <ele>498</ele>
        <time>2015-09-06T08:03:10.000Z</time>
      </trkpt>
      <trkpt lat="44.44288" lon="2.50766">
        <ele>498</ele>
        <time>2015-09-06T08:03:13.000Z</time>
      </trkpt>
      <trkpt lat="44.44272" lon="2.5075">
        <ele>486</ele>
        <time>2015-09-06T08:03:18.000Z</time>
      </trkpt>
      <trkpt lat="44.44263" lon="2.5074">
        <ele>488</ele>
        <time>2015-09-06T08:03:22.000Z</time>
      </trkpt>
      <trkpt lat="44.44254" lon="2.50727">
        <ele>485</ele>
        <time>2015-09-06T08:03:27.000Z</time>
      </trkpt>
      <trkpt lat="44.44244" lon="2.50719">
        <ele>497</ele>
        <time>2015-09-06T08:03:31.000Z</time>
      </trkpt>
      <trkpt lat="44.44233" lon="2.50712">
        <ele>496</ele>
        <time>2015-09-06T08:03:34.000Z</time>
      </trkpt>
      <trkpt lat="44.4422" lon="2.50701">
        <ele>496</ele>
        <time>2015-09-06T08:03:39.000Z</time>
      </trkpt>
      <trkpt lat="44.44211" lon="2.50693">
        <ele>496</ele>
        <time>2015-09-06T08:03:43.000Z</time>
      </trkpt>
      <trkpt lat="44.44203" lon="2.50682">
        <ele>496</ele>
        <time>2015-09-06T08:03:47.000Z</time>
      </trkpt>
      <trkpt lat="44.44195" lon="2.50672">
        <ele>496</ele>
        <time>2015-09-06T08:03:52.000Z</time>
      </trkpt>
      <trkpt lat="44.44185" lon="2.50666">
        <ele>484</ele>
        <time>2015-09-06T08:03:56.000Z</time>
      </trkpt>
      <trkpt lat="44.4417" lon="2.50658">
        <ele>488</ele>
        <time>2015-09-06T08:04:02.000Z</time>
      </trkpt>
      <trkpt lat="44.4416" lon="2.50649">
        <ele>491</ele>
        <time>2015-09-06T08:04:06.000Z</time>
      </trkpt>
      <trkpt lat="44.44147" lon="2.50649">
        <ele>490</ele>
        <time>2015-09-06T08:04:11.000Z</time>
      </trkpt>
      <trkpt lat="44.44137" lon="2.50653">
        <ele>491</ele>
        <time>2015-09-06T08:04:15.000Z</time>
      </trkpt>
      <trkpt lat="44.44131" lon="2.50667">
        <ele>506</ele>
        <time>2015-09-06T08:04:23.000Z</time>
      </trkpt>
      <trkpt lat="44.44132" lon="2.50681">
        <ele>506</ele>
        <time>2015-09-06T08:04:30.990Z</time>
      </trkpt>
      <trkpt lat="44.44127" lon="2.50693">
        <ele>508</ele>
        <time>2015-09-06T08:04:40.000Z</time>
      </trkpt>
      <trkpt lat="44.44121" lon="2.50705">
        <ele>509</ele>
        <time>2015-09-06T08:04:54.000Z</time>
      </trkpt>
      <trkpt lat="44.44118" lon="2.50719">
        <ele>511</ele>
        <time>2015-09-06T08:05:04.000Z</time>
      </trkpt>
      <trkpt lat="44.44116" lon="2.50735">
        <ele>512</ele>
        <time>2015-09-06T08:05:13.000Z</time>
      </trkpt>
      <trkpt lat="44.44114" lon="2.50751">
        <ele>523</ele>
        <time>2015-09-06T08:05:21.990Z</time>
      </trkpt>
      <trkpt lat="44.44117" lon="2.50766">
        <ele>524</ele>
        <time>2015-09-06T08:05:32.000Z</time>
      </trkpt>
      <trkpt lat="44.44115" lon="2.50778">
        <ele>524</ele>
        <time>2015-09-06T08:05:45.990Z</time>
      </trkpt>
      <trkpt lat="44.44104" lon="2.50774">
        <ele>523</ele>
        <time>2015-09-06T08:06:05.990Z</time>
      </trkpt>
      <trkpt lat="44.44095" lon="2.50769">
        <ele>522</ele>
        <time>2015-09-06T08:06:11.990Z</time>
      </trkpt>
      <trkpt lat="44.44087" lon="2.50767">
        <ele>521</ele>
        <time>2015-09-06T08:06:18.000Z</time>
      </trkpt>
      <trkpt lat="44.4408" lon="2.50759">
        <ele>513</ele>
        <time>2015-09-06T08:06:24.990Z</time>
      </trkpt>
      <trkpt lat="44.44072" lon="2.50753">
        <ele>512</ele>
        <time>2015-09-06T08:06:28.000Z</time>
      </trkpt>
      <trkpt lat="44.44064" lon="2.50751">
        <ele>509</ele>
        <time>2015-09-06T08:06:33.000Z</time>
      </trkpt>
      <trkpt lat="44.44061" lon="2.50764">
        <ele>508</ele>
        <time>2015-09-06T08:06:46.000Z</time>
      </trkpt>
      <trkpt lat="44.44058" lon="2.50782">
        <ele>507</ele>
        <time>2015-09-06T08:06:51.000Z</time>
      </trkpt>
      <trkpt lat="44.44057" lon="2.50797">
        <ele>508</ele>
        <time>2015-09-06T08:06:56.000Z</time>
      </trkpt>
      <trkpt lat="44.44062" lon="2.5081">
        <ele>511</ele>
        <time>2015-09-06T08:07:02.000Z</time>
      </trkpt>
      <trkpt lat="44.44058" lon="2.50823">
        <ele>511</ele>
        <time>2015-09-06T08:07:08.000Z</time>
      </trkpt>
      <trkpt lat="44.44054" lon="2.50835">
        <ele>515</ele>
        <time>2015-09-06T08:07:12.000Z</time>
      </trkpt>
      <trkpt lat="44.44047" lon="2.5085">
        <ele>513</ele>
        <time>2015-09-06T08:07:16.000Z</time>
      </trkpt>
      <trkpt lat="44.4404" lon="2.50864">
        <ele>512</ele>
        <time>2015-09-06T08:07:20.000Z</time>
      </trkpt>
      <trkpt lat="44.44038" lon="2.50878">
        <ele>512</ele>
        <time>2015-09-06T08:07:24.000Z</time>
      </trkpt>
      <trkpt lat="44.44038" lon="2.50893">
        <ele>513</ele>
        <time>2015-09-06T08:07:29.000Z</time>
      </trkpt>
      <trkpt lat="44.44036" lon="2.50907">
        <ele>512</ele>
        <time>2015-09-06T08:07:34.000Z</time>
      </trkpt>
      <trkpt lat="44.4403" lon="2.50922">
        <ele>515</ele>
        <time>2015-09-06T08:07:38.000Z</time>
      </trkpt>
      <trkpt lat="44.44023" lon="2.50938">
        <ele>514</ele>
        <time>2015-09-06T08:07:42.000Z</time>
      </trkpt>
      <trkpt lat="44.44016" lon="2.50953">
        <ele>515</ele>
        <time>2015-09-06T08:07:45.990Z</time>
      </trkpt>
      <trkpt lat="44.44013" lon="2.50969">
        <ele>515</ele>
        <time>2015-09-06T08:07:50.010Z</time>
      </trkpt>
      <trkpt lat="44.44012" lon="2.50984">
        <ele>515</ele>
        <time>2015-09-06T08:07:53.990Z</time>
      </trkpt>
      <trkpt lat="44.4401" lon="2.51">
        <ele>514</ele>
        <time>2015-09-06T08:07:57.990Z</time>
      </trkpt>
      <trkpt lat="44.44008" lon="2.51015">
        <ele>516</ele>
        <time>2015-09-06T08:08:01.990Z</time>
      </trkpt>
      <trkpt lat="44.44006" lon="2.51001">
        <ele>513</ele>
        <time>2015-09-06T08:08:35.000Z</time>
      </trkpt>
      <trkpt lat="44.44005" lon="2.50989">
        <ele>513</ele>
        <time>2015-09-06T08:08:37.990Z</time>
      </trkpt>
      <trkpt lat="44.44003" lon="2.50975">
        <ele>514</ele>
        <time>2015-09-06T08:08:40.990Z</time>
      </trkpt>
      <trkpt lat="44.44001" lon="2.50959">
        <ele>514</ele>
        <time>2015-09-06T08:08:43.990Z</time>
      </trkpt>
      <trkpt lat="44.44001" lon="2.50943">
        <ele>512</ele>
        <time>2015-09-06T08:08:46.990Z</time>
      </trkpt>
      <trkpt lat="44.44002" lon="2.50932">
        <ele>509</ele>
        <time>2015-09-06T08:08:48.990Z</time>
      </trkpt>
      <trkpt lat="44.44003" lon="2.50917">
        <ele>504</ele>
        <time>2015-09-06T08:08:51.990Z</time>
      </trkpt>
      <trkpt lat="44.44004" lon="2.50903">
        <ele>506</ele>
        <time>2015-09-06T08:08:55.010Z</time>
      </trkpt>
      <trkpt lat="44.44005" lon="2.50887">
        <ele>508</ele>
        <time>2015-09-06T08:08:57.990Z</time>
      </trkpt>
      <trkpt lat="44.44006" lon="2.50875">
        <ele>507</ele>
        <time>2015-09-06T08:09:00.010Z</time>
      </trkpt>
      <trkpt lat="44.44011" lon="2.5086">
        <ele>506</ele>
        <time>2015-09-06T08:09:02.990Z</time>
      </trkpt>
      <trkpt lat="44.44014" lon="2.50847">
        <ele>504</ele>
        <time>2015-09-06T08:09:05.990Z</time>
      </trkpt>
      <trkpt lat="44.44017" lon="2.50834">
        <ele>502</ele>
        <time>2015-09-06T08:09:07.990Z</time>
      </trkpt>
      <trkpt lat="44.44018" lon="2.50819">
        <ele>500</ele>
        <time>2015-09-06T08:09:10.990Z</time>
      </trkpt>
      <trkpt lat="44.44017" lon="2.50804">
        <ele>500</ele>
        <time>2015-09-06T08:09:13.990Z</time>
      </trkpt>
      <trkpt lat="44.44016" lon="2.50787">
        <ele>499</ele>
        <time>2015-09-06T08:09:16.990Z</time>
      </trkpt>
      <trkpt lat="44.44016" lon="2.50773">
        <ele>497</ele>
        <time>2015-09-06T08:09:20.000Z</time>
      </trkpt>
      <trkpt lat="44.44016" lon="2.50756">
        <ele>494</ele>
        <time>2015-09-06T08:09:22.990Z</time>
      </trkpt>
      <trkpt lat="44.44012" lon="2.50744">
        <ele>488</ele>
        <time>2015-09-06T08:09:25.990Z</time>
      </trkpt>
      <trkpt lat="44.44001" lon="2.50751">
        <ele>484</ele>
        <time>2015-09-06T08:09:36.100Z</time>
      </trkpt>
      <trkpt lat="44.43995" lon="2.50764">
        <ele>476</ele>
        <time>2015-09-06T08:09:39.000Z</time>
      </trkpt>
      <trkpt lat="44.43984" lon="2.50776">
        <ele>471</ele>
        <time>2015-09-06T08:09:42.990Z</time>
      </trkpt>
      <trkpt lat="44.43974" lon="2.5078">
        <ele>469</ele>
        <time>2015-09-06T08:09:46.990Z</time>
      </trkpt>
      <trkpt lat="44.43973" lon="2.50767">
        <ele>469</ele>
        <time>2015-09-06T08:09:50.010Z</time>
      </trkpt>
      <trkpt lat="44.43969" lon="2.5075">
        <ele>468</ele>
        <time>2015-09-06T08:09:53.990Z</time>
      </trkpt>
      <trkpt lat="44.43972" lon="2.50766">
        <ele>468</ele>
        <time>2015-09-06T08:10:18.000Z</time>
      </trkpt>
      <trkpt lat="44.4397" lon="2.50779">
        <ele>467</ele>
        <time>2015-09-06T08:10:22.990Z</time>
      </trkpt>
      <trkpt lat="44.43964" lon="2.50791">
        <ele>466</ele>
        <time>2015-09-06T08:10:29.000Z</time>
      </trkpt>
      <trkpt lat="44.43957" lon="2.50802">
        <ele>465</ele>
        <time>2015-09-06T08:10:34.010Z</time>
      </trkpt>
      <trkpt lat="44.43952" lon="2.50814">
        <ele>464</ele>
        <time>2015-09-06T08:10:36.990Z</time>
      </trkpt>
      <trkpt lat="44.43941" lon="2.50826">
        <ele>460</ele>
        <time>2015-09-06T08:10:40.990Z</time>
      </trkpt>
      <trkpt lat="44.43923" lon="2.50834">
        <ele>454</ele>
        <time>2015-09-06T08:10:46.000Z</time>
      </trkpt>
      <trkpt lat="44.43912" lon="2.50842">
        <ele>444</ele>
        <time>2015-09-06T08:10:51.000Z</time>
      </trkpt>
      <trkpt lat="44.43912" lon="2.50856">
        <ele>442</ele>
        <time>2015-09-06T08:10:57.000Z</time>
      </trkpt>
      <trkpt lat="44.43919" lon="2.50867">
        <ele>467</ele>
        <time>2015-09-06T08:11:02.000Z</time>
      </trkpt>
      <trkpt lat="44.43923" lon="2.5088">
        <ele>469</ele>
        <time>2015-09-06T08:11:09.000Z</time>
      </trkpt>
      <trkpt lat="44.43923" lon="2.50895">
        <ele>469</ele>
        <time>2015-09-06T08:11:13.000Z</time>
      </trkpt>
      <trkpt lat="44.43922" lon="2.5091">
        <ele>465</ele>
        <time>2015-09-06T08:11:17.000Z</time>
      </trkpt>
      <trkpt lat="44.43918" lon="2.50924">
        <ele>467</ele>
        <time>2015-09-06T08:11:23.000Z</time>
      </trkpt>
      <trkpt lat="44.43911" lon="2.50933">
        <ele>454</ele>
        <time>2015-09-06T08:11:28.000Z</time>
      </trkpt>
      <trkpt lat="44.43901" lon="2.50934">
        <ele>452</ele>
        <time>2015-09-06T08:11:31.990Z</time>
      </trkpt>
      <trkpt lat="44.43891" lon="2.50942">
        <ele>449</ele>
        <time>2015-09-06T08:11:36.000Z</time>
      </trkpt>
      <trkpt lat="44.43889" lon="2.5096">
        <ele>449</ele>
        <time>2015-09-06T08:11:39.000Z</time>
      </trkpt>
      <trkpt lat="44.43882" lon="2.50971">
        <ele>448</ele>
        <time>2015-09-06T08:11:42.990Z</time>
      </trkpt>
      <trkpt lat="44.43873" lon="2.50961">
        <ele>445</ele>
        <time>2015-09-06T08:11:53.000Z</time>
      </trkpt>
      <trkpt lat="44.43863" lon="2.50958">
        <ele>443</ele>
        <time>2015-09-06T08:11:56.000Z</time>
      </trkpt>
      <trkpt lat="44.43857" lon="2.50976">
        <ele>442</ele>
        <time>2015-09-06T08:12:10.000Z</time>
      </trkpt>
      <trkpt lat="44.43864" lon="2.51">
        <ele>443</ele>
        <time>2015-09-06T08:12:16.000Z</time>
      </trkpt>
      <trkpt lat="44.43868" lon="2.51016">
        <ele>449</ele>
        <time>2015-09-06T08:12:20.000Z</time>
      </trkpt>
      <trkpt lat="44.43862" lon="2.51029">
        <ele>449</ele>
        <time>2015-09-06T08:12:24.000Z</time>
      </trkpt>
      <trkpt lat="44.43849" lon="2.51037">
        <ele>446</ele>
        <time>2015-09-06T08:12:27.000Z</time>
      </trkpt>
      <trkpt lat="44.43841" lon="2.51048">
        <ele>445</ele>
        <time>2015-09-06T08:12:29.000Z</time>
      </trkpt>
      <trkpt lat="44.43835" lon="2.51067">
        <ele>442</ele>
        <time>2015-09-06T08:12:34.000Z</time>
      </trkpt>
      <trkpt lat="44.43846" lon="2.51082">
        <ele>441</ele>
        <time>2015-09-06T08:12:37.000Z</time>
      </trkpt>
      <trkpt lat="44.43846" lon="2.51099">
        <ele>446</ele>
        <time>2015-09-06T08:12:41.000Z</time>
      </trkpt>
      <trkpt lat="44.43842" lon="2.51111">
        <ele>448</ele>
        <time>2015-09-06T08:12:44.000Z</time>
      </trkpt>
      <trkpt lat="44.43836" lon="2.51125">
        <ele>448</ele>
        <time>2015-09-06T08:12:46.990Z</time>
      </trkpt>
      <trkpt lat="44.43831" lon="2.51137">
        <ele>425</ele>
        <time>2015-09-06T08:12:49.990Z</time>
      </trkpt>
      <trkpt lat="44.43827" lon="2.5115">
        <ele>427</ele>
        <time>2015-09-06T08:12:52.990Z</time>
      </trkpt>
      <trkpt lat="44.43822" lon="2.51164">
        <ele>429</ele>
        <time>2015-09-06T08:12:56.010Z</time>
      </trkpt>
      <trkpt lat="44.43822" lon="2.51179">
        <ele>431</ele>
        <time>2015-09-06T08:12:58.990Z</time>
      </trkpt>
      <trkpt lat="44.43836" lon="2.51195">
        <ele>452</ele>
        <time>2015-09-06T08:13:01.990Z</time>
      </trkpt>
      <trkpt lat="44.43837" lon="2.51211">
        <ele>455</ele>
        <time>2015-09-06T08:13:06.010Z</time>
      </trkpt>
      <trkpt lat="44.43831" lon="2.51225">
        <ele>433</ele>
        <time>2015-09-06T08:13:09.990Z</time>
      </trkpt>
      <trkpt lat="44.43828" lon="2.51242">
        <ele>439</ele>
        <time>2015-09-06T08:13:13.990Z</time>
      </trkpt>
      <trkpt lat="44.43825" lon="2.51256">
        <ele>441</ele>
        <time>2015-09-06T08:13:16.990Z</time>
      </trkpt>
      <trkpt lat="44.43822" lon="2.51271">
        <ele>439</ele>
        <time>2015-09-06T08:13:19.990Z</time>
      </trkpt>
      <trkpt lat="44.43818" lon="2.51288">
        <ele>439</ele>
        <time>2015-09-06T08:13:23.990Z</time>
      </trkpt>
      <trkpt lat="44.43811" lon="2.51304">
        <ele>440</ele>
        <time>2015-09-06T08:13:27.990Z</time>
      </trkpt>
      <trkpt lat="44.43807" lon="2.51317">
        <ele>440</ele>
        <time>2015-09-06T08:13:31.000Z</time>
      </trkpt>
      <trkpt lat="44.438" lon="2.51329">
        <ele>439</ele>
        <time>2015-09-06T08:13:33.990Z</time>
      </trkpt>
      <trkpt lat="44.43792" lon="2.5134">
        <ele>444</ele>
        <time>2015-09-06T08:13:37.000Z</time>
      </trkpt>
      <trkpt lat="44.43781" lon="2.51346">
        <ele>441</ele>
        <time>2015-09-06T08:13:40.000Z</time>
      </trkpt>
      <trkpt lat="44.43772" lon="2.51352">
        <ele>439</ele>
        <time>2015-09-06T08:13:43.990Z</time>
      </trkpt>
      <trkpt lat="44.43764" lon="2.51361">
        <ele>439</ele>
        <time>2015-09-06T08:13:48.000Z</time>
      </trkpt>
      <trkpt lat="44.43757" lon="2.51372">
        <ele>440</ele>
        <time>2015-09-06T08:13:51.000Z</time>
      </trkpt>
      <trkpt lat="44.43749" lon="2.51384">
        <ele>425</ele>
        <time>2015-09-06T08:13:54.000Z</time>
      </trkpt>
      <trkpt lat="44.43739" lon="2.51393">
        <ele>426</ele>
        <time>2015-09-06T08:13:56.990Z</time>
      </trkpt>
      <trkpt lat="44.43729" lon="2.51405">
        <ele>426</ele>
        <time>2015-09-06T08:13:59.990Z</time>
      </trkpt>
      <trkpt lat="44.4372" lon="2.51416">
        <ele>425</ele>
        <time>2015-09-06T08:14:03.000Z</time>
      </trkpt>
      <trkpt lat="44.43715" lon="2.5143">
        <ele>434</ele>
        <time>2015-09-06T08:14:07.000Z</time>
      </trkpt>
      <trkpt lat="44.43725" lon="2.51435">
        <ele>435</ele>
        <time>2015-09-06T08:14:16.000Z</time>
      </trkpt>
      <trkpt lat="44.43735" lon="2.51435">
        <ele>436</ele>
        <time>2015-09-06T08:14:23.000Z</time>
      </trkpt>
      <trkpt lat="44.43737" lon="2.51449">
        <ele>437</ele>
        <time>2015-09-06T08:14:31.000Z</time>
      </trkpt>
      <trkpt lat="44.43735" lon="2.51463">
        <ele>439</ele>
        <time>2015-09-06T08:14:45.000Z</time>
      </trkpt>
      <trkpt lat="44.43727" lon="2.5147">
        <ele>439</ele>
        <time>2015-09-06T08:14:58.000Z</time>
      </trkpt>
      <trkpt lat="44.43729" lon="2.51484">
        <ele>442</ele>
        <time>2015-09-06T08:15:09.000Z</time>
      </trkpt>
      <trkpt lat="44.43735" lon="2.51495">
        <ele>445</ele>
        <time>2015-09-06T08:15:19.990Z</time>
      </trkpt>
      <trkpt lat="44.43724" lon="2.51501">
        <ele>451</ele>
        <time>2015-09-06T08:15:35.990Z</time>
      </trkpt>
      <trkpt lat="44.43715" lon="2.51511">
        <ele>451</ele>
        <time>2015-09-06T08:15:40.990Z</time>
      </trkpt>
      <trkpt lat="44.43708" lon="2.51523">
        <ele>451</ele>
        <time>2015-09-06T08:15:47.000Z</time>
      </trkpt>
      <trkpt lat="44.437" lon="2.51531">
        <ele>451</ele>
        <time>2015-09-06T08:15:50.000Z</time>
      </trkpt>
      <trkpt lat="44.4369" lon="2.51545">
        <ele>452</ele>
        <time>2015-09-06T08:15:53.990Z</time>
      </trkpt>
      <trkpt lat="44.43685" lon="2.51558">
        <ele>454</ele>
        <time>2015-09-06T08:15:58.000Z</time>
      </trkpt>
      <trkpt lat="44.43688" lon="2.51573">
        <ele>455</ele>
        <time>2015-09-06T08:16:01.990Z</time>
      </trkpt>
      <trkpt lat="44.43692" lon="2.51589">
        <ele>461</ele>
        <time>2015-09-06T08:16:06.990Z</time>
      </trkpt>
      <trkpt lat="44.4369" lon="2.51606">
        <ele>461</ele>
        <time>2015-09-06T08:16:10.990Z</time>
      </trkpt>
      <trkpt lat="44.43688" lon="2.5162">
        <ele>461</ele>
        <time>2015-09-06T08:16:15.000Z</time>
      </trkpt>
      <trkpt lat="44.43696" lon="2.51643">
        <ele>462</ele>
        <time>2015-09-06T08:16:23.000Z</time>
      </trkpt>
      <trkpt lat="44.43704" lon="2.51655">
        <ele>462</ele>
        <time>2015-09-06T08:16:27.000Z</time>
      </trkpt>
      <trkpt lat="44.43707" lon="2.5167">
        <ele>466</ele>
        <time>2015-09-06T08:16:30.990Z</time>
      </trkpt>
      <trkpt lat="44.4371" lon="2.51686">
        <ele>466</ele>
        <time>2015-09-06T08:16:36.000Z</time>
      </trkpt>
      <trkpt lat="44.43715" lon="2.51702">
        <ele>467</ele>
        <time>2015-09-06T08:16:40.990Z</time>
      </trkpt>
      <trkpt lat="44.43716" lon="2.51717">
        <ele>468</ele>
        <time>2015-09-06T08:16:46.000Z</time>
      </trkpt>
      <trkpt lat="44.43717" lon="2.51731">
        <ele>468</ele>
        <time>2015-09-06T08:16:51.000Z</time>
      </trkpt>
      <trkpt lat="44.43722" lon="2.51748">
        <ele>469</ele>
        <time>2015-09-06T08:16:55.000Z</time>
      </trkpt>
      <trkpt lat="44.43721" lon="2.51763">
        <ele>485</ele>
        <time>2015-09-06T08:16:59.000Z</time>
      </trkpt>
      <trkpt lat="44.43733" lon="2.51773">
        <ele>486</ele>
        <time>2015-09-06T08:17:04.000Z</time>
      </trkpt>
      <trkpt lat="44.43743" lon="2.51778">
        <ele>487</ele>
        <time>2015-09-06T08:17:08.000Z</time>
      </trkpt>
      <trkpt lat="44.43758" lon="2.51783">
        <ele>489</ele>
        <time>2015-09-06T08:17:13.000Z</time>
      </trkpt>
      <trkpt lat="44.43772" lon="2.5178">
        <ele>488</ele>
        <time>2015-09-06T08:17:20.000Z</time>
      </trkpt>
      <trkpt lat="44.43782" lon="2.51777">
        <ele>488</ele>
        <time>2015-09-06T08:17:24.000Z</time>
      </trkpt>
      <trkpt lat="44.43789" lon="2.51788">
        <ele>491</ele>
        <time>2015-09-06T08:17:27.000Z</time>
      </trkpt>
      <trkpt lat="44.43796" lon="2.518">
        <ele>493</ele>
        <time>2015-09-06T08:17:31.000Z</time>
      </trkpt>
      <trkpt lat="44.43807" lon="2.51804">
        <ele>494</ele>
        <time>2015-09-06T08:17:34.000Z</time>
      </trkpt>
      <trkpt lat="44.4382" lon="2.51806">
        <ele>495</ele>
        <time>2015-09-06T08:17:40.000Z</time>
      </trkpt>
      <trkpt lat="44.43838" lon="2.51805">
        <ele>500</ele>
        <time>2015-09-06T08:17:45.000Z</time>
      </trkpt>
      <trkpt lat="44.43847" lon="2.51794">
        <ele>499</ele>
        <time>2015-09-06T08:17:49.990Z</time>
      </trkpt>
      <trkpt lat="44.43856" lon="2.51788">
        <ele>498</ele>
        <time>2015-09-06T08:17:54.000Z</time>
      </trkpt>
      <trkpt lat="44.43864" lon="2.51797">
        <ele>500</ele>
        <time>2015-09-06T08:17:58.000Z</time>
      </trkpt>
      <trkpt lat="44.43861" lon="2.51811">
        <ele>502</ele>
        <time>2015-09-06T08:18:02.000Z</time>
      </trkpt>
      <trkpt lat="44.43859" lon="2.51825">
        <ele>503</ele>
        <time>2015-09-06T08:18:09.000Z</time>
      </trkpt>
      <trkpt lat="44.4385" lon="2.51834">
        <ele>511</ele>
        <time>2015-09-06T08:18:15.000Z</time>
      </trkpt>
      <trkpt lat="44.43843" lon="2.51844">
        <ele>510</ele>
        <time>2015-09-06T08:18:20.000Z</time>
      </trkpt>
      <trkpt lat="44.43848" lon="2.51856">
        <ele>513</ele>
        <time>2015-09-06T08:18:38.000Z</time>
      </trkpt>
      <trkpt lat="44.43839" lon="2.51863">
        <ele>514</ele>
        <time>2015-09-06T08:18:50.000Z</time>
      </trkpt>
      <trkpt lat="44.43828" lon="2.51859">
        <ele>513</ele>
        <time>2015-09-06T08:19:02.000Z</time>
      </trkpt>
      <trkpt lat="44.4384" lon="2.51857">
        <ele>513</ele>
        <time>2015-09-06T08:19:04.000Z</time>
      </trkpt>
      <trkpt lat="44.43848" lon="2.51866">
        <ele>515</ele>
        <time>2015-09-06T08:19:13.000Z</time>
      </trkpt>
      <trkpt lat="44.43837" lon="2.51871">
        <ele>515</ele>
        <time>2015-09-06T08:19:37.000Z</time>
      </trkpt>
      <trkpt lat="44.43827" lon="2.51878">
        <ele>517</ele>
        <time>2015-09-06T08:19:46.000Z</time>
      </trkpt>
      <trkpt lat="44.43817" lon="2.51881">
        <ele>518</ele>
        <time>2015-09-06T08:20:18.000Z</time>
      </trkpt>
      <trkpt lat="44.43809" lon="2.51873">
        <ele>517</ele>
        <time>2015-09-06T08:20:40.000Z</time>
      </trkpt>
      <trkpt lat="44.43799" lon="2.5187">
        <ele>517</ele>
        <time>2015-09-06T08:20:45.000Z</time>
      </trkpt>
      <trkpt lat="44.43788" lon="2.51861">
        <ele>516</ele>
        <time>2015-09-06T08:20:50.100Z</time>
      </trkpt>
      <trkpt lat="44.43777" lon="2.51853">
        <ele>516</ele>
        <time>2015-09-06T08:20:54.990Z</time>
      </trkpt>
      <trkpt lat="44.43766" lon="2.51846">
        <ele>515</ele>
        <time>2015-09-06T08:21:00.000Z</time>
      </trkpt>
      <trkpt lat="44.43755" lon="2.51845">
        <ele>514</ele>
        <time>2015-09-06T08:21:03.990Z</time>
      </trkpt>
      <trkpt lat="44.43744" lon="2.51847">
        <ele>516</ele>
        <time>2015-09-06T08:21:07.990Z</time>
      </trkpt>
      <trkpt lat="44.43732" lon="2.51847">
        <ele>517</ele>
        <time>2015-09-06T08:21:11.990Z</time>
      </trkpt>
      <trkpt lat="44.43722" lon="2.51851">
        <ele>518</ele>
        <time>2015-09-06T08:21:16.000Z</time>
      </trkpt>
      <trkpt lat="44.43711" lon="2.51854">
        <ele>519</ele>
        <time>2015-09-06T08:21:21.990Z</time>
      </trkpt>
      <trkpt lat="44.437" lon="2.51854">
        <ele>519</ele>
        <time>2015-09-06T08:21:26.990Z</time>
      </trkpt>
      <trkpt lat="44.43688" lon="2.51858">
        <ele>519</ele>
        <time>2015-09-06T08:21:32.000Z</time>
      </trkpt>
      <trkpt lat="44.43678" lon="2.51858">
        <ele>519</ele>
        <time>2015-09-06T08:21:35.990Z</time>
      </trkpt>
      <trkpt lat="44.43668" lon="2.51858">
        <ele>519</ele>
        <time>2015-09-06T08:21:40.000Z</time>
      </trkpt>
      <trkpt lat="44.43657" lon="2.51862">
        <ele>521</ele>
        <time>2015-09-06T08:21:43.000Z</time>
      </trkpt>
      <trkpt lat="44.43647" lon="2.51867">
        <ele>522</ele>
        <time>2015-09-06T08:21:46.990Z</time>
      </trkpt>
      <trkpt lat="44.43635" lon="2.51869">
        <ele>523</ele>
        <time>2015-09-06T08:21:50.990Z</time>
      </trkpt>
      <trkpt lat="44.43624" lon="2.51872">
        <ele>524</ele>
        <time>2015-09-06T08:21:54.990Z</time>
      </trkpt>
      <trkpt lat="44.43614" lon="2.5187">
        <ele>524</ele>
        <time>2015-09-06T08:21:59.000Z</time>
      </trkpt>
      <trkpt lat="44.43604" lon="2.51869">
        <ele>524</ele>
        <time>2015-09-06T08:22:04.000Z</time>
      </trkpt>
      <trkpt lat="44.43593" lon="2.51867">
        <ele>523</ele>
        <time>2015-09-06T08:22:09.000Z</time>
      </trkpt>
      <trkpt lat="44.43582" lon="2.51871">
        <ele>529</ele>
        <time>2015-09-06T08:22:17.000Z</time>
      </trkpt>
      <trkpt lat="44.43574" lon="2.51859">
        <ele>527</ele>
        <time>2015-09-06T08:22:23.010Z</time>
      </trkpt>
      <trkpt lat="44.43566" lon="2.51849">
        <ele>526</ele>
        <time>2015-09-06T08:22:26.990Z</time>
      </trkpt>
      <trkpt lat="44.43555" lon="2.51844">
        <ele>528</ele>
        <time>2015-09-06T08:22:30.990Z</time>
      </trkpt>
      <trkpt lat="44.43543" lon="2.51843">
        <ele>530</ele>
        <time>2015-09-06T08:22:34.990Z</time>
      </trkpt>
      <trkpt lat="44.43534" lon="2.51842">
        <ele>532</ele>
        <time>2015-09-06T08:22:38.000Z</time>
      </trkpt>
      <trkpt lat="44.43524" lon="2.5184">
        <ele>533</ele>
        <time>2015-09-06T08:22:40.990Z</time>
      </trkpt>
      <trkpt lat="44.43514" lon="2.51838">
        <ele>534</ele>
        <time>2015-09-06T08:22:43.990Z</time>
      </trkpt>
      <trkpt lat="44.43504" lon="2.51836">
        <ele>536</ele>
        <time>2015-09-06T08:22:46.990Z</time>
      </trkpt>
      <trkpt lat="44.43494" lon="2.51826">
        <ele>536</ele>
        <time>2015-09-06T08:22:50.990Z</time>
      </trkpt>
      <trkpt lat="44.43492" lon="2.5181">
        <ele>536</ele>
        <time>2015-09-06T08:22:54.990Z</time>
      </trkpt>
      <trkpt lat="44.43495" lon="2.51798">
        <ele>535</ele>
        <time>2015-09-06T08:22:58.000Z</time>
      </trkpt>
      <trkpt lat="44.43495" lon="2.5178">
        <ele>533</ele>
        <time>2015-09-06T08:23:01.990Z</time>
      </trkpt>
      <trkpt lat="44.43494" lon="2.51766">
        <ele>532</ele>
        <time>2015-09-06T08:23:04.990Z</time>
      </trkpt>
      <trkpt lat="44.43493" lon="2.51754">
        <ele>530</ele>
        <time>2015-09-06T08:23:08.000Z</time>
      </trkpt>
      <trkpt lat="44.43487" lon="2.51743">
        <ele>527</ele>
        <time>2015-09-06T08:23:10.990Z</time>
      </trkpt>
      <trkpt lat="44.43479" lon="2.51733">
        <ele>526</ele>
        <time>2015-09-06T08:23:13.990Z</time>
      </trkpt>
      <trkpt lat="44.43472" lon="2.51721">
        <ele>526</ele>
        <time>2015-09-06T08:23:16.990Z</time>
      </trkpt>
      <trkpt lat="44.43466" lon="2.51707">
        <ele>525</ele>
        <time>2015-09-06T08:23:19.990Z</time>
      </trkpt>
      <trkpt lat="44.43461" lon="2.51694">
        <ele>525</ele>
        <time>2015-09-06T08:23:23.000Z</time>
      </trkpt>
      <trkpt lat="44.43456" lon="2.5168">
        <ele>524</ele>
        <time>2015-09-06T08:23:25.990Z</time>
      </trkpt>
      <trkpt lat="44.4345" lon="2.51669">
        <ele>525</ele>
        <time>2015-09-06T08:23:28.990Z</time>
      </trkpt>
      <trkpt lat="44.43442" lon="2.51656">
        <ele>509</ele>
        <time>2015-09-06T08:23:31.990Z</time>
      </trkpt>
      <trkpt lat="44.43434" lon="2.51646">
        <ele>509</ele>
        <time>2015-09-06T08:23:34.990Z</time>
      </trkpt>
      <trkpt lat="44.43424" lon="2.51642">
        <ele>509</ele>
        <time>2015-09-06T08:23:38.010Z</time>
      </trkpt>
      <trkpt lat="44.43413" lon="2.51644">
        <ele>514</ele>
        <time>2015-09-06T08:23:40.990Z</time>
      </trkpt>
      <trkpt lat="44.43405" lon="2.51646">
        <ele>513</ele>
        <time>2015-09-06T08:23:43.000Z</time>
      </trkpt>
      <trkpt lat="44.43397" lon="2.51642">
        <ele>510</ele>
        <time>2015-09-06T08:23:44.990Z</time>
      </trkpt>
      <trkpt lat="44.43387" lon="2.51637">
        <ele>508</ele>
        <time>2015-09-06T08:23:46.990Z</time>
      </trkpt>
      <trkpt lat="44.43379" lon="2.51636">
        <ele>507</ele>
        <time>2015-09-06T08:23:48.990Z</time>
      </trkpt>
      <trkpt lat="44.43371" lon="2.51635">
        <ele>506</ele>
        <time>2015-09-06T08:23:50.990Z</time>
      </trkpt>
      <trkpt lat="44.43361" lon="2.51634">
        <ele>505</ele>
        <time>2015-09-06T08:23:53.990Z</time>
      </trkpt>
      <trkpt lat="44.43352" lon="2.51638">
        <ele>507</ele>
        <time>2015-09-06T08:23:56.990Z</time>
      </trkpt>
      <trkpt lat="44.43343" lon="2.51644">
        <ele>509</ele>
        <time>2015-09-06T08:23:59.990Z</time>
      </trkpt>
      <trkpt lat="44.43335" lon="2.51649">
        <ele>512</ele>
        <time>2015-09-06T08:24:03.000Z</time>
      </trkpt>
      <trkpt lat="44.43325" lon="2.51657">
        <ele>509</ele>
        <time>2015-09-06T08:24:06.000Z</time>
      </trkpt>
      <trkpt lat="44.43316" lon="2.51664">
        <ele>507</ele>
        <time>2015-09-06T08:24:08.990Z</time>
      </trkpt>
      <trkpt lat="44.43308" lon="2.51669">
        <ele>522</ele>
        <time>2015-09-06T08:24:11.990Z</time>
      </trkpt>
      <trkpt lat="44.43298" lon="2.51672">
        <ele>521</ele>
        <time>2015-09-06T08:24:14.990Z</time>
      </trkpt>
      <trkpt lat="44.43286" lon="2.51673">
        <ele>520</ele>
        <time>2015-09-06T08:24:18.990Z</time>
      </trkpt>
      <trkpt lat="44.43275" lon="2.5168">
        <ele>519</ele>
        <time>2015-09-06T08:24:23.000Z</time>
      </trkpt>
      <trkpt lat="44.43263" lon="2.51686">
        <ele>518</ele>
        <time>2015-09-06T08:24:26.990Z</time>
      </trkpt>
      <trkpt lat="44.43253" lon="2.51689">
        <ele>518</ele>
        <time>2015-09-06T08:24:29.990Z</time>
      </trkpt>
      <trkpt lat="44.4324" lon="2.51692">
        <ele>508</ele>
        <time>2015-09-06T08:24:33.000Z</time>
      </trkpt>
      <trkpt lat="44.43229" lon="2.51699">
        <ele>508</ele>
        <time>2015-09-06T08:24:36.990Z</time>
      </trkpt>
      <trkpt lat="44.4322" lon="2.51703">
        <ele>507</ele>
        <time>2015-09-06T08:24:40.990Z</time>
      </trkpt>
      <trkpt lat="44.43209" lon="2.51708">
        <ele>506</ele>
        <time>2015-09-06T08:24:44.990Z</time>
      </trkpt>
      <trkpt lat="44.43199" lon="2.51701">
        <ele>503</ele>
        <time>2015-09-06T08:24:50.990Z</time>
      </trkpt>
      <trkpt lat="44.43189" lon="2.51699">
        <ele>501</ele>
        <time>2015-09-06T08:24:58.000Z</time>
      </trkpt>
      <trkpt lat="44.43188" lon="2.51714">
        <ele>504</ele>
        <time>2015-09-06T08:25:14.990Z</time>
      </trkpt>
      <trkpt lat="44.43185" lon="2.5173">
        <ele>506</ele>
        <time>2015-09-06T08:25:22.000Z</time>
      </trkpt>
      <trkpt lat="44.4318" lon="2.51743">
        <ele>506</ele>
        <time>2015-09-06T08:25:27.000Z</time>
      </trkpt>
      <trkpt lat="44.43176" lon="2.51757">
        <ele>512</ele>
        <time>2015-09-06T08:25:35.000Z</time>
      </trkpt>
      <trkpt lat="44.43175" lon="2.51772">
        <ele>516</ele>
        <time>2015-09-06T08:25:44.000Z</time>
      </trkpt>
      <trkpt lat="44.43166" lon="2.5178">
        <ele>504</ele>
        <time>2015-09-06T08:25:54.000Z</time>
      </trkpt>
      <trkpt lat="44.43156" lon="2.51785">
        <ele>504</ele>
        <time>2015-09-06T08:25:59.000Z</time>
      </trkpt>
      <trkpt lat="44.43146" lon="2.51792">
        <ele>503</ele>
        <time>2015-09-06T08:26:05.990Z</time>
      </trkpt>
      <trkpt lat="44.4314" lon="2.51804">
        <ele>504</ele>
        <time>2015-09-06T08:26:10.000Z</time>
      </trkpt>
      <trkpt lat="44.43132" lon="2.51814">
        <ele>504</ele>
        <time>2015-09-06T08:26:13.990Z</time>
      </trkpt>
      <trkpt lat="44.43127" lon="2.51827">
        <ele>504</ele>
        <time>2015-09-06T08:26:18.000Z</time>
      </trkpt>
      <trkpt lat="44.43123" lon="2.51841">
        <ele>515</ele>
        <time>2015-09-06T08:26:21.990Z</time>
      </trkpt>
      <trkpt lat="44.43114" lon="2.5185">
        <ele>514</ele>
        <time>2015-09-06T08:26:27.000Z</time>
      </trkpt>
      <trkpt lat="44.43113" lon="2.51864">
        <ele>515</ele>
        <time>2015-09-06T08:26:31.000Z</time>
      </trkpt>
      <trkpt lat="44.43107" lon="2.51877">
        <ele>516</ele>
        <time>2015-09-06T08:26:34.990Z</time>
      </trkpt>
      <trkpt lat="44.43105" lon="2.51891">
        <ele>517</ele>
        <time>2015-09-06T08:26:40.000Z</time>
      </trkpt>
      <trkpt lat="44.431" lon="2.51908">
        <ele>518</ele>
        <time>2015-09-06T08:26:46.000Z</time>
      </trkpt>
      <trkpt lat="44.43093" lon="2.51923">
        <ele>523</ele>
        <time>2015-09-06T08:26:53.000Z</time>
      </trkpt>
      <trkpt lat="44.43096" lon="2.51936">
        <ele>527</ele>
        <time>2015-09-06T08:26:58.000Z</time>
      </trkpt>
      <trkpt lat="44.43098" lon="2.51951">
        <ele>529</ele>
        <time>2015-09-06T08:27:03.000Z</time>
      </trkpt>
      <trkpt lat="44.43095" lon="2.51965">
        <ele>531</ele>
        <time>2015-09-06T08:27:07.000Z</time>
      </trkpt>
      <trkpt lat="44.43088" lon="2.51977">
        <ele>534</ele>
        <time>2015-09-06T08:27:12.000Z</time>
      </trkpt>
      <trkpt lat="44.43078" lon="2.51986">
        <ele>532</ele>
        <time>2015-09-06T08:27:17.000Z</time>
      </trkpt>
      <trkpt lat="44.43082" lon="2.52001">
        <ele>540</ele>
        <time>2015-09-06T08:27:24.000Z</time>
      </trkpt>
      <trkpt lat="44.43084" lon="2.52015">
        <ele>540</ele>
        <time>2015-09-06T08:27:28.000Z</time>
      </trkpt>
      <trkpt lat="44.43082" lon="2.52029">
        <ele>541</ele>
        <time>2015-09-06T08:27:30.990Z</time>
      </trkpt>
      <trkpt lat="44.43081" lon="2.52046">
        <ele>542</ele>
        <time>2015-09-06T08:27:35.000Z</time>
      </trkpt>
      <trkpt lat="44.4308" lon="2.5206">
        <ele>544</ele>
        <time>2015-09-06T08:27:37.990Z</time>
      </trkpt>
      <trkpt lat="44.43078" lon="2.52076">
        <ele>546</ele>
        <time>2015-09-06T08:27:41.990Z</time>
      </trkpt>
      <trkpt lat="44.43074" lon="2.52092">
        <ele>548</ele>
        <time>2015-09-06T08:27:46.000Z</time>
      </trkpt>
      <trkpt lat="44.43071" lon="2.52109">
        <ele>548</ele>
        <time>2015-09-06T08:27:51.000Z</time>
      </trkpt>
      <trkpt lat="44.4307" lon="2.52124">
        <ele>548</ele>
        <time>2015-09-06T08:27:54.990Z</time>
      </trkpt>
      <trkpt lat="44.43073" lon="2.52138">
        <ele>549</ele>
        <time>2015-09-06T08:27:58.990Z</time>
      </trkpt>
      <trkpt lat="44.43074" lon="2.52152">
        <ele>549</ele>
        <time>2015-09-06T08:28:02.000Z</time>
      </trkpt>
      <trkpt lat="44.43072" lon="2.52167">
        <ele>550</ele>
        <time>2015-09-06T08:28:05.990Z</time>
      </trkpt>
      <trkpt lat="44.43065" lon="2.52178">
        <ele>550</ele>
        <time>2015-09-06T08:28:10.000Z</time>
      </trkpt>
      <trkpt lat="44.43065" lon="2.52194">
        <ele>550</ele>
        <time>2015-09-06T08:28:13.990Z</time>
      </trkpt>
      <trkpt lat="44.43065" lon="2.52208">
        <ele>550</ele>
        <time>2015-09-06T08:28:17.000Z</time>
      </trkpt>
      <trkpt lat="44.43067" lon="2.52226">
        <ele>550</ele>
        <time>2015-09-06T08:28:20.990Z</time>
      </trkpt>
      <trkpt lat="44.43071" lon="2.52242">
        <ele>551</ele>
        <time>2015-09-06T08:28:24.990Z</time>
      </trkpt>
      <trkpt lat="44.43077" lon="2.52254">
        <ele>551</ele>
        <time>2015-09-06T08:28:28.000Z</time>
      </trkpt>
      <trkpt lat="44.4308" lon="2.52267">
        <ele>550</ele>
        <time>2015-09-06T08:28:31.000Z</time>
      </trkpt>
      <trkpt lat="44.43083" lon="2.52283">
        <ele>550</ele>
        <time>2015-09-06T08:28:34.990Z</time>
      </trkpt>
      <trkpt lat="44.43088" lon="2.52297">
        <ele>548</ele>
        <time>2015-09-06T08:28:39.000Z</time>
      </trkpt>
      <trkpt lat="44.43093" lon="2.52308">
        <ele>547</ele>
        <time>2015-09-06T08:28:43.010Z</time>
      </trkpt>
      <trkpt lat="44.431" lon="2.5232">
        <ele>547</ele>
        <time>2015-09-06T08:28:46.990Z</time>
      </trkpt>
      <trkpt lat="44.43109" lon="2.52329">
        <ele>547</ele>
        <time>2015-09-06T08:28:50.990Z</time>
      </trkpt>
      <trkpt lat="44.43115" lon="2.52341">
        <ele>547</ele>
        <time>2015-09-06T08:28:54.990Z</time>
      </trkpt>
      <trkpt lat="44.43125" lon="2.52353">
        <ele>547</ele>
        <time>2015-09-06T08:28:59.000Z</time>
      </trkpt>
      <trkpt lat="44.43133" lon="2.52366">
        <ele>547</ele>
        <time>2015-09-06T08:29:03.000Z</time>
      </trkpt>
      <trkpt lat="44.43139" lon="2.5238">
        <ele>548</ele>
        <time>2015-09-06T08:29:06.990Z</time>
      </trkpt>
      <trkpt lat="44.43146" lon="2.52393">
        <ele>548</ele>
        <time>2015-09-06T08:29:10.990Z</time>
      </trkpt>
      <trkpt lat="44.43153" lon="2.52407">
        <ele>549</ele>
        <time>2015-09-06T08:29:15.000Z</time>
      </trkpt>
      <trkpt lat="44.43158" lon="2.52422">
        <ele>549</ele>
        <time>2015-09-06T08:29:20.000Z</time>
      </trkpt>
      <trkpt lat="44.43167" lon="2.52436">
        <ele>550</ele>
        <time>2015-09-06T08:29:24.000Z</time>
      </trkpt>
      <trkpt lat="44.43174" lon="2.52446">
        <ele>550</ele>
        <time>2015-09-06T08:29:27.000Z</time>
      </trkpt>
      <trkpt lat="44.43184" lon="2.52457">
        <ele>550</ele>
        <time>2015-09-06T08:29:30.990Z</time>
      </trkpt>
      <trkpt lat="44.43193" lon="2.52468">
        <ele>550</ele>
        <time>2015-09-06T08:29:34.990Z</time>
      </trkpt>
      <trkpt lat="44.43201" lon="2.52477">
        <ele>550</ele>
        <time>2015-09-06T08:29:38.000Z</time>
      </trkpt>
      <trkpt lat="44.43209" lon="2.52486">
        <ele>551</ele>
        <time>2015-09-06T08:29:41.000Z</time>
      </trkpt>
      <trkpt lat="44.43216" lon="2.52494">
        <ele>551</ele>
        <time>2015-09-06T08:29:44.000Z</time>
      </trkpt>
      <trkpt lat="44.43226" lon="2.52504">
        <ele>551</ele>
        <time>2015-09-06T08:29:48.000Z</time>
      </trkpt>
      <trkpt lat="44.43236" lon="2.52511">
        <ele>551</ele>
        <time>2015-09-06T08:29:50.990Z</time>
      </trkpt>
      <trkpt lat="44.43244" lon="2.52516">
        <ele>552</ele>
        <time>2015-09-06T08:29:54.000Z</time>
      </trkpt>
      <trkpt lat="44.43254" lon="2.52521">
        <ele>553</ele>
        <time>2015-09-06T08:29:57.000Z</time>
      </trkpt>
      <trkpt lat="44.43263" lon="2.52526">
        <ele>553</ele>
        <time>2015-09-06T08:30:00.000Z</time>
      </trkpt>
      <trkpt lat="44.43273" lon="2.52532">
        <ele>553</ele>
        <time>2015-09-06T08:30:03.000Z</time>
      </trkpt>
      <trkpt lat="44.43282" lon="2.52537">
        <ele>553</ele>
        <time>2015-09-06T08:30:05.990Z</time>
      </trkpt>
      <trkpt lat="44.4329" lon="2.52543">
        <ele>553</ele>
        <time>2015-09-06T08:30:08.990Z</time>
      </trkpt>
      <trkpt lat="44.433" lon="2.5255">
        <ele>553</ele>
        <time>2015-09-06T08:30:13.000Z</time>
      </trkpt>
      <trkpt lat="44.43311" lon="2.52557">
        <ele>553</ele>
        <time>2015-09-06T08:30:16.990Z</time>
      </trkpt>
      <trkpt lat="44.43321" lon="2.52565">
        <ele>554</ele>
        <time>2015-09-06T08:30:19.990Z</time>
      </trkpt>
      <trkpt lat="44.4333" lon="2.52573">
        <ele>554</ele>
        <time>2015-09-06T08:30:23.010Z</time>
      </trkpt>
      <trkpt lat="44.43339" lon="2.52583">
        <ele>554</ele>
        <time>2015-09-06T08:30:25.990Z</time>
      </trkpt>
      <trkpt lat="44.43349" lon="2.52591">
        <ele>553</ele>
        <time>2015-09-06T08:30:29.990Z</time>
      </trkpt>
      <trkpt lat="44.43356" lon="2.52601">
        <ele>552</ele>
        <time>2015-09-06T08:30:33.000Z</time>
      </trkpt>
      <trkpt lat="44.43365" lon="2.52609">
        <ele>552</ele>
        <time>2015-09-06T08:30:35.990Z</time>
      </trkpt>
      <trkpt lat="44.43373" lon="2.52618">
        <ele>552</ele>
        <time>2015-09-06T08:30:39.000Z</time>
      </trkpt>
      <trkpt lat="44.43382" lon="2.52626">
        <ele>551</ele>
        <time>2015-09-06T08:30:41.990Z</time>
      </trkpt>
      <trkpt lat="44.43392" lon="2.52635">
        <ele>551</ele>
        <time>2015-09-06T08:30:45.000Z</time>
      </trkpt>
      <trkpt lat="44.43401" lon="2.52645">
        <ele>550</ele>
        <time>2015-09-06T08:30:48.000Z</time>
      </trkpt>
      <trkpt lat="44.4341" lon="2.52653">
        <ele>550</ele>
        <time>2015-09-06T08:30:51.000Z</time>
      </trkpt>
      <trkpt lat="44.4342" lon="2.52661">
        <ele>549</ele>
        <time>2015-09-06T08:30:54.000Z</time>
      </trkpt>
      <trkpt lat="44.43429" lon="2.5267">
        <ele>548</ele>
        <time>2015-09-06T08:30:57.000Z</time>
      </trkpt>
      <trkpt lat="44.43435" lon="2.52681">
        <ele>547</ele>
        <time>2015-09-06T08:30:59.990Z</time>
      </trkpt>
      <trkpt lat="44.43439" lon="2.52695">
        <ele>547</ele>
        <time>2015-09-06T08:31:03.000Z</time>
      </trkpt>
      <trkpt lat="44.43441" lon="2.52711">
        <ele>547</ele>
        <time>2015-09-06T08:31:06.000Z</time>
      </trkpt>
      <trkpt lat="44.43443" lon="2.52725">
        <ele>547</ele>
        <time>2015-09-06T08:31:08.990Z</time>
      </trkpt>
      <trkpt lat="44.43447" lon="2.52739">
        <ele>546</ele>
        <time>2015-09-06T08:31:11.990Z</time>
      </trkpt>
      <trkpt lat="44.43451" lon="2.52753">
        <ele>545</ele>
        <time>2015-09-06T08:31:14.990Z</time>
      </trkpt>
      <trkpt lat="44.43455" lon="2.52768">
        <ele>545</ele>
        <time>2015-09-06T08:31:19.000Z</time>
      </trkpt>
      <trkpt lat="44.43458" lon="2.52783">
        <ele>545</ele>
        <time>2015-09-06T08:31:21.990Z</time>
      </trkpt>
      <trkpt lat="44.43461" lon="2.528">
        <ele>545</ele>
        <time>2015-09-06T08:31:26.000Z</time>
      </trkpt>
      <trkpt lat="44.43466" lon="2.52815">
        <ele>545</ele>
        <time>2015-09-06T08:31:29.990Z</time>
      </trkpt>
      <trkpt lat="44.43469" lon="2.52829">
        <ele>545</ele>
        <time>2015-09-06T08:31:33.990Z</time>
      </trkpt>
      <trkpt lat="44.43471" lon="2.52844">
        <ele>543</ele>
        <time>2015-09-06T08:31:38.000Z</time>
      </trkpt>
      <trkpt lat="44.43472" lon="2.5286">
        <ele>543</ele>
        <time>2015-09-06T08:31:42.000Z</time>
      </trkpt>
      <trkpt lat="44.43473" lon="2.52874">
        <ele>543</ele>
        <time>2015-09-06T08:31:44.990Z</time>
      </trkpt>
      <trkpt lat="44.43474" lon="2.52889">
        <ele>543</ele>
        <time>2015-09-06T08:31:48.000Z</time>
      </trkpt>
      <trkpt lat="44.43465" lon="2.52899">
        <ele>543</ele>
        <time>2015-09-06T08:31:51.990Z</time>
      </trkpt>
      <trkpt lat="44.43455" lon="2.52906">
        <ele>542</ele>
        <time>2015-09-06T08:31:54.990Z</time>
      </trkpt>
      <trkpt lat="44.43446" lon="2.52914">
        <ele>542</ele>
        <time>2015-09-06T08:31:58.000Z</time>
      </trkpt>
      <trkpt lat="44.43436" lon="2.52922">
        <ele>540</ele>
        <time>2015-09-06T08:32:00.990Z</time>
      </trkpt>
      <trkpt lat="44.43428" lon="2.52932">
        <ele>540</ele>
        <time>2015-09-06T08:32:04.990Z</time>
      </trkpt>
      <trkpt lat="44.4342" lon="2.5294">
        <ele>540</ele>
        <time>2015-09-06T08:32:08.990Z</time>
      </trkpt>
      <trkpt lat="44.43408" lon="2.52948">
        <ele>539</ele>
        <time>2015-09-06T08:32:13.000Z</time>
      </trkpt>
      <trkpt lat="44.43398" lon="2.52953">
        <ele>539</ele>
        <time>2015-09-06T08:32:16.000Z</time>
      </trkpt>
      <trkpt lat="44.43387" lon="2.5296">
        <ele>539</ele>
        <time>2015-09-06T08:32:19.990Z</time>
      </trkpt>
      <trkpt lat="44.43375" lon="2.52966">
        <ele>539</ele>
        <time>2015-09-06T08:32:23.990Z</time>
      </trkpt>
      <trkpt lat="44.43365" lon="2.5297">
        <ele>539</ele>
        <time>2015-09-06T08:32:28.000Z</time>
      </trkpt>
      <trkpt lat="44.43352" lon="2.52972">
        <ele>539</ele>
        <time>2015-09-06T08:32:31.990Z</time>
      </trkpt>
      <trkpt lat="44.43343" lon="2.52974">
        <ele>539</ele>
        <time>2015-09-06T08:32:34.990Z</time>
      </trkpt>
      <trkpt lat="44.43333" lon="2.52974">
        <ele>538</ele>
        <time>2015-09-06T08:32:38.010Z</time>
      </trkpt>
      <trkpt lat="44.43321" lon="2.52977">
        <ele>538</ele>
        <time>2015-09-06T08:32:41.990Z</time>
      </trkpt>
      <trkpt lat="44.43308" lon="2.52977">
        <ele>538</ele>
        <time>2015-09-06T08:32:45.990Z</time>
      </trkpt>
      <trkpt lat="44.43296" lon="2.5298">
        <ele>538</ele>
        <time>2015-09-06T08:32:49.990Z</time>
      </trkpt>
      <trkpt lat="44.43286" lon="2.52983">
        <ele>538</ele>
        <time>2015-09-06T08:32:53.010Z</time>
      </trkpt>
      <trkpt lat="44.43273" lon="2.52984">
        <ele>538</ele>
        <time>2015-09-06T08:32:56.990Z</time>
      </trkpt>
      <trkpt lat="44.43262" lon="2.52983">
        <ele>538</ele>
        <time>2015-09-06T08:32:59.990Z</time>
      </trkpt>
      <trkpt lat="44.43251" lon="2.52984">
        <ele>538</ele>
        <time>2015-09-06T08:33:03.010Z</time>
      </trkpt>
      <trkpt lat="44.43241" lon="2.52987">
        <ele>538</ele>
        <time>2015-09-06T08:33:05.990Z</time>
      </trkpt>
      <trkpt lat="44.4323" lon="2.52989">
        <ele>538</ele>
        <time>2015-09-06T08:33:08.990Z</time>
      </trkpt>
      <trkpt lat="44.43218" lon="2.52991">
        <ele>538</ele>
        <time>2015-09-06T08:33:13.010Z</time>
      </trkpt>
      <trkpt lat="44.43208" lon="2.52993">
        <ele>538</ele>
        <time>2015-09-06T08:33:15.990Z</time>
      </trkpt>
      <trkpt lat="44.43196" lon="2.52996">
        <ele>539</ele>
        <time>2015-09-06T08:33:19.990Z</time>
      </trkpt>
      <trkpt lat="44.43185" lon="2.52998">
        <ele>539</ele>
        <time>2015-09-06T08:33:23.010Z</time>
      </trkpt>
      <trkpt lat="44.43175" lon="2.53">
        <ele>540</ele>
        <time>2015-09-06T08:33:25.990Z</time>
      </trkpt>
      <trkpt lat="44.43165" lon="2.52998">
        <ele>541</ele>
        <time>2015-09-06T08:33:28.990Z</time>
      </trkpt>
      <trkpt lat="44.43152" lon="2.53">
        <ele>540</ele>
        <time>2015-09-06T08:33:33.000Z</time>
      </trkpt>
      <trkpt lat="44.43142" lon="2.53">
        <ele>543</ele>
        <time>2015-09-06T08:33:35.990Z</time>
      </trkpt>
      <trkpt lat="44.4313" lon="2.53">
        <ele>540</ele>
        <time>2015-09-06T08:33:39.990Z</time>
      </trkpt>
      <trkpt lat="44.43117" lon="2.53002">
        <ele>543</ele>
        <time>2015-09-06T08:33:43.990Z</time>
      </trkpt>
      <trkpt lat="44.43106" lon="2.53004">
        <ele>543</ele>
        <time>2015-09-06T08:33:48.010Z</time>
      </trkpt>
      <trkpt lat="44.43094" lon="2.53008">
        <ele>543</ele>
        <time>2015-09-06T08:33:51.990Z</time>
      </trkpt>
      <trkpt lat="44.43082" lon="2.53011">
        <ele>543</ele>
        <time>2015-09-06T08:33:55.990Z</time>
      </trkpt>
      <trkpt lat="44.43071" lon="2.53013">
        <ele>544</ele>
        <time>2015-09-06T08:33:59.990Z</time>
      </trkpt>
      <trkpt lat="44.4306" lon="2.53016">
        <ele>545</ele>
        <time>2015-09-06T08:34:03.990Z</time>
      </trkpt>
      <trkpt lat="44.43048" lon="2.53018">
        <ele>545</ele>
        <time>2015-09-06T08:34:08.010Z</time>
      </trkpt>
      <trkpt lat="44.43037" lon="2.53019">
        <ele>545</ele>
        <time>2015-09-06T08:34:12.000Z</time>
      </trkpt>
      <trkpt lat="44.43026" lon="2.53021">
        <ele>546</ele>
        <time>2015-09-06T08:34:16.000Z</time>
      </trkpt>
      <trkpt lat="44.43013" lon="2.53024">
        <ele>546</ele>
        <time>2015-09-06T08:34:19.990Z</time>
      </trkpt>
      <trkpt lat="44.43001" lon="2.53026">
        <ele>546</ele>
        <time>2015-09-06T08:34:23.990Z</time>
      </trkpt>
      <trkpt lat="44.42991" lon="2.53028">
        <ele>547</ele>
        <time>2015-09-06T08:34:28.000Z</time>
      </trkpt>
      <trkpt lat="44.42982" lon="2.53033">
        <ele>547</ele>
        <time>2015-09-06T08:34:31.000Z</time>
      </trkpt>
      <trkpt lat="44.42971" lon="2.53043">
        <ele>548</ele>
        <time>2015-09-06T08:34:34.990Z</time>
      </trkpt>
      <trkpt lat="44.42959" lon="2.53049">
        <ele>548</ele>
        <time>2015-09-06T08:34:39.000Z</time>
      </trkpt>
      <trkpt lat="44.4295" lon="2.53055">
        <ele>548</ele>
        <time>2015-09-06T08:34:42.000Z</time>
      </trkpt>
      <trkpt lat="44.42938" lon="2.53059">
        <ele>549</ele>
        <time>2015-09-06T08:34:45.990Z</time>
      </trkpt>
      <trkpt lat="44.42926" lon="2.53065">
        <ele>549</ele>
        <time>2015-09-06T08:34:50.000Z</time>
      </trkpt>
      <trkpt lat="44.42916" lon="2.53071">
        <ele>550</ele>
        <time>2015-09-06T08:34:53.000Z</time>
      </trkpt>
      <trkpt lat="44.42905" lon="2.53079">
        <ele>550</ele>
        <time>2015-09-06T08:34:57.000Z</time>
      </trkpt>
      <trkpt lat="44.42896" lon="2.53086">
        <ele>554</ele>
        <time>2015-09-06T08:35:00.000Z</time>
      </trkpt>
      <trkpt lat="44.42886" lon="2.53089">
        <ele>554</ele>
        <time>2015-09-06T08:35:03.000Z</time>
      </trkpt>
      <trkpt lat="44.42876" lon="2.53094">
        <ele>554</ele>
        <time>2015-09-06T08:35:06.000Z</time>
      </trkpt>
      <trkpt lat="44.42866" lon="2.53096">
        <ele>554</ele>
        <time>2015-09-06T08:35:09.000Z</time>
      </trkpt>
      <trkpt lat="44.42854" lon="2.53101">
        <ele>554</ele>
        <time>2015-09-06T08:35:12.990Z</time>
      </trkpt>
      <trkpt lat="44.42845" lon="2.53109">
        <ele>554</ele>
        <time>2015-09-06T08:35:15.990Z</time>
      </trkpt>
      <trkpt lat="44.42834" lon="2.53117">
        <ele>555</ele>
        <time>2015-09-06T08:35:19.990Z</time>
      </trkpt>
      <trkpt lat="44.42824" lon="2.53121">
        <ele>555</ele>
        <time>2015-09-06T08:35:22.990Z</time>
      </trkpt>
      <trkpt lat="44.42814" lon="2.53126">
        <ele>555</ele>
        <time>2015-09-06T08:35:26.000Z</time>
      </trkpt>
      <trkpt lat="44.42804" lon="2.53132">
        <ele>556</ele>
        <time>2015-09-06T08:35:29.010Z</time>
      </trkpt>
      <trkpt lat="44.42793" lon="2.5314">
        <ele>556</ele>
        <time>2015-09-06T08:35:32.990Z</time>
      </trkpt>
      <trkpt lat="44.42781" lon="2.53149">
        <ele>556</ele>
        <time>2015-09-06T08:35:37.000Z</time>
      </trkpt>
      <trkpt lat="44.4277" lon="2.53145">
        <ele>556</ele>
        <time>2015-09-06T08:35:41.010Z</time>
      </trkpt>
      <trkpt lat="44.42759" lon="2.53142">
        <ele>556</ele>
        <time>2015-09-06T08:35:44.990Z</time>
      </trkpt>
      <trkpt lat="44.42748" lon="2.53137">
        <ele>555</ele>
        <time>2015-09-06T08:35:49.000Z</time>
      </trkpt>
      <trkpt lat="44.42736" lon="2.53133">
        <ele>554</ele>
        <time>2015-09-06T08:35:52.990Z</time>
      </trkpt>
      <trkpt lat="44.42726" lon="2.53133">
        <ele>554</ele>
        <time>2015-09-06T08:35:56.010Z</time>
      </trkpt>
      <trkpt lat="44.42715" lon="2.53136">
        <ele>554</ele>
        <time>2015-09-06T08:35:59.990Z</time>
      </trkpt>
      <trkpt lat="44.42703" lon="2.53141">
        <ele>553</ele>
        <time>2015-09-06T08:36:03.990Z</time>
      </trkpt>
      <trkpt lat="44.42692" lon="2.53138">
        <ele>553</ele>
        <time>2015-09-06T08:36:06.990Z</time>
      </trkpt>
      <trkpt lat="44.42682" lon="2.53131">
        <ele>553</ele>
        <time>2015-09-06T08:36:09.990Z</time>
      </trkpt>
      <trkpt lat="44.42672" lon="2.53121">
        <ele>552</ele>
        <time>2015-09-06T08:36:13.990Z</time>
      </trkpt>
      <trkpt lat="44.42664" lon="2.53111">
        <ele>545</ele>
        <time>2015-09-06T08:36:17.990Z</time>
      </trkpt>
      <trkpt lat="44.42652" lon="2.53107">
        <ele>544</ele>
        <time>2015-09-06T08:36:21.990Z</time>
      </trkpt>
      <trkpt lat="44.42641" lon="2.53108">
        <ele>543</ele>
        <time>2015-09-06T08:36:28.000Z</time>
      </trkpt>
      <trkpt lat="44.42627" lon="2.53112">
        <ele>541</ele>
        <time>2015-09-06T08:36:35.000Z</time>
      </trkpt>
      <trkpt lat="44.42615" lon="2.53116">
        <ele>539</ele>
        <time>2015-09-06T08:36:39.010Z</time>
      </trkpt>
      <trkpt lat="44.42603" lon="2.53119">
        <ele>538</ele>
        <time>2015-09-06T08:36:42.110Z</time>
      </trkpt>
      <trkpt lat="44.42593" lon="2.5312">
        <ele>537</ele>
        <time>2015-09-06T08:36:45.000Z</time>
      </trkpt>
      <trkpt lat="44.42582" lon="2.53124">
        <ele>530</ele>
        <time>2015-09-06T08:36:47.990Z</time>
      </trkpt>
      <trkpt lat="44.42572" lon="2.53127">
        <ele>531</ele>
        <time>2015-09-06T08:36:51.990Z</time>
      </trkpt>
      <trkpt lat="44.42562" lon="2.53139">
        <ele>532</ele>
        <time>2015-09-06T08:36:56.010Z</time>
      </trkpt>
      <trkpt lat="44.42553" lon="2.53146">
        <ele>532</ele>
        <time>2015-09-06T08:36:59.990Z</time>
      </trkpt>
      <trkpt lat="44.42543" lon="2.53151">
        <ele>532</ele>
        <time>2015-09-06T08:37:02.990Z</time>
      </trkpt>
      <trkpt lat="44.42532" lon="2.53153">
        <ele>532</ele>
        <time>2015-09-06T08:37:06.990Z</time>
      </trkpt>
      <trkpt lat="44.42517" lon="2.53146">
        <ele>532</ele>
        <time>2015-09-06T08:37:12.000Z</time>
      </trkpt>
      <trkpt lat="44.4251" lon="2.53136">
        <ele>531</ele>
        <time>2015-09-06T08:37:15.000Z</time>
      </trkpt>
      <trkpt lat="44.42503" lon="2.53125">
        <ele>529</ele>
        <time>2015-09-06T08:37:19.000Z</time>
      </trkpt>
      <trkpt lat="44.42495" lon="2.53118">
        <ele>528</ele>
        <time>2015-09-06T08:37:23.000Z</time>
      </trkpt>
      <trkpt lat="44.42483" lon="2.5311">
        <ele>528</ele>
        <time>2015-09-06T08:37:27.000Z</time>
      </trkpt>
      <trkpt lat="44.42472" lon="2.53107">
        <ele>528</ele>
        <time>2015-09-06T08:37:30.000Z</time>
      </trkpt>
      <trkpt lat="44.42464" lon="2.53101">
        <ele>528</ele>
        <time>2015-09-06T08:37:34.000Z</time>
      </trkpt>
      <trkpt lat="44.42447" lon="2.53095">
        <ele>528</ele>
        <time>2015-09-06T08:37:40.000Z</time>
      </trkpt>
      <trkpt lat="44.42438" lon="2.53086">
        <ele>527</ele>
        <time>2015-09-06T08:37:45.000Z</time>
      </trkpt>
      <trkpt lat="44.42428" lon="2.53082">
        <ele>525</ele>
        <time>2015-09-06T08:37:48.000Z</time>
      </trkpt>
      <trkpt lat="44.42417" lon="2.53078">
        <ele>525</ele>
        <time>2015-09-06T08:37:51.000Z</time>
      </trkpt>
      <trkpt lat="44.42409" lon="2.53067">
        <ele>524</ele>
        <time>2015-09-06T08:38:10.000Z</time>
      </trkpt>
      <trkpt lat="44.42399" lon="2.53068">
        <ele>524</ele>
        <time>2015-09-06T08:38:23.000Z</time>
      </trkpt>
      <trkpt lat="44.42389" lon="2.53063">
        <ele>524</ele>
        <time>2015-09-06T08:38:38.000Z</time>
      </trkpt>
      <trkpt lat="44.42377" lon="2.53062">
        <ele>523</ele>
        <time>2015-09-06T08:38:42.000Z</time>
      </trkpt>
      <trkpt lat="44.42367" lon="2.53063">
        <ele>522</ele>
        <time>2015-09-06T08:38:45.000Z</time>
      </trkpt>
      <trkpt lat="44.42354" lon="2.53052">
        <ele>522</ele>
        <time>2015-09-06T08:38:52.000Z</time>
      </trkpt>
      <trkpt lat="44.42348" lon="2.5304">
        <ele>522</ele>
        <time>2015-09-06T08:38:55.000Z</time>
      </trkpt>
      <trkpt lat="44.42344" lon="2.53026">
        <ele>522</ele>
        <time>2015-09-06T08:38:58.990Z</time>
      </trkpt>
      <trkpt lat="44.42341" lon="2.53012">
        <ele>521</ele>
        <time>2015-09-06T08:39:01.990Z</time>
      </trkpt>
      <trkpt lat="44.4234" lon="2.52994">
        <ele>522</ele>
        <time>2015-09-06T08:39:06.000Z</time>
      </trkpt>
      <trkpt lat="44.42337" lon="2.52979">
        <ele>524</ele>
        <time>2015-09-06T08:39:10.000Z</time>
      </trkpt>
      <trkpt lat="44.42346" lon="2.5297">
        <ele>526</ele>
        <time>2015-09-06T08:39:23.000Z</time>
      </trkpt>
      <trkpt lat="44.42347" lon="2.52954">
        <ele>527</ele>
        <time>2015-09-06T08:39:28.990Z</time>
      </trkpt>
      <trkpt lat="44.42352" lon="2.5294">
        <ele>527</ele>
        <time>2015-09-06T08:39:35.000Z</time>
      </trkpt>
      <trkpt lat="44.42356" lon="2.52925">
        <ele>527</ele>
        <time>2015-09-06T08:39:41.000Z</time>
      </trkpt>
      <trkpt lat="44.42362" lon="2.52913">
        <ele>531</ele>
        <time>2015-09-06T08:39:44.990Z</time>
      </trkpt>
      <trkpt lat="44.42362" lon="2.52897">
        <ele>531</ele>
        <time>2015-09-06T08:39:50.000Z</time>
      </trkpt>
      <trkpt lat="44.42364" lon="2.52881">
        <ele>532</ele>
        <time>2015-09-06T08:39:58.000Z</time>
      </trkpt>
      <trkpt lat="44.4237" lon="2.52868">
        <ele>533</ele>
        <time>2015-09-06T08:40:05.000Z</time>
      </trkpt>
      <trkpt lat="44.42373" lon="2.52854">
        <ele>533</ele>
        <time>2015-09-06T08:40:11.990Z</time>
      </trkpt>
      <trkpt lat="44.42373" lon="2.5284">
        <ele>533</ele>
        <time>2015-09-06T08:40:18.000Z</time>
      </trkpt>
      <trkpt lat="44.42368" lon="2.52826">
        <ele>533</ele>
        <time>2015-09-06T08:40:24.000Z</time>
      </trkpt>
      <trkpt lat="44.42365" lon="2.52811">
        <ele>533</ele>
        <time>2015-09-06T08:40:29.000Z</time>
      </trkpt>
      <trkpt lat="44.42372" lon="2.52799">
        <ele>535</ele>
        <time>2015-09-06T08:40:32.990Z</time>
      </trkpt>
      <trkpt lat="44.42371" lon="2.52782">
        <ele>535</ele>
        <time>2015-09-06T08:40:37.000Z</time>
      </trkpt>
      <trkpt lat="44.42376" lon="2.52762">
        <ele>536</ele>
        <time>2015-09-06T08:40:45.000Z</time>
      </trkpt>
      <trkpt lat="44.42375" lon="2.52749">
        <ele>536</ele>
        <time>2015-09-06T08:40:49.990Z</time>
      </trkpt>
      <trkpt lat="44.42375" lon="2.52729">
        <ele>535</ele>
        <time>2015-09-06T08:40:55.000Z</time>
      </trkpt>
      <trkpt lat="44.4238" lon="2.52714">
        <ele>536</ele>
        <time>2015-09-06T08:41:00.000Z</time>
      </trkpt>
      <trkpt lat="44.42384" lon="2.52699">
        <ele>536</ele>
        <time>2015-09-06T08:41:06.990Z</time>
      </trkpt>
      <trkpt lat="44.42389" lon="2.52685">
        <ele>537</ele>
        <time>2015-09-06T08:41:13.990Z</time>
      </trkpt>
      <trkpt lat="44.42394" lon="2.52669">
        <ele>539</ele>
        <time>2015-09-06T08:41:19.990Z</time>
      </trkpt>
      <trkpt lat="44.42399" lon="2.52657">
        <ele>539</ele>
        <time>2015-09-06T08:41:24.990Z</time>
      </trkpt>
      <trkpt lat="44.42399" lon="2.52639">
        <ele>537</ele>
        <time>2015-09-06T08:41:29.990Z</time>
      </trkpt>
      <trkpt lat="44.424" lon="2.52625">
        <ele>536</ele>
        <time>2015-09-06T08:41:32.990Z</time>
      </trkpt>
      <trkpt lat="44.42402" lon="2.52612">
        <ele>537</ele>
        <time>2015-09-06T08:41:36.010Z</time>
      </trkpt>
      <trkpt lat="44.42406" lon="2.52597">
        <ele>538</ele>
        <time>2015-09-06T08:41:39.990Z</time>
      </trkpt>
      <trkpt lat="44.42409" lon="2.52581">
        <ele>538</ele>
        <time>2015-09-06T08:41:44.000Z</time>
      </trkpt>
      <trkpt lat="44.42411" lon="2.52563">
        <ele>536</ele>
        <time>2015-09-06T08:41:47.990Z</time>
      </trkpt>
      <trkpt lat="44.42414" lon="2.52549">
        <ele>535</ele>
        <time>2015-09-06T08:41:51.990Z</time>
      </trkpt>
      <trkpt lat="44.42413" lon="2.52533">
        <ele>535</ele>
        <time>2015-09-06T08:41:54.990Z</time>
      </trkpt>
      <trkpt lat="44.42413" lon="2.52519">
        <ele>536</ele>
        <time>2015-09-06T08:41:57.990Z</time>
      </trkpt>
      <trkpt lat="44.42416" lon="2.52502">
        <ele>539</ele>
        <time>2015-09-06T08:42:01.990Z</time>
      </trkpt>
      <trkpt lat="44.4242" lon="2.52487">
        <ele>541</ele>
        <time>2015-09-06T08:42:06.000Z</time>
      </trkpt>
      <trkpt lat="44.42426" lon="2.52474">
        <ele>543</ele>
        <time>2015-09-06T08:42:11.000Z</time>
      </trkpt>
      <trkpt lat="44.42432" lon="2.52459">
        <ele>543</ele>
        <time>2015-09-06T08:42:16.990Z</time>
      </trkpt>
      <trkpt lat="44.42435" lon="2.52444">
        <ele>543</ele>
        <time>2015-09-06T08:42:21.990Z</time>
      </trkpt>
      <trkpt lat="44.42442" lon="2.52431">
        <ele>543</ele>
        <time>2015-09-06T08:42:29.000Z</time>
      </trkpt>
      <trkpt lat="44.42445" lon="2.52416">
        <ele>542</ele>
        <time>2015-09-06T08:42:34.990Z</time>
      </trkpt>
      <trkpt lat="44.42453" lon="2.52401">
        <ele>543</ele>
        <time>2015-09-06T08:42:39.990Z</time>
      </trkpt>
      <trkpt lat="44.42458" lon="2.5239">
        <ele>544</ele>
        <time>2015-09-06T08:42:44.000Z</time>
      </trkpt>
      <trkpt lat="44.42463" lon="2.52373">
        <ele>544</ele>
        <time>2015-09-06T08:42:47.990Z</time>
      </trkpt>
      <trkpt lat="44.42466" lon="2.52358">
        <ele>544</ele>
        <time>2015-09-06T08:42:52.000Z</time>
      </trkpt>
      <trkpt lat="44.42467" lon="2.52343">
        <ele>544</ele>
        <time>2015-09-06T08:42:58.000Z</time>
      </trkpt>
      <trkpt lat="44.42469" lon="2.52329">
        <ele>543</ele>
        <time>2015-09-06T08:43:06.000Z</time>
      </trkpt>
      <trkpt lat="44.42474" lon="2.52312">
        <ele>543</ele>
        <time>2015-09-06T08:43:10.990Z</time>
      </trkpt>
      <trkpt lat="44.42478" lon="2.52298">
        <ele>543</ele>
        <time>2015-09-06T08:43:15.990Z</time>
      </trkpt>
      <trkpt lat="44.42479" lon="2.52281">
        <ele>543</ele>
        <time>2015-09-06T08:43:19.990Z</time>
      </trkpt>
      <trkpt lat="44.42482" lon="2.52267">
        <ele>543</ele>
        <time>2015-09-06T08:43:24.010Z</time>
      </trkpt>
      <trkpt lat="44.42487" lon="2.52253">
        <ele>544</ele>
        <time>2015-09-06T08:43:29.000Z</time>
      </trkpt>
      <trkpt lat="44.42491" lon="2.52239">
        <ele>544</ele>
        <time>2015-09-06T08:43:34.010Z</time>
      </trkpt>
      <trkpt lat="44.42494" lon="2.52224">
        <ele>543</ele>
        <time>2015-09-06T08:43:37.990Z</time>
      </trkpt>
      <trkpt lat="44.42498" lon="2.52212">
        <ele>542</ele>
        <time>2015-09-06T08:43:41.990Z</time>
      </trkpt>
      <trkpt lat="44.425" lon="2.522">
        <ele>542</ele>
        <time>2015-09-06T08:43:44.990Z</time>
      </trkpt>
      <trkpt lat="44.42504" lon="2.52186">
        <ele>544</ele>
        <time>2015-09-06T08:43:49.990Z</time>
      </trkpt>
      <trkpt lat="44.42507" lon="2.52171">
        <ele>544</ele>
        <time>2015-09-06T08:43:54.000Z</time>
      </trkpt>
      <trkpt lat="44.4251" lon="2.52155">
        <ele>544</ele>
        <time>2015-09-06T08:43:58.000Z</time>
      </trkpt>
      <trkpt lat="44.4251" lon="2.5214">
        <ele>544</ele>
        <time>2015-09-06T08:44:02.990Z</time>
      </trkpt>
      <trkpt lat="44.42513" lon="2.52123">
        <ele>544</ele>
        <time>2015-09-06T08:44:09.000Z</time>
      </trkpt>
      <trkpt lat="44.42517" lon="2.52109">
        <ele>544</ele>
        <time>2015-09-06T08:44:15.990Z</time>
      </trkpt>
      <trkpt lat="44.42522" lon="2.52096">
        <ele>544</ele>
        <time>2015-09-06T08:44:22.990Z</time>
      </trkpt>
      <trkpt lat="44.42529" lon="2.52084">
        <ele>544</ele>
        <time>2015-09-06T08:44:27.990Z</time>
      </trkpt>
      <trkpt lat="44.42533" lon="2.52071">
        <ele>544</ele>
        <time>2015-09-06T08:44:33.000Z</time>
      </trkpt>
      <trkpt lat="44.42533" lon="2.52055">
        <ele>544</ele>
        <time>2015-09-06T08:44:38.000Z</time>
      </trkpt>
      <trkpt lat="44.42534" lon="2.52041">
        <ele>544</ele>
        <time>2015-09-06T08:44:43.000Z</time>
      </trkpt>
      <trkpt lat="44.42534" lon="2.52025">
        <ele>544</ele>
        <time>2015-09-06T08:44:48.000Z</time>
      </trkpt>
      <trkpt lat="44.42531" lon="2.52009">
        <ele>544</ele>
        <time>2015-09-06T08:44:53.990Z</time>
      </trkpt>
      <trkpt lat="44.42526" lon="2.51996">
        <ele>544</ele>
        <time>2015-09-06T08:44:58.000Z</time>
      </trkpt>
      <trkpt lat="44.42529" lon="2.51982">
        <ele>544</ele>
        <time>2015-09-06T08:45:15.990Z</time>
      </trkpt>
      <trkpt lat="44.42538" lon="2.51973">
        <ele>544</ele>
        <time>2015-09-06T08:45:22.000Z</time>
      </trkpt>
      <trkpt lat="44.42549" lon="2.51977">
        <ele>544</ele>
        <time>2015-09-06T08:45:27.000Z</time>
      </trkpt>
      <trkpt lat="44.42561" lon="2.5198">
        <ele>544</ele>
        <time>2015-09-06T08:45:31.000Z</time>
      </trkpt>
      <trkpt lat="44.42568" lon="2.51962">
        <ele>544</ele>
        <time>2015-09-06T08:45:37.000Z</time>
      </trkpt>
      <trkpt lat="44.42574" lon="2.51947">
        <ele>544</ele>
        <time>2015-09-06T08:45:41.990Z</time>
      </trkpt>
      <trkpt lat="44.42582" lon="2.51937">
        <ele>544</ele>
        <time>2015-09-06T08:45:46.990Z</time>
      </trkpt>
      <trkpt lat="44.42594" lon="2.51931">
        <ele>542</ele>
        <time>2015-09-06T08:45:52.000Z</time>
      </trkpt>
      <trkpt lat="44.42605" lon="2.51929">
        <ele>542</ele>
        <time>2015-09-06T08:45:55.000Z</time>
      </trkpt>
      <trkpt lat="44.42624" lon="2.51925">
        <ele>541</ele>
        <time>2015-09-06T08:46:01.000Z</time>
      </trkpt>
      <trkpt lat="44.42634" lon="2.51919">
        <ele>541</ele>
        <time>2015-09-06T08:46:05.000Z</time>
      </trkpt>
      <trkpt lat="44.42646" lon="2.51917">
        <ele>542</ele>
        <time>2015-09-06T08:46:09.000Z</time>
      </trkpt>
      <trkpt lat="44.42657" lon="2.51918">
        <ele>540</ele>
        <time>2015-09-06T08:46:12.000Z</time>
      </trkpt>
      <trkpt lat="44.42669" lon="2.51916">
        <ele>539</ele>
        <time>2015-09-06T08:46:16.000Z</time>
      </trkpt>
      <trkpt lat="44.42676" lon="2.51905">
        <ele>536</ele>
        <time>2015-09-06T08:46:20.000Z</time>
      </trkpt>
      <trkpt lat="44.4268" lon="2.51889">
        <ele>535</ele>
        <time>2015-09-06T08:46:25.000Z</time>
      </trkpt>
      <trkpt lat="44.42687" lon="2.51876">
        <ele>534</ele>
        <time>2015-09-06T08:46:28.000Z</time>
      </trkpt>
      <trkpt lat="44.42695" lon="2.51865">
        <ele>533</ele>
        <time>2015-09-06T08:46:30.990Z</time>
      </trkpt>
      <trkpt lat="44.427" lon="2.51853">
        <ele>533</ele>
        <time>2015-09-06T08:46:34.000Z</time>
      </trkpt>
      <trkpt lat="44.42708" lon="2.51842">
        <ele>533</ele>
        <time>2015-09-06T08:46:37.000Z</time>
      </trkpt>
      <trkpt lat="44.42718" lon="2.51834">
        <ele>531</ele>
        <time>2015-09-06T08:46:40.000Z</time>
      </trkpt>
      <trkpt lat="44.42727" lon="2.5183">
        <ele>533</ele>
        <time>2015-09-06T08:46:43.000Z</time>
      </trkpt>
      <trkpt lat="44.4274" lon="2.51826">
        <ele>531</ele>
        <time>2015-09-06T08:46:47.000Z</time>
      </trkpt>
      <trkpt lat="44.42745" lon="2.51813">
        <ele>532</ele>
        <time>2015-09-06T08:46:51.000Z</time>
      </trkpt>
      <trkpt lat="44.42747" lon="2.51799">
        <ele>534</ele>
        <time>2015-09-06T08:46:53.990Z</time>
      </trkpt>
      <trkpt lat="44.42754" lon="2.51782">
        <ele>520</ele>
        <time>2015-09-06T08:47:00.000Z</time>
      </trkpt>
      <trkpt lat="44.42762" lon="2.5177">
        <ele>521</ele>
        <time>2015-09-06T08:47:04.000Z</time>
      </trkpt>
      <trkpt lat="44.4277" lon="2.51759">
        <ele>521</ele>
        <time>2015-09-06T08:47:08.000Z</time>
      </trkpt>
      <trkpt lat="44.42778" lon="2.51743">
        <ele>524</ele>
        <time>2015-09-06T08:47:14.000Z</time>
      </trkpt>
      <trkpt lat="44.42786" lon="2.51734">
        <ele>522</ele>
        <time>2015-09-06T08:47:18.000Z</time>
      </trkpt>
      <trkpt lat="44.42793" lon="2.51721">
        <ele>521</ele>
        <time>2015-09-06T08:47:23.000Z</time>
      </trkpt>
      <trkpt lat="44.42796" lon="2.51707">
        <ele>521</ele>
        <time>2015-09-06T08:47:26.010Z</time>
      </trkpt>
      <trkpt lat="44.42801" lon="2.51695">
        <ele>521</ele>
        <time>2015-09-06T08:47:29.000Z</time>
      </trkpt>
      <trkpt lat="44.42805" lon="2.51682">
        <ele>520</ele>
        <time>2015-09-06T08:47:33.000Z</time>
      </trkpt>
      <trkpt lat="44.42811" lon="2.51664">
        <ele>521</ele>
        <time>2015-09-06T08:47:38.000Z</time>
      </trkpt>
      <trkpt lat="44.42813" lon="2.51648">
        <ele>522</ele>
        <time>2015-09-06T08:47:41.000Z</time>
      </trkpt>
      <trkpt lat="44.42817" lon="2.51633">
        <ele>523</ele>
        <time>2015-09-06T08:47:45.000Z</time>
      </trkpt>
      <trkpt lat="44.42824" lon="2.51619">
        <ele>522</ele>
        <time>2015-09-06T08:47:49.000Z</time>
      </trkpt>
      <trkpt lat="44.42828" lon="2.51605">
        <ele>521</ele>
        <time>2015-09-06T08:47:53.000Z</time>
      </trkpt>
      <trkpt lat="44.42827" lon="2.51587">
        <ele>518</ele>
        <time>2015-09-06T08:47:58.000Z</time>
      </trkpt>
      <trkpt lat="44.42837" lon="2.51578">
        <ele>510</ele>
        <time>2015-09-06T08:48:00.000Z</time>
      </trkpt>
      <trkpt lat="44.42845" lon="2.51564">
        <ele>502</ele>
        <time>2015-09-06T08:48:03.000Z</time>
      </trkpt>
      <trkpt lat="44.42855" lon="2.51557">
        <ele>498</ele>
        <time>2015-09-06T08:48:06.000Z</time>
      </trkpt>
      <trkpt lat="44.42862" lon="2.51568">
        <ele>497</ele>
        <time>2015-09-06T08:48:09.990Z</time>
      </trkpt>
      <trkpt lat="44.42873" lon="2.51562">
        <ele>493</ele>
        <time>2015-09-06T08:48:15.000Z</time>
      </trkpt>
      <trkpt lat="44.42882" lon="2.51549">
        <ele>491</ele>
        <time>2015-09-06T08:48:18.000Z</time>
      </trkpt>
      <trkpt lat="44.42891" lon="2.51536">
        <ele>489</ele>
        <time>2015-09-06T08:48:19.990Z</time>
      </trkpt>
      <trkpt lat="44.42899" lon="2.5152">
        <ele>486</ele>
        <time>2015-09-06T08:48:22.990Z</time>
      </trkpt>
      <trkpt lat="44.42908" lon="2.51506">
        <ele>480</ele>
        <time>2015-09-06T08:48:25.990Z</time>
      </trkpt>
      <trkpt lat="44.42914" lon="2.51495">
        <ele>477</ele>
        <time>2015-09-06T08:48:29.000Z</time>
      </trkpt>
      <trkpt lat="44.42915" lon="2.51479">
        <ele>484</ele>
        <time>2015-09-06T08:48:33.990Z</time>
      </trkpt>
      <trkpt lat="44.42917" lon="2.51465">
        <ele>470</ele>
        <time>2015-09-06T08:48:39.000Z</time>
      </trkpt>
      <trkpt lat="44.42919" lon="2.51451">
        <ele>470</ele>
        <time>2015-09-06T08:48:42.990Z</time>
      </trkpt>
      <trkpt lat="44.42918" lon="2.51436">
        <ele>472</ele>
        <time>2015-09-06T08:48:48.000Z</time>
      </trkpt>
      <trkpt lat="44.4292" lon="2.51423">
        <ele>475</ele>
        <time>2015-09-06T08:48:50.990Z</time>
      </trkpt>
      <trkpt lat="44.42925" lon="2.51402">
        <ele>476</ele>
        <time>2015-09-06T08:48:57.000Z</time>
      </trkpt>
      <trkpt lat="44.42934" lon="2.51391">
        <ele>475</ele>
        <time>2015-09-06T08:49:00.000Z</time>
      </trkpt>
      <trkpt lat="44.42937" lon="2.51377">
        <ele>475</ele>
        <time>2015-09-06T08:49:03.000Z</time>
      </trkpt>
      <trkpt lat="44.4294" lon="2.51361">
        <ele>475</ele>
        <time>2015-09-06T08:49:05.990Z</time>
      </trkpt>
      <trkpt lat="44.42942" lon="2.51344">
        <ele>476</ele>
        <time>2015-09-06T08:49:09.990Z</time>
      </trkpt>
      <trkpt lat="44.42949" lon="2.51328">
        <ele>478</ele>
        <time>2015-09-06T08:49:13.990Z</time>
      </trkpt>
      <trkpt lat="44.42951" lon="2.51311">
        <ele>478</ele>
        <time>2015-09-06T08:49:18.000Z</time>
      </trkpt>
      <trkpt lat="44.42959" lon="2.51296">
        <ele>478</ele>
        <time>2015-09-06T08:49:21.990Z</time>
      </trkpt>
      <trkpt lat="44.42967" lon="2.51288">
        <ele>478</ele>
        <time>2015-09-06T08:49:24.990Z</time>
      </trkpt>
      <trkpt lat="44.42977" lon="2.51279">
        <ele>477</ele>
        <time>2015-09-06T08:49:28.990Z</time>
      </trkpt>
      <trkpt lat="44.42987" lon="2.51271">
        <ele>476</ele>
        <time>2015-09-06T08:49:33.000Z</time>
      </trkpt>
      <trkpt lat="44.42995" lon="2.51262">
        <ele>474</ele>
        <time>2015-09-06T08:49:36.000Z</time>
      </trkpt>
      <trkpt lat="44.42999" lon="2.51247">
        <ele>474</ele>
        <time>2015-09-06T08:49:39.000Z</time>
      </trkpt>
      <trkpt lat="44.43" lon="2.51229">
        <ele>468</ele>
        <time>2015-09-06T08:49:42.310Z</time>
      </trkpt>
      <trkpt lat="44.42997" lon="2.51216">
        <ele>481</ele>
        <time>2015-09-06T08:49:45.000Z</time>
      </trkpt>
      <trkpt lat="44.4299" lon="2.51203">
        <ele>482</ele>
        <time>2015-09-06T08:49:50.000Z</time>
      </trkpt>
      <trkpt lat="44.4298" lon="2.5119">
        <ele>483</ele>
        <time>2015-09-06T08:49:54.000Z</time>
      </trkpt>
      <trkpt lat="44.42986" lon="2.51167">
        <ele>480</ele>
        <time>2015-09-06T08:50:00.000Z</time>
      </trkpt>
      <trkpt lat="44.42996" lon="2.51163">
        <ele>479</ele>
        <time>2015-09-06T08:50:04.000Z</time>
      </trkpt>
      <trkpt lat="44.43004" lon="2.51154">
        <ele>472</ele>
        <time>2015-09-06T08:50:08.000Z</time>
      </trkpt>
      <trkpt lat="44.43008" lon="2.51139">
        <ele>472</ele>
        <time>2015-09-06T08:50:10.990Z</time>
      </trkpt>
      <trkpt lat="44.43014" lon="2.51125">
        <ele>473</ele>
        <time>2015-09-06T08:50:15.000Z</time>
      </trkpt>
      <trkpt lat="44.43023" lon="2.51119">
        <ele>473</ele>
        <time>2015-09-06T08:50:18.000Z</time>
      </trkpt>
      <trkpt lat="44.43033" lon="2.51119">
        <ele>471</ele>
        <time>2015-09-06T08:50:21.000Z</time>
      </trkpt>
      <trkpt lat="44.43045" lon="2.51115">
        <ele>470</ele>
        <time>2015-09-06T08:50:23.990Z</time>
      </trkpt>
      <trkpt lat="44.43037" lon="2.51107">
        <ele>471</ele>
        <time>2015-09-06T08:50:37.000Z</time>
      </trkpt>
      <trkpt lat="44.43028" lon="2.51091">
        <ele>475</ele>
        <time>2015-09-06T08:50:44.100Z</time>
      </trkpt>
      <trkpt lat="44.43016" lon="2.51088">
        <ele>478</ele>
        <time>2015-09-06T08:51:03.000Z</time>
      </trkpt>
      <trkpt lat="44.43025" lon="2.51082">
        <ele>482</ele>
        <time>2015-09-06T08:51:23.000Z</time>
      </trkpt>
      <trkpt lat="44.43034" lon="2.51075">
        <ele>480</ele>
        <time>2015-09-06T08:51:37.000Z</time>
      </trkpt>
      <trkpt lat="44.43037" lon="2.51061">
        <ele>481</ele>
        <time>2015-09-06T08:51:53.000Z</time>
      </trkpt>
      <trkpt lat="44.43042" lon="2.51048">
        <ele>481</ele>
        <time>2015-09-06T08:51:59.000Z</time>
      </trkpt>
      <trkpt lat="44.43043" lon="2.51033">
        <ele>482</ele>
        <time>2015-09-06T08:52:09.000Z</time>
      </trkpt>
      <trkpt lat="44.43044" lon="2.51017">
        <ele>483</ele>
        <time>2015-09-06T08:52:17.000Z</time>
      </trkpt>
      <trkpt lat="44.43039" lon="2.51003">
        <ele>484</ele>
        <time>2015-09-06T08:52:24.990Z</time>
      </trkpt>
      <trkpt lat="44.43037" lon="2.50987">
        <ele>494</ele>
        <time>2015-09-06T08:52:32.000Z</time>
      </trkpt>
      <trkpt lat="44.43038" lon="2.50972">
        <ele>494</ele>
        <time>2015-09-06T08:52:41.000Z</time>
      </trkpt>
      <trkpt lat="44.43031" lon="2.50959">
        <ele>496</ele>
        <time>2015-09-06T08:52:46.990Z</time>
      </trkpt>
      <trkpt lat="44.43028" lon="2.50941">
        <ele>499</ele>
        <time>2015-09-06T08:52:54.000Z</time>
      </trkpt>
      <trkpt lat="44.43025" lon="2.50926">
        <ele>501</ele>
        <time>2015-09-06T08:53:01.000Z</time>
      </trkpt>
      <trkpt lat="44.43023" lon="2.50909">
        <ele>509</ele>
        <time>2015-09-06T08:53:06.990Z</time>
      </trkpt>
      <trkpt lat="44.43027" lon="2.50895">
        <ele>508</ele>
        <time>2015-09-06T08:53:16.000Z</time>
      </trkpt>
      <trkpt lat="44.43029" lon="2.50881">
        <ele>509</ele>
        <time>2015-09-06T08:53:26.000Z</time>
      </trkpt>
      <trkpt lat="44.43031" lon="2.50866">
        <ele>510</ele>
        <time>2015-09-06T08:53:38.990Z</time>
      </trkpt>
      <trkpt lat="44.43025" lon="2.50851">
        <ele>512</ele>
        <time>2015-09-06T08:53:45.000Z</time>
      </trkpt>
      <trkpt lat="44.43022" lon="2.50837">
        <ele>515</ele>
        <time>2015-09-06T08:53:51.000Z</time>
      </trkpt>
      <trkpt lat="44.43013" lon="2.50829">
        <ele>521</ele>
        <time>2015-09-06T08:53:56.000Z</time>
      </trkpt>
      <trkpt lat="44.43009" lon="2.5081">
        <ele>519</ele>
        <time>2015-09-06T08:54:03.000Z</time>
      </trkpt>
      <trkpt lat="44.43006" lon="2.50795">
        <ele>519</ele>
        <time>2015-09-06T08:54:07.000Z</time>
      </trkpt>
      <trkpt lat="44.43004" lon="2.50781">
        <ele>520</ele>
        <time>2015-09-06T08:54:13.000Z</time>
      </trkpt>
      <trkpt lat="44.43006" lon="2.50765">
        <ele>522</ele>
        <time>2015-09-06T08:54:19.000Z</time>
      </trkpt>
      <trkpt lat="44.43009" lon="2.50751">
        <ele>525</ele>
        <time>2015-09-06T08:54:27.000Z</time>
      </trkpt>
      <trkpt lat="44.43011" lon="2.50738">
        <ele>524</ele>
        <time>2015-09-06T08:54:33.000Z</time>
      </trkpt>
      <trkpt lat="44.43008" lon="2.50722">
        <ele>524</ele>
        <time>2015-09-06T08:54:37.990Z</time>
      </trkpt>
      <trkpt lat="44.43011" lon="2.50707">
        <ele>523</ele>
        <time>2015-09-06T08:54:43.000Z</time>
      </trkpt>
      <trkpt lat="44.43011" lon="2.50693">
        <ele>525</ele>
        <time>2015-09-06T08:54:48.000Z</time>
      </trkpt>
      <trkpt lat="44.4302" lon="2.50682">
        <ele>525</ele>
        <time>2015-09-06T08:54:53.000Z</time>
      </trkpt>
      <trkpt lat="44.43032" lon="2.50672">
        <ele>523</ele>
        <time>2015-09-06T08:54:57.000Z</time>
      </trkpt>
      <trkpt lat="44.43043" lon="2.50661">
        <ele>523</ele>
        <time>2015-09-06T08:55:03.000Z</time>
      </trkpt>
      <trkpt lat="44.43052" lon="2.50649">
        <ele>522</ele>
        <time>2015-09-06T08:55:08.000Z</time>
      </trkpt>
      <trkpt lat="44.43058" lon="2.5063">
        <ele>522</ele>
        <time>2015-09-06T08:55:15.000Z</time>
      </trkpt>
      <trkpt lat="44.43063" lon="2.50615">
        <ele>521</ele>
        <time>2015-09-06T08:55:19.990Z</time>
      </trkpt>
      <trkpt lat="44.43065" lon="2.50598">
        <ele>520</ele>
        <time>2015-09-06T08:55:25.000Z</time>
      </trkpt>
      <trkpt lat="44.43059" lon="2.50585">
        <ele>521</ele>
        <time>2015-09-06T08:55:29.010Z</time>
      </trkpt>
      <trkpt lat="44.43059" lon="2.50569">
        <ele>523</ele>
        <time>2015-09-06T08:55:32.990Z</time>
      </trkpt>
      <trkpt lat="44.43058" lon="2.50554">
        <ele>524</ele>
        <time>2015-09-06T08:55:39.000Z</time>
      </trkpt>
      <trkpt lat="44.43057" lon="2.50536">
        <ele>525</ele>
        <time>2015-09-06T08:55:44.000Z</time>
      </trkpt>
      <trkpt lat="44.43055" lon="2.50522">
        <ele>525</ele>
        <time>2015-09-06T08:55:47.000Z</time>
      </trkpt>
      <trkpt lat="44.43056" lon="2.50507">
        <ele>524</ele>
        <time>2015-09-06T08:55:50.000Z</time>
      </trkpt>
      <trkpt lat="44.43055" lon="2.50489">
        <ele>526</ele>
        <time>2015-09-06T08:55:54.110Z</time>
      </trkpt>
      <trkpt lat="44.43053" lon="2.50473">
        <ele>528</ele>
        <time>2015-09-06T08:55:58.000Z</time>
      </trkpt>
      <trkpt lat="44.43057" lon="2.50457">
        <ele>528</ele>
        <time>2015-09-06T08:56:02.000Z</time>
      </trkpt>
      <trkpt lat="44.43059" lon="2.50443">
        <ele>528</ele>
        <time>2015-09-06T08:56:06.990Z</time>
      </trkpt>
      <trkpt lat="44.43059" lon="2.50426">
        <ele>527</ele>
        <time>2015-09-06T08:56:11.000Z</time>
      </trkpt>
      <trkpt lat="44.43063" lon="2.50412">
        <ele>528</ele>
        <time>2015-09-06T08:56:16.000Z</time>
      </trkpt>
      <trkpt lat="44.43063" lon="2.50397">
        <ele>530</ele>
        <time>2015-09-06T08:56:20.990Z</time>
      </trkpt>
      <trkpt lat="44.43063" lon="2.50382">
        <ele>532</ele>
        <time>2015-09-06T08:56:25.990Z</time>
      </trkpt>
      <trkpt lat="44.43062" lon="2.50368">
        <ele>532</ele>
        <time>2015-09-06T08:56:31.000Z</time>
      </trkpt>
      <trkpt lat="44.43063" lon="2.50354">
        <ele>532</ele>
        <time>2015-09-06T08:56:36.990Z</time>
      </trkpt>
      <trkpt lat="44.43063" lon="2.50339">
        <ele>532</ele>
        <time>2015-09-06T08:56:42.000Z</time>
      </trkpt>
      <trkpt lat="44.4306" lon="2.50324">
        <ele>535</ele>
        <time>2015-09-06T08:56:50.000Z</time>
      </trkpt>
      <trkpt lat="44.4305" lon="2.50329">
        <ele>538</ele>
        <time>2015-09-06T08:56:59.000Z</time>
      </trkpt>
      <trkpt lat="44.43046" lon="2.50345">
        <ele>536</ele>
        <time>2015-09-06T08:57:04.000Z</time>
      </trkpt>
      <trkpt lat="44.43032" lon="2.50356">
        <ele>538</ele>
        <time>2015-09-06T08:57:11.000Z</time>
      </trkpt>
      <trkpt lat="44.43022" lon="2.50351">
        <ele>541</ele>
        <time>2015-09-06T08:57:14.000Z</time>
      </trkpt>
      <trkpt lat="44.43014" lon="2.50339">
        <ele>544</ele>
        <time>2015-09-06T08:57:18.000Z</time>
      </trkpt>
      <trkpt lat="44.43014" lon="2.50314">
        <ele>545</ele>
        <time>2015-09-06T08:57:24.000Z</time>
      </trkpt>
      <trkpt lat="44.4302" lon="2.50297">
        <ele>544</ele>
        <time>2015-09-06T08:57:28.000Z</time>
      </trkpt>
      <trkpt lat="44.43024" lon="2.50283">
        <ele>543</ele>
        <time>2015-09-06T08:57:32.000Z</time>
      </trkpt>
      <trkpt lat="44.4303" lon="2.50268">
        <ele>543</ele>
        <time>2015-09-06T08:57:36.000Z</time>
      </trkpt>
      <trkpt lat="44.43032" lon="2.50253">
        <ele>543</ele>
        <time>2015-09-06T08:57:41.000Z</time>
      </trkpt>
      <trkpt lat="44.4303" lon="2.50238">
        <ele>546</ele>
        <time>2015-09-06T08:57:45.000Z</time>
      </trkpt>
      <trkpt lat="44.43033" lon="2.50221">
        <ele>545</ele>
        <time>2015-09-06T08:57:49.000Z</time>
      </trkpt>
      <trkpt lat="44.43035" lon="2.50204">
        <ele>545</ele>
        <time>2015-09-06T08:57:53.000Z</time>
      </trkpt>
      <trkpt lat="44.4304" lon="2.5018">
        <ele>545</ele>
        <time>2015-09-06T08:58:00.000Z</time>
      </trkpt>
      <trkpt lat="44.43045" lon="2.50166">
        <ele>547</ele>
        <time>2015-09-06T08:58:04.000Z</time>
      </trkpt>
      <trkpt lat="44.4305" lon="2.50153">
        <ele>546</ele>
        <time>2015-09-06T08:58:08.000Z</time>
      </trkpt>
      <trkpt lat="44.43057" lon="2.50143">
        <ele>546</ele>
        <time>2015-09-06T08:58:12.000Z</time>
      </trkpt>
      <trkpt lat="44.43064" lon="2.5013">
        <ele>546</ele>
        <time>2015-09-06T08:58:17.000Z</time>
      </trkpt>
      <trkpt lat="44.43071" lon="2.50117">
        <ele>546</ele>
        <time>2015-09-06T08:58:23.000Z</time>
      </trkpt>
      <trkpt lat="44.43075" lon="2.50102">
        <ele>546</ele>
        <time>2015-09-06T08:58:28.000Z</time>
      </trkpt>
      <trkpt lat="44.43079" lon="2.50087">
        <ele>545</ele>
        <time>2015-09-06T08:58:33.000Z</time>
      </trkpt>
      <trkpt lat="44.43085" lon="2.50074">
        <ele>542</ele>
        <time>2015-09-06T08:58:37.000Z</time>
      </trkpt>
      <trkpt lat="44.43089" lon="2.50059">
        <ele>540</ele>
        <time>2015-09-06T08:58:41.000Z</time>
      </trkpt>
      <trkpt lat="44.43091" lon="2.50043">
        <ele>540</ele>
        <time>2015-09-06T08:58:46.000Z</time>
      </trkpt>
      <trkpt lat="44.43095" lon="2.50029">
        <ele>541</ele>
        <time>2015-09-06T08:58:52.000Z</time>
      </trkpt>
      <trkpt lat="44.43095" lon="2.50013">
        <ele>543</ele>
        <time>2015-09-06T08:58:59.000Z</time>
      </trkpt>
      <trkpt lat="44.43102" lon="2.50001">
        <ele>543</ele>
        <time>2015-09-06T08:59:04.000Z</time>
      </trkpt>
      <trkpt lat="44.43105" lon="2.49987">
        <ele>545</ele>
        <time>2015-09-06T08:59:10.990Z</time>
      </trkpt>
      <trkpt lat="44.4311" lon="2.49973">
        <ele>545</ele>
        <time>2015-09-06T08:59:17.990Z</time>
      </trkpt>
      <trkpt lat="44.43114" lon="2.49958">
        <ele>545</ele>
        <time>2015-09-06T08:59:28.000Z</time>
      </trkpt>
      <trkpt lat="44.43116" lon="2.49944">
        <ele>546</ele>
        <time>2015-09-06T08:59:36.000Z</time>
      </trkpt>
      <trkpt lat="44.43123" lon="2.49934">
        <ele>546</ele>
        <time>2015-09-06T08:59:47.990Z</time>
      </trkpt>
      <trkpt lat="44.43129" lon="2.49922">
        <ele>545</ele>
        <time>2015-09-06T08:59:58.990Z</time>
      </trkpt>
      <trkpt lat="44.43136" lon="2.49908">
        <ele>548</ele>
        <time>2015-09-06T09:00:10.000Z</time>
      </trkpt>
      <trkpt lat="44.43144" lon="2.49899">
        <ele>548</ele>
        <time>2015-09-06T09:00:19.000Z</time>
      </trkpt>
      <trkpt lat="44.43157" lon="2.49896">
        <ele>547</ele>
        <time>2015-09-06T09:00:33.000Z</time>
      </trkpt>
      <trkpt lat="44.43168" lon="2.49896">
        <ele>539</ele>
        <time>2015-09-06T09:00:41.990Z</time>
      </trkpt>
      <trkpt lat="44.43178" lon="2.49894">
        <ele>539</ele>
        <time>2015-09-06T09:00:50.000Z</time>
      </trkpt>
      <trkpt lat="44.43189" lon="2.49892">
        <ele>538</ele>
        <time>2015-09-06T09:00:59.000Z</time>
      </trkpt>
      <trkpt lat="44.43196" lon="2.49883">
        <ele>538</ele>
        <time>2015-09-06T09:01:07.990Z</time>
      </trkpt>
      <trkpt lat="44.43202" lon="2.49873">
        <ele>538</ele>
        <time>2015-09-06T09:01:18.000Z</time>
      </trkpt>
      <trkpt lat="44.43208" lon="2.49865">
        <ele>538</ele>
        <time>2015-09-06T09:01:26.000Z</time>
      </trkpt>
      <trkpt lat="44.43213" lon="2.49856">
        <ele>538</ele>
        <time>2015-09-06T09:01:35.000Z</time>
      </trkpt>
      <trkpt lat="44.43223" lon="2.49851">
        <ele>537</ele>
        <time>2015-09-06T09:02:05.000Z</time>
      </trkpt>
      <trkpt lat="44.43228" lon="2.4986">
        <ele>537</ele>
        <time>2015-09-06T09:02:09.000Z</time>
      </trkpt>
      <trkpt lat="44.43225" lon="2.49873">
        <ele>536</ele>
        <time>2015-09-06T09:02:12.000Z</time>
      </trkpt>
      <trkpt lat="44.43233" lon="2.49883">
        <ele>535</ele>
        <time>2015-09-06T09:02:15.990Z</time>
      </trkpt>
      <trkpt lat="44.43242" lon="2.4989">
        <ele>534</ele>
        <time>2015-09-06T09:02:25.990Z</time>
      </trkpt>
      <trkpt lat="44.43249" lon="2.49901">
        <ele>532</ele>
        <time>2015-09-06T09:05:00.000Z</time>
      </trkpt>
      <trkpt lat="44.43248" lon="2.49917">
        <ele>528</ele>
        <time>2015-09-06T09:05:07.000Z</time>
      </trkpt>
      <trkpt lat="44.43247" lon="2.49935">
        <ele>529</ele>
        <time>2015-09-06T09:05:10.990Z</time>
      </trkpt>
      <trkpt lat="44.43249" lon="2.49949">
        <ele>529</ele>
        <time>2015-09-06T09:05:14.990Z</time>
      </trkpt>
      <trkpt lat="44.43261" lon="2.49954">
        <ele>521</ele>
        <time>2015-09-06T09:05:20.000Z</time>
      </trkpt>
      <trkpt lat="44.43267" lon="2.49969">
        <ele>519</ele>
        <time>2015-09-06T09:05:23.990Z</time>
      </trkpt>
      <trkpt lat="44.43278" lon="2.49975">
        <ele>518</ele>
        <time>2015-09-06T09:05:31.000Z</time>
      </trkpt>
      <trkpt lat="44.43289" lon="2.49975">
        <ele>517</ele>
        <time>2015-09-06T09:05:34.000Z</time>
      </trkpt>
      <trkpt lat="44.43301" lon="2.49972">
        <ele>516</ele>
        <time>2015-09-06T09:05:39.000Z</time>
      </trkpt>
      <trkpt lat="44.43314" lon="2.49969">
        <ele>515</ele>
        <time>2015-09-06T09:05:43.000Z</time>
      </trkpt>
      <trkpt lat="44.43328" lon="2.4997">
        <ele>513</ele>
        <time>2015-09-06T09:05:47.000Z</time>
      </trkpt>
      <trkpt lat="44.43338" lon="2.49971">
        <ele>504</ele>
        <time>2015-09-06T09:05:50.000Z</time>
      </trkpt>
      <trkpt lat="44.43349" lon="2.49968">
        <ele>505</ele>
        <time>2015-09-06T09:05:54.000Z</time>
      </trkpt>
      <trkpt lat="44.43361" lon="2.49962">
        <ele>505</ele>
        <time>2015-09-06T09:06:00.000Z</time>
      </trkpt>
      <trkpt lat="44.43372" lon="2.49959">
        <ele>505</ele>
        <time>2015-09-06T09:06:03.000Z</time>
      </trkpt>
      <trkpt lat="44.43384" lon="2.49957">
        <ele>504</ele>
        <time>2015-09-06T09:06:07.000Z</time>
      </trkpt>
      <trkpt lat="44.43395" lon="2.49958">
        <ele>503</ele>
        <time>2015-09-06T09:06:11.000Z</time>
      </trkpt>
      <trkpt lat="44.43408" lon="2.49958">
        <ele>502</ele>
        <time>2015-09-06T09:06:15.000Z</time>
      </trkpt>
      <trkpt lat="44.4342" lon="2.49958">
        <ele>490</ele>
        <time>2015-09-06T09:06:19.000Z</time>
      </trkpt>
      <trkpt lat="44.43433" lon="2.49956">
        <ele>489</ele>
        <time>2015-09-06T09:06:23.000Z</time>
      </trkpt>
      <trkpt lat="44.43449" lon="2.49951">
        <ele>488</ele>
        <time>2015-09-06T09:06:29.000Z</time>
      </trkpt>
      <trkpt lat="44.4346" lon="2.49958">
        <ele>485</ele>
        <time>2015-09-06T09:06:33.000Z</time>
      </trkpt>
      <trkpt lat="44.43469" lon="2.49949">
        <ele>485</ele>
        <time>2015-09-06T09:06:38.000Z</time>
      </trkpt>
      <trkpt lat="44.4348" lon="2.49946">
        <ele>484</ele>
        <time>2015-09-06T09:06:41.000Z</time>
      </trkpt>
      <trkpt lat="44.43493" lon="2.49942">
        <ele>484</ele>
        <time>2015-09-06T09:06:45.000Z</time>
      </trkpt>
      <trkpt lat="44.43504" lon="2.49939">
        <ele>472</ele>
        <time>2015-09-06T09:06:49.000Z</time>
      </trkpt>
      <trkpt lat="44.43515" lon="2.49939">
        <ele>470</ele>
        <time>2015-09-06T09:06:51.990Z</time>
      </trkpt>
      <trkpt lat="44.43526" lon="2.49938">
        <ele>467</ele>
        <time>2015-09-06T09:06:56.990Z</time>
      </trkpt>
      <trkpt lat="44.43538" lon="2.49937">
        <ele>465</ele>
        <time>2015-09-06T09:07:00.990Z</time>
      </trkpt>
      <trkpt lat="44.43549" lon="2.49936">
        <ele>463</ele>
        <time>2015-09-06T09:07:03.990Z</time>
      </trkpt>
      <trkpt lat="44.43559" lon="2.49934">
        <ele>461</ele>
        <time>2015-09-06T09:07:06.990Z</time>
      </trkpt>
      <trkpt lat="44.43573" lon="2.49937">
        <ele>460</ele>
        <time>2015-09-06T09:07:11.000Z</time>
      </trkpt>
      <trkpt lat="44.43585" lon="2.49941">
        <ele>445</ele>
        <time>2015-09-06T09:07:14.000Z</time>
      </trkpt>
      <trkpt lat="44.43595" lon="2.49945">
        <ele>443</ele>
        <time>2015-09-06T09:07:16.000Z</time>
      </trkpt>
      <trkpt lat="44.43606" lon="2.49946">
        <ele>440</ele>
        <time>2015-09-06T09:07:18.990Z</time>
      </trkpt>
      <trkpt lat="44.43616" lon="2.49945">
        <ele>439</ele>
        <time>2015-09-06T09:07:33.000Z</time>
      </trkpt>
      <trkpt lat="44.43625" lon="2.49937">
        <ele>437</ele>
        <time>2015-09-06T09:07:38.990Z</time>
      </trkpt>
      <trkpt lat="44.43637" lon="2.4993">
        <ele>435</ele>
        <time>2015-09-06T09:07:42.990Z</time>
      </trkpt>
      <trkpt lat="44.4365" lon="2.49921">
        <ele>431</ele>
        <time>2015-09-06T09:07:48.000Z</time>
      </trkpt>
      <trkpt lat="44.4366" lon="2.49913">
        <ele>433</ele>
        <time>2015-09-06T09:07:51.000Z</time>
      </trkpt>
      <trkpt lat="44.43669" lon="2.49903">
        <ele>424</ele>
        <time>2015-09-06T09:07:54.990Z</time>
      </trkpt>
      <trkpt lat="44.43678" lon="2.49891">
        <ele>423</ele>
        <time>2015-09-06T09:07:59.000Z</time>
      </trkpt>
      <trkpt lat="44.43683" lon="2.49878">
        <ele>423</ele>
        <time>2015-09-06T09:08:02.990Z</time>
      </trkpt>
      <trkpt lat="44.43687" lon="2.4986">
        <ele>425</ele>
        <time>2015-09-06T09:08:06.000Z</time>
      </trkpt>
      <trkpt lat="44.43691" lon="2.49846">
        <ele>426</ele>
        <time>2015-09-06T09:08:09.000Z</time>
      </trkpt>
      <trkpt lat="44.43697" lon="2.49834">
        <ele>425</ele>
        <time>2015-09-06T09:08:11.990Z</time>
      </trkpt>
      <trkpt lat="44.43702" lon="2.49817">
        <ele>429</ele>
        <time>2015-09-06T09:08:16.000Z</time>
      </trkpt>
      <trkpt lat="44.43702" lon="2.49797">
        <ele>430</ele>
        <time>2015-09-06T09:08:19.000Z</time>
      </trkpt>
      <trkpt lat="44.43707" lon="2.49781">
        <ele>429</ele>
        <time>2015-09-06T09:08:22.000Z</time>
      </trkpt>
      <trkpt lat="44.43708" lon="2.49765">
        <ele>430</ele>
        <time>2015-09-06T09:08:26.000Z</time>
      </trkpt>
      <trkpt lat="44.43707" lon="2.49747">
        <ele>436</ele>
        <time>2015-09-06T09:08:30.000Z</time>
      </trkpt>
      <trkpt lat="44.4371" lon="2.49733">
        <ele>435</ele>
        <time>2015-09-06T09:08:34.000Z</time>
      </trkpt>
      <trkpt lat="44.43715" lon="2.49716">
        <ele>435</ele>
        <time>2015-09-06T09:08:38.000Z</time>
      </trkpt>
      <trkpt lat="44.4372" lon="2.497">
        <ele>435</ele>
        <time>2015-09-06T09:08:42.000Z</time>
      </trkpt>
      <trkpt lat="44.43727" lon="2.49684">
        <ele>433</ele>
        <time>2015-09-06T09:08:46.000Z</time>
      </trkpt>
      <trkpt lat="44.43732" lon="2.49668">
        <ele>430</ele>
        <time>2015-09-06T09:08:50.000Z</time>
      </trkpt>
      <trkpt lat="44.43737" lon="2.49656">
        <ele>436</ele>
        <time>2015-09-06T09:08:53.000Z</time>
      </trkpt>
      <trkpt lat="44.43743" lon="2.49645">
        <ele>438</ele>
        <time>2015-09-06T09:08:57.000Z</time>
      </trkpt>
      <trkpt lat="44.43751" lon="2.49633">
        <ele>425</ele>
        <time>2015-09-06T09:09:01.000Z</time>
      </trkpt>
      <trkpt lat="44.43759" lon="2.49623">
        <ele>427</ele>
        <time>2015-09-06T09:09:05.000Z</time>
      </trkpt>
      <trkpt lat="44.43768" lon="2.49617">
        <ele>427</ele>
        <time>2015-09-06T09:09:09.000Z</time>
      </trkpt>
      <trkpt lat="44.43783" lon="2.49613">
        <ele>426</ele>
        <time>2015-09-06T09:09:14.000Z</time>
      </trkpt>
      <trkpt lat="44.43793" lon="2.49616">
        <ele>425</ele>
        <time>2015-09-06T09:09:17.000Z</time>
      </trkpt>
      <trkpt lat="44.43812" lon="2.49622">
        <ele>423</ele>
        <time>2015-09-06T09:09:22.000Z</time>
      </trkpt>
      <trkpt lat="44.43824" lon="2.49624">
        <ele>422</ele>
        <time>2015-09-06T09:09:26.000Z</time>
      </trkpt>
      <trkpt lat="44.43836" lon="2.49628">
        <ele>418</ele>
        <time>2015-09-06T09:09:28.990Z</time>
      </trkpt>
      <trkpt lat="44.43847" lon="2.49632">
        <ele>417</ele>
        <time>2015-09-06T09:09:33.000Z</time>
      </trkpt>
      <trkpt lat="44.43864" lon="2.49642">
        <ele>416</ele>
        <time>2015-09-06T09:09:38.000Z</time>
      </trkpt>
      <trkpt lat="44.43872" lon="2.49655">
        <ele>415</ele>
        <time>2015-09-06T09:09:42.000Z</time>
      </trkpt>
      <trkpt lat="44.4388" lon="2.49667">
        <ele>403</ele>
        <time>2015-09-06T09:09:45.990Z</time>
      </trkpt>
      <trkpt lat="44.43885" lon="2.49681">
        <ele>402</ele>
        <time>2015-09-06T09:09:49.990Z</time>
      </trkpt>
      <trkpt lat="44.43896" lon="2.49683">
        <ele>403</ele>
        <time>2015-09-06T09:09:55.990Z</time>
      </trkpt>
      <trkpt lat="44.43909" lon="2.49686">
        <ele>404</ele>
        <time>2015-09-06T09:10:01.000Z</time>
      </trkpt>
      <trkpt lat="44.43922" lon="2.49696">
        <ele>403</ele>
        <time>2015-09-06T09:10:03.990Z</time>
      </trkpt>
      <trkpt lat="44.43935" lon="2.49706">
        <ele>401</ele>
        <time>2015-09-06T09:10:08.000Z</time>
      </trkpt>
      <trkpt lat="44.43947" lon="2.49719">
        <ele>399</ele>
        <time>2015-09-06T09:10:12.000Z</time>
      </trkpt>
      <trkpt lat="44.43956" lon="2.49729">
        <ele>398</ele>
        <time>2015-09-06T09:10:15.000Z</time>
      </trkpt>
      <trkpt lat="44.43966" lon="2.49736">
        <ele>397</ele>
        <time>2015-09-06T09:10:18.000Z</time>
      </trkpt>
      <trkpt lat="44.43975" lon="2.49741">
        <ele>396</ele>
        <time>2015-09-06T09:10:20.990Z</time>
      </trkpt>
      <trkpt lat="44.43984" lon="2.49747">
        <ele>395</ele>
        <time>2015-09-06T09:10:24.000Z</time>
      </trkpt>
      <trkpt lat="44.43992" lon="2.49757">
        <ele>388</ele>
        <time>2015-09-06T09:10:27.000Z</time>
      </trkpt>
      <trkpt lat="44.44003" lon="2.49764">
        <ele>386</ele>
        <time>2015-09-06T09:10:31.000Z</time>
      </trkpt>
      <trkpt lat="44.44015" lon="2.49764">
        <ele>384</ele>
        <time>2015-09-06T09:10:33.990Z</time>
      </trkpt>
      <trkpt lat="44.44025" lon="2.49759">
        <ele>384</ele>
        <time>2015-09-06T09:10:36.990Z</time>
      </trkpt>
      <trkpt lat="44.44036" lon="2.49754">
        <ele>383</ele>
        <time>2015-09-06T09:10:41.000Z</time>
      </trkpt>
      <trkpt lat="44.44049" lon="2.49759">
        <ele>382</ele>
        <time>2015-09-06T09:10:44.990Z</time>
      </trkpt>
      <trkpt lat="44.44059" lon="2.49765">
        <ele>381</ele>
        <time>2015-09-06T09:10:48.000Z</time>
      </trkpt>
      <trkpt lat="44.44072" lon="2.49771">
        <ele>381</ele>
        <time>2015-09-06T09:10:51.000Z</time>
      </trkpt>
      <trkpt lat="44.44082" lon="2.49777">
        <ele>380</ele>
        <time>2015-09-06T09:10:53.010Z</time>
      </trkpt>
      <trkpt lat="44.44092" lon="2.49785">
        <ele>374</ele>
        <time>2015-09-06T09:10:55.990Z</time>
      </trkpt>
      <trkpt lat="44.441" lon="2.49794">
        <ele>373</ele>
        <time>2015-09-06T09:10:58.990Z</time>
      </trkpt>
      <trkpt lat="44.44108" lon="2.49808">
        <ele>371</ele>
        <time>2015-09-06T09:11:03.000Z</time>
      </trkpt>
      <trkpt lat="44.44118" lon="2.49814">
        <ele>370</ele>
        <time>2015-09-06T09:11:07.000Z</time>
      </trkpt>
      <trkpt lat="44.44131" lon="2.49813">
        <ele>369</ele>
        <time>2015-09-06T09:11:11.000Z</time>
      </trkpt>
      <trkpt lat="44.44143" lon="2.4981">
        <ele>368</ele>
        <time>2015-09-06T09:11:14.990Z</time>
      </trkpt>
      <trkpt lat="44.44154" lon="2.49809">
        <ele>366</ele>
        <time>2015-09-06T09:11:17.990Z</time>
      </trkpt>
      <trkpt lat="44.44164" lon="2.49802">
        <ele>367</ele>
        <time>2015-09-06T09:11:21.990Z</time>
      </trkpt>
      <trkpt lat="44.44174" lon="2.49791">
        <ele>357</ele>
        <time>2015-09-06T09:11:26.000Z</time>
      </trkpt>
      <trkpt lat="44.44183" lon="2.49782">
        <ele>358</ele>
        <time>2015-09-06T09:11:29.000Z</time>
      </trkpt>
      <trkpt lat="44.44192" lon="2.49771">
        <ele>358</ele>
        <time>2015-09-06T09:11:32.000Z</time>
      </trkpt>
      <trkpt lat="44.442" lon="2.49761">
        <ele>357</ele>
        <time>2015-09-06T09:11:35.000Z</time>
      </trkpt>
      <trkpt lat="44.44207" lon="2.49751">
        <ele>355</ele>
        <time>2015-09-06T09:11:37.990Z</time>
      </trkpt>
      <trkpt lat="44.44215" lon="2.49739">
        <ele>361</ele>
        <time>2015-09-06T09:11:42.000Z</time>
      </trkpt>
      <trkpt lat="44.44221" lon="2.49722">
        <ele>361</ele>
        <time>2015-09-06T09:11:45.990Z</time>
      </trkpt>
      <trkpt lat="44.44228" lon="2.49712">
        <ele>361</ele>
        <time>2015-09-06T09:11:50.000Z</time>
      </trkpt>
      <trkpt lat="44.44236" lon="2.497">
        <ele>361</ele>
        <time>2015-09-06T09:11:53.000Z</time>
      </trkpt>
      <trkpt lat="44.44243" lon="2.49689">
        <ele>360</ele>
        <time>2015-09-06T09:11:55.990Z</time>
      </trkpt>
      <trkpt lat="44.44249" lon="2.49679">
        <ele>359</ele>
        <time>2015-09-06T09:11:58.990Z</time>
      </trkpt>
      <trkpt lat="44.44257" lon="2.49664">
        <ele>354</ele>
        <time>2015-09-06T09:12:03.000Z</time>
      </trkpt>
      <trkpt lat="44.44263" lon="2.49653">
        <ele>353</ele>
        <time>2015-09-06T09:12:06.000Z</time>
      </trkpt>
      <trkpt lat="44.44271" lon="2.49633">
        <ele>352</ele>
        <time>2015-09-06T09:12:11.000Z</time>
      </trkpt>
      <trkpt lat="44.4428" lon="2.49607">
        <ele>353</ele>
        <time>2015-09-06T09:12:17.000Z</time>
      </trkpt>
      <trkpt lat="44.44288" lon="2.49598">
        <ele>351</ele>
        <time>2015-09-06T09:12:19.000Z</time>
      </trkpt>
      <trkpt lat="44.44296" lon="2.49586">
        <ele>349</ele>
        <time>2015-09-06T09:12:22.000Z</time>
      </trkpt>
      <trkpt lat="44.44302" lon="2.49574">
        <ele>351</ele>
        <time>2015-09-06T09:12:25.990Z</time>
      </trkpt>
      <trkpt lat="44.443" lon="2.49559">
        <ele>353</ele>
        <time>2015-09-06T09:12:44.000Z</time>
      </trkpt>
      <trkpt lat="44.44305" lon="2.49547">
        <ele>352</ele>
        <time>2015-09-06T09:12:54.000Z</time>
      </trkpt>
      <trkpt lat="44.44308" lon="2.49532">
        <ele>352</ele>
        <time>2015-09-06T09:13:01.000Z</time>
      </trkpt>
      <trkpt lat="44.44308" lon="2.49517">
        <ele>352</ele>
        <time>2015-09-06T09:13:05.990Z</time>
      </trkpt>
      <trkpt lat="44.44311" lon="2.49503">
        <ele>350</ele>
        <time>2015-09-06T09:13:12.000Z</time>
      </trkpt>
      <trkpt lat="44.44312" lon="2.4948">
        <ele>356</ele>
        <time>2015-09-06T09:13:19.000Z</time>
      </trkpt>
      <trkpt lat="44.44312" lon="2.49464">
        <ele>358</ele>
        <time>2015-09-06T09:13:24.990Z</time>
      </trkpt>
      <trkpt lat="44.44311" lon="2.49448">
        <ele>360</ele>
        <time>2015-09-06T09:13:32.000Z</time>
      </trkpt>
      <trkpt lat="44.4431" lon="2.49434">
        <ele>360</ele>
        <time>2015-09-06T09:13:38.000Z</time>
      </trkpt>
      <trkpt lat="44.44312" lon="2.49415">
        <ele>365</ele>
        <time>2015-09-06T09:13:43.000Z</time>
      </trkpt>
      <trkpt lat="44.44315" lon="2.49401">
        <ele>366</ele>
        <time>2015-09-06T09:13:47.000Z</time>
      </trkpt>
      <trkpt lat="44.44323" lon="2.49392">
        <ele>367</ele>
        <time>2015-09-06T09:13:52.000Z</time>
      </trkpt>
      <trkpt lat="44.4433" lon="2.4938">
        <ele>368</ele>
        <time>2015-09-06T09:13:56.990Z</time>
      </trkpt>
      <trkpt lat="44.44334" lon="2.49366">
        <ele>356</ele>
        <time>2015-09-06T09:14:01.990Z</time>
      </trkpt>
      <trkpt lat="44.44325" lon="2.49379">
        <ele>368</ele>
        <time>2015-09-06T09:14:10.000Z</time>
      </trkpt>
      <trkpt lat="44.44317" lon="2.49388">
        <ele>368</ele>
        <time>2015-09-06T09:14:12.000Z</time>
      </trkpt>
      <trkpt lat="44.44308" lon="2.49397">
        <ele>368</ele>
        <time>2015-09-06T09:14:15.000Z</time>
      </trkpt>
      <trkpt lat="44.44298" lon="2.49405">
        <ele>369</ele>
        <time>2015-09-06T09:14:22.000Z</time>
      </trkpt>
      <trkpt lat="44.4429" lon="2.49413">
        <ele>371</ele>
        <time>2015-09-06T09:14:27.000Z</time>
      </trkpt>
      <trkpt lat="44.44286" lon="2.49426">
        <ele>365</ele>
        <time>2015-09-06T09:14:31.990Z</time>
      </trkpt>
      <trkpt lat="44.44281" lon="2.49442">
        <ele>365</ele>
        <time>2015-09-06T09:14:38.000Z</time>
      </trkpt>
      <trkpt lat="44.44267" lon="2.49446">
        <ele>367</ele>
        <time>2015-09-06T09:14:44.000Z</time>
      </trkpt>
      <trkpt lat="44.44256" lon="2.49433">
        <ele>370</ele>
        <time>2015-09-06T09:14:48.000Z</time>
      </trkpt>
      <trkpt lat="44.44245" lon="2.49423">
        <ele>379</ele>
        <time>2015-09-06T09:15:00.000Z</time>
      </trkpt>
      <trkpt lat="44.44232" lon="2.49412">
        <ele>387</ele>
        <time>2015-09-06T09:15:06.000Z</time>
      </trkpt>
      <trkpt lat="44.44222" lon="2.49403">
        <ele>391</ele>
        <time>2015-09-06T09:15:11.410Z</time>
      </trkpt>
      <trkpt lat="44.44212" lon="2.49395">
        <ele>394</ele>
        <time>2015-09-06T09:15:15.000Z</time>
      </trkpt>
      <trkpt lat="44.44202" lon="2.49388">
        <ele>396</ele>
        <time>2015-09-06T09:15:27.000Z</time>
      </trkpt>
      <trkpt lat="44.44196" lon="2.49373">
        <ele>398</ele>
        <time>2015-09-06T09:15:41.000Z</time>
      </trkpt>
      <trkpt lat="44.44191" lon="2.49361">
        <ele>400</ele>
        <time>2015-09-06T09:15:50.010Z</time>
      </trkpt>
      <trkpt lat="44.44195" lon="2.49347">
        <ele>401</ele>
        <time>2015-09-06T09:16:04.000Z</time>
      </trkpt>
      <trkpt lat="44.44185" lon="2.49358">
        <ele>402</ele>
        <time>2015-09-06T09:16:19.300Z</time>
      </trkpt>
      <trkpt lat="44.4418" lon="2.49345">
        <ele>407</ele>
        <time>2015-09-06T09:16:35.000Z</time>
      </trkpt>
      <trkpt lat="44.44174" lon="2.49333">
        <ele>416</ele>
        <time>2015-09-06T09:16:56.000Z</time>
      </trkpt>
      <trkpt lat="44.44165" lon="2.49322">
        <ele>425</ele>
        <time>2015-09-06T09:17:10.410Z</time>
      </trkpt>
      <trkpt lat="44.44161" lon="2.49309">
        <ele>430</ele>
        <time>2015-09-06T09:17:21.000Z</time>
      </trkpt>
      <trkpt lat="44.44158" lon="2.49291">
        <ele>433</ele>
        <time>2015-09-06T09:17:34.000Z</time>
      </trkpt>
      <trkpt lat="44.44151" lon="2.49281">
        <ele>435</ele>
        <time>2015-09-06T09:17:44.000Z</time>
      </trkpt>
      <trkpt lat="44.44147" lon="2.49266">
        <ele>435</ele>
        <time>2015-09-06T09:18:00.000Z</time>
      </trkpt>
      <trkpt lat="44.44142" lon="2.49252">
        <ele>436</ele>
        <time>2015-09-06T09:18:12.000Z</time>
      </trkpt>
      <trkpt lat="44.44141" lon="2.49237">
        <ele>444</ele>
        <time>2015-09-06T09:18:23.000Z</time>
      </trkpt>
      <trkpt lat="44.44131" lon="2.4923">
        <ele>447</ele>
        <time>2015-09-06T09:18:33.000Z</time>
      </trkpt>
      <trkpt lat="44.44126" lon="2.49218">
        <ele>449</ele>
        <time>2015-09-06T09:18:42.000Z</time>
      </trkpt>
      <trkpt lat="44.44123" lon="2.49205">
        <ele>450</ele>
        <time>2015-09-06T09:18:53.000Z</time>
      </trkpt>
      <trkpt lat="44.44115" lon="2.49193">
        <ele>452</ele>
        <time>2015-09-06T09:19:08.000Z</time>
      </trkpt>
      <trkpt lat="44.44105" lon="2.49189">
        <ele>455</ele>
        <time>2015-09-06T09:19:17.000Z</time>
      </trkpt>
      <trkpt lat="44.44095" lon="2.49187">
        <ele>457</ele>
        <time>2015-09-06T09:19:30.990Z</time>
      </trkpt>
      <trkpt lat="44.44086" lon="2.4918">
        <ele>461</ele>
        <time>2015-09-06T09:19:45.000Z</time>
      </trkpt>
      <trkpt lat="44.44077" lon="2.49174">
        <ele>474</ele>
        <time>2015-09-06T09:20:01.000Z</time>
      </trkpt>
      <trkpt lat="44.44071" lon="2.49162">
        <ele>480</ele>
        <time>2015-09-06T09:20:12.010Z</time>
      </trkpt>
      <trkpt lat="44.4408" lon="2.49152">
        <ele>480</ele>
        <time>2015-09-06T09:20:43.000Z</time>
      </trkpt>
      <trkpt lat="44.44089" lon="2.4914">
        <ele>465</ele>
        <time>2015-09-06T09:20:46.990Z</time>
      </trkpt>
      <trkpt lat="44.44097" lon="2.4913">
        <ele>465</ele>
        <time>2015-09-06T09:20:50.990Z</time>
      </trkpt>
      <trkpt lat="44.44106" lon="2.49117">
        <ele>465</ele>
        <time>2015-09-06T09:20:55.000Z</time>
      </trkpt>
      <trkpt lat="44.44112" lon="2.49106">
        <ele>465</ele>
        <time>2015-09-06T09:20:58.000Z</time>
      </trkpt>
      <trkpt lat="44.44123" lon="2.49095">
        <ele>463</ele>
        <time>2015-09-06T09:21:01.990Z</time>
      </trkpt>
      <trkpt lat="44.4413" lon="2.49084">
        <ele>461</ele>
        <time>2015-09-06T09:21:05.000Z</time>
      </trkpt>
      <trkpt lat="44.44142" lon="2.49072">
        <ele>464</ele>
        <time>2015-09-06T09:21:10.000Z</time>
      </trkpt>
      <trkpt lat="44.44148" lon="2.49059">
        <ele>464</ele>
        <time>2015-09-06T09:21:13.000Z</time>
      </trkpt>
      <trkpt lat="44.44156" lon="2.4905">
        <ele>464</ele>
        <time>2015-09-06T09:21:16.990Z</time>
      </trkpt>
      <trkpt lat="44.44163" lon="2.49038">
        <ele>465</ele>
        <time>2015-09-06T09:21:20.990Z</time>
      </trkpt>
      <trkpt lat="44.44173" lon="2.49026">
        <ele>446</ele>
        <time>2015-09-06T09:21:24.990Z</time>
      </trkpt>
      <trkpt lat="44.4418" lon="2.49013">
        <ele>447</ele>
        <time>2015-09-06T09:21:29.000Z</time>
      </trkpt>
      <trkpt lat="44.44187" lon="2.49002">
        <ele>447</ele>
        <time>2015-09-06T09:21:32.000Z</time>
      </trkpt>
      <trkpt lat="44.44193" lon="2.4899">
        <ele>447</ele>
        <time>2015-09-06T09:21:36.000Z</time>
      </trkpt>
      <trkpt lat="44.44199" lon="2.48976">
        <ele>445</ele>
        <time>2015-09-06T09:21:39.000Z</time>
      </trkpt>
      <trkpt lat="44.44205" lon="2.48962">
        <ele>444</ele>
        <time>2015-09-06T09:21:42.000Z</time>
      </trkpt>
      <trkpt lat="44.44215" lon="2.48949">
        <ele>443</ele>
        <time>2015-09-06T09:21:46.000Z</time>
      </trkpt>
      <trkpt lat="44.44222" lon="2.48938">
        <ele>442</ele>
        <time>2015-09-06T09:21:49.000Z</time>
      </trkpt>
      <trkpt lat="44.44234" lon="2.48928">
        <ele>439</ele>
        <time>2015-09-06T09:21:53.000Z</time>
      </trkpt>
      <trkpt lat="44.44242" lon="2.48915">
        <ele>436</ele>
        <time>2015-09-06T09:21:57.000Z</time>
      </trkpt>
      <trkpt lat="44.44246" lon="2.48899">
        <ele>437</ele>
        <time>2015-09-06T09:22:00.990Z</time>
      </trkpt>
      <trkpt lat="44.44254" lon="2.48888">
        <ele>424</ele>
        <time>2015-09-06T09:22:04.990Z</time>
      </trkpt>
      <trkpt lat="44.44262" lon="2.48875">
        <ele>423</ele>
        <time>2015-09-06T09:22:09.000Z</time>
      </trkpt>
      <trkpt lat="44.44265" lon="2.48862">
        <ele>423</ele>
        <time>2015-09-06T09:22:12.000Z</time>
      </trkpt>
      <trkpt lat="44.4427" lon="2.48841">
        <ele>424</ele>
        <time>2015-09-06T09:22:17.000Z</time>
      </trkpt>
      <trkpt lat="44.44274" lon="2.48824">
        <ele>420</ele>
        <time>2015-09-06T09:22:20.000Z</time>
      </trkpt>
      <trkpt lat="44.44283" lon="2.4881">
        <ele>417</ele>
        <time>2015-09-06T09:22:23.000Z</time>
      </trkpt>
      <trkpt lat="44.44292" lon="2.48802">
        <ele>416</ele>
        <time>2015-09-06T09:22:25.990Z</time>
      </trkpt>
      <trkpt lat="44.44299" lon="2.48791">
        <ele>414</ele>
        <time>2015-09-06T09:22:29.000Z</time>
      </trkpt>
      <trkpt lat="44.44305" lon="2.48779">
        <ele>413</ele>
        <time>2015-09-06T09:22:32.000Z</time>
      </trkpt>
      <trkpt lat="44.44303" lon="2.48762">
        <ele>412</ele>
        <time>2015-09-06T09:22:36.000Z</time>
      </trkpt>
      <trkpt lat="44.44298" lon="2.48747">
        <ele>405</ele>
        <time>2015-09-06T09:22:39.990Z</time>
      </trkpt>
      <trkpt lat="44.4429" lon="2.48734">
        <ele>405</ele>
        <time>2015-09-06T09:22:44.990Z</time>
      </trkpt>
      <trkpt lat="44.44281" lon="2.48728">
        <ele>406</ele>
        <time>2015-09-06T09:22:48.000Z</time>
      </trkpt>
      <trkpt lat="44.44292" lon="2.48723">
        <ele>404</ele>
        <time>2015-09-06T09:22:54.990Z</time>
      </trkpt>
      <trkpt lat="44.44302" lon="2.4872">
        <ele>403</ele>
        <time>2015-09-06T09:22:58.990Z</time>
      </trkpt>
      <trkpt lat="44.44311" lon="2.48715">
        <ele>401</ele>
        <time>2015-09-06T09:23:01.990Z</time>
      </trkpt>
      <trkpt lat="44.44321" lon="2.48707">
        <ele>400</ele>
        <time>2015-09-06T09:23:04.990Z</time>
      </trkpt>
      <trkpt lat="44.44333" lon="2.48705">
        <ele>399</ele>
        <time>2015-09-06T09:23:08.990Z</time>
      </trkpt>
      <trkpt lat="44.44343" lon="2.48706">
        <ele>390</ele>
        <time>2015-09-06T09:23:11.990Z</time>
      </trkpt>
      <trkpt lat="44.44355" lon="2.48708">
        <ele>390</ele>
        <time>2015-09-06T09:23:14.990Z</time>
      </trkpt>
      <trkpt lat="44.44366" lon="2.48709">
        <ele>389</ele>
        <time>2015-09-06T09:23:17.990Z</time>
      </trkpt>
      <trkpt lat="44.44377" lon="2.48705">
        <ele>388</ele>
        <time>2015-09-06T09:23:21.000Z</time>
      </trkpt>
      <trkpt lat="44.44387" lon="2.48702">
        <ele>387</ele>
        <time>2015-09-06T09:23:23.990Z</time>
      </trkpt>
      <trkpt lat="44.44396" lon="2.48694">
        <ele>386</ele>
        <time>2015-09-06T09:23:26.990Z</time>
      </trkpt>
      <trkpt lat="44.44406" lon="2.48687">
        <ele>384</ele>
        <time>2015-09-06T09:23:29.990Z</time>
      </trkpt>
      <trkpt lat="44.44416" lon="2.48677">
        <ele>381</ele>
        <time>2015-09-06T09:23:33.990Z</time>
      </trkpt>
      <trkpt lat="44.4442" lon="2.48663">
        <ele>374</ele>
        <time>2015-09-06T09:23:38.000Z</time>
      </trkpt>
      <trkpt lat="44.44414" lon="2.4865">
        <ele>374</ele>
        <time>2015-09-06T09:23:41.000Z</time>
      </trkpt>
      <trkpt lat="44.44404" lon="2.48639">
        <ele>371</ele>
        <time>2015-09-06T09:23:43.990Z</time>
      </trkpt>
      <trkpt lat="44.44396" lon="2.48628">
        <ele>370</ele>
        <time>2015-09-06T09:23:47.000Z</time>
      </trkpt>
      <trkpt lat="44.44386" lon="2.48621">
        <ele>369</ele>
        <time>2015-09-06T09:23:50.000Z</time>
      </trkpt>
      <trkpt lat="44.44376" lon="2.4861">
        <ele>368</ele>
        <time>2015-09-06T09:23:52.990Z</time>
      </trkpt>
      <trkpt lat="44.44368" lon="2.48599">
        <ele>368</ele>
        <time>2015-09-06T09:23:55.990Z</time>
      </trkpt>
      <trkpt lat="44.44358" lon="2.48589">
        <ele>367</ele>
        <time>2015-09-06T09:23:59.990Z</time>
      </trkpt>
      <trkpt lat="44.44348" lon="2.4858">
        <ele>356</ele>
        <time>2015-09-06T09:24:03.990Z</time>
      </trkpt>
      <trkpt lat="44.44338" lon="2.48574">
        <ele>358</ele>
        <time>2015-09-06T09:24:08.000Z</time>
      </trkpt>
      <trkpt lat="44.44327" lon="2.48567">
        <ele>361</ele>
        <time>2015-09-06T09:24:11.000Z</time>
      </trkpt>
      <trkpt lat="44.44313" lon="2.48555">
        <ele>358</ele>
        <time>2015-09-06T09:24:15.000Z</time>
      </trkpt>
      <trkpt lat="44.44303" lon="2.48548">
        <ele>357</ele>
        <time>2015-09-06T09:24:18.000Z</time>
      </trkpt>
      <trkpt lat="44.44294" lon="2.4854">
        <ele>357</ele>
        <time>2015-09-06T09:24:21.000Z</time>
      </trkpt>
      <trkpt lat="44.44281" lon="2.48536">
        <ele>357</ele>
        <time>2015-09-06T09:24:25.000Z</time>
      </trkpt>
      <trkpt lat="44.44272" lon="2.48528">
        <ele>356</ele>
        <time>2015-09-06T09:24:29.000Z</time>
      </trkpt>
      <trkpt lat="44.44261" lon="2.48523">
        <ele>355</ele>
        <time>2015-09-06T09:24:32.000Z</time>
      </trkpt>
      <trkpt lat="44.4425" lon="2.48517">
        <ele>361</ele>
        <time>2015-09-06T09:24:35.000Z</time>
      </trkpt>
      <trkpt lat="44.4424" lon="2.48512">
        <ele>360</ele>
        <time>2015-09-06T09:24:38.000Z</time>
      </trkpt>
      <trkpt lat="44.4423" lon="2.48506">
        <ele>362</ele>
        <time>2015-09-06T09:24:41.000Z</time>
      </trkpt>
      <trkpt lat="44.44221" lon="2.485">
        <ele>350</ele>
        <time>2015-09-06T09:24:44.000Z</time>
      </trkpt>
      <trkpt lat="44.4421" lon="2.48496">
        <ele>351</ele>
        <time>2015-09-06T09:24:47.000Z</time>
      </trkpt>
      <trkpt lat="44.442" lon="2.48493">
        <ele>353</ele>
        <time>2015-09-06T09:24:50.000Z</time>
      </trkpt>
      <trkpt lat="44.4419" lon="2.48489">
        <ele>354</ele>
        <time>2015-09-06T09:24:53.000Z</time>
      </trkpt>
      <trkpt lat="44.44196" lon="2.48476">
        <ele>351</ele>
        <time>2015-09-06T09:24:58.000Z</time>
      </trkpt>
      <trkpt lat="44.44207" lon="2.48478">
        <ele>350</ele>
        <time>2015-09-06T09:25:00.990Z</time>
      </trkpt>
      <trkpt lat="44.44225" lon="2.48483">
        <ele>349</ele>
        <time>2015-09-06T09:25:06.000Z</time>
      </trkpt>
      <trkpt lat="44.44235" lon="2.48476">
        <ele>348</ele>
        <time>2015-09-06T09:25:09.000Z</time>
      </trkpt>
      <trkpt lat="44.44245" lon="2.48474">
        <ele>347</ele>
        <time>2015-09-06T09:25:11.990Z</time>
      </trkpt>
      <trkpt lat="44.44259" lon="2.48471">
        <ele>341</ele>
        <time>2015-09-06T09:25:16.000Z</time>
      </trkpt>
      <trkpt lat="44.44269" lon="2.48469">
        <ele>341</ele>
        <time>2015-09-06T09:25:19.010Z</time>
      </trkpt>
      <trkpt lat="44.44282" lon="2.48476">
        <ele>340</ele>
        <time>2015-09-06T09:25:21.990Z</time>
      </trkpt>
      <trkpt lat="44.44299" lon="2.48488">
        <ele>339</ele>
        <time>2015-09-06T09:25:27.000Z</time>
      </trkpt>
      <trkpt lat="44.4431" lon="2.4849">
        <ele>339</ele>
        <time>2015-09-06T09:25:30.000Z</time>
      </trkpt>
      <trkpt lat="44.44322" lon="2.48498">
        <ele>337</ele>
        <time>2015-09-06T09:25:34.000Z</time>
      </trkpt>
      <trkpt lat="44.44332" lon="2.48484">
        <ele>338</ele>
        <time>2015-09-06T09:25:37.000Z</time>
      </trkpt>
      <trkpt lat="44.44341" lon="2.48491">
        <ele>335</ele>
        <time>2015-09-06T09:25:39.990Z</time>
      </trkpt>
      <trkpt lat="44.44354" lon="2.485">
        <ele>335</ele>
        <time>2015-09-06T09:25:44.000Z</time>
      </trkpt>
      <trkpt lat="44.44365" lon="2.48493">
        <ele>334</ele>
        <time>2015-09-06T09:25:47.000Z</time>
      </trkpt>
      <trkpt lat="44.44377" lon="2.48488">
        <ele>334</ele>
        <time>2015-09-06T09:25:50.000Z</time>
      </trkpt>
      <trkpt lat="44.44384" lon="2.48475">
        <ele>334</ele>
        <time>2015-09-06T09:25:52.000Z</time>
      </trkpt>
      <trkpt lat="44.44402" lon="2.4848">
        <ele>332</ele>
        <time>2015-09-06T09:25:56.000Z</time>
      </trkpt>
      <trkpt lat="44.44415" lon="2.48487">
        <ele>330</ele>
        <time>2015-09-06T09:26:00.010Z</time>
      </trkpt>
      <trkpt lat="44.44425" lon="2.48493">
        <ele>328</ele>
        <time>2015-09-06T09:26:01.990Z</time>
      </trkpt>
      <trkpt lat="44.44435" lon="2.48495">
        <ele>328</ele>
        <time>2015-09-06T09:26:05.010Z</time>
      </trkpt>
      <trkpt lat="44.44425" lon="2.48487">
        <ele>329</ele>
        <time>2015-09-06T09:26:15.000Z</time>
      </trkpt>
      <trkpt lat="44.44414" lon="2.48485">
        <ele>330</ele>
        <time>2015-09-06T09:26:17.000Z</time>
      </trkpt>
      <trkpt lat="44.44403" lon="2.48486">
        <ele>331</ele>
        <time>2015-09-06T09:26:19.000Z</time>
      </trkpt>
      <trkpt lat="44.44388" lon="2.48485">
        <ele>333</ele>
        <time>2015-09-06T09:26:23.000Z</time>
      </trkpt>
      <trkpt lat="44.44375" lon="2.48485">
        <ele>334</ele>
        <time>2015-09-06T09:26:26.000Z</time>
      </trkpt>
      <trkpt lat="44.44362" lon="2.4848">
        <ele>335</ele>
        <time>2015-09-06T09:26:30.000Z</time>
      </trkpt>
      <trkpt lat="44.44352" lon="2.48481">
        <ele>335</ele>
        <time>2015-09-06T09:26:33.000Z</time>
      </trkpt>
      <trkpt lat="44.44342" lon="2.48477">
        <ele>335</ele>
        <time>2015-09-06T09:26:35.990Z</time>
      </trkpt>
      <trkpt lat="44.4433" lon="2.4847">
        <ele>338</ele>
        <time>2015-09-06T09:26:40.000Z</time>
      </trkpt>
      <trkpt lat="44.44321" lon="2.48464">
        <ele>338</ele>
        <time>2015-09-06T09:26:43.000Z</time>
      </trkpt>
      <trkpt lat="44.4431" lon="2.48461">
        <ele>339</ele>
        <time>2015-09-06T09:26:47.990Z</time>
      </trkpt>
      <trkpt lat="44.44302" lon="2.48448">
        <ele>338</ele>
        <time>2015-09-06T09:26:52.000Z</time>
      </trkpt>
      <trkpt lat="44.44292" lon="2.48441">
        <ele>338</ele>
        <time>2015-09-06T09:26:56.000Z</time>
      </trkpt>
      <trkpt lat="44.4428" lon="2.48434">
        <ele>338</ele>
        <time>2015-09-06T09:26:59.010Z</time>
      </trkpt>
      <trkpt lat="44.44271" lon="2.48428">
        <ele>337</ele>
        <time>2015-09-06T09:27:02.300Z</time>
      </trkpt>
      <trkpt lat="44.44261" lon="2.48421">
        <ele>336</ele>
        <time>2015-09-06T09:27:06.010Z</time>
      </trkpt>
      <trkpt lat="44.44252" lon="2.48415">
        <ele>336</ele>
        <time>2015-09-06T09:27:10.000Z</time>
      </trkpt>
      <trkpt lat="44.4424" lon="2.48413">
        <ele>338</ele>
        <time>2015-09-06T09:27:14.000Z</time>
      </trkpt>
      <trkpt lat="44.4423" lon="2.4841">
        <ele>341</ele>
        <time>2015-09-06T09:27:17.000Z</time>
      </trkpt>
      <trkpt lat="44.4422" lon="2.48411">
        <ele>342</ele>
        <time>2015-09-06T09:27:21.000Z</time>
      </trkpt>
      <trkpt lat="44.4421" lon="2.4841">
        <ele>343</ele>
        <time>2015-09-06T09:27:24.000Z</time>
      </trkpt>
      <trkpt lat="44.44199" lon="2.4841">
        <ele>343</ele>
        <time>2015-09-06T09:27:34.000Z</time>
      </trkpt>
      <trkpt lat="44.44189" lon="2.48414">
        <ele>342</ele>
        <time>2015-09-06T09:27:38.000Z</time>
      </trkpt>
      <trkpt lat="44.44179" lon="2.48406">
        <ele>342</ele>
        <time>2015-09-06T09:27:44.000Z</time>
      </trkpt>
      <trkpt lat="44.44169" lon="2.48402">
        <ele>342</ele>
        <time>2015-09-06T09:27:48.000Z</time>
      </trkpt>
      <trkpt lat="44.44158" lon="2.48398">
        <ele>343</ele>
        <time>2015-09-06T09:27:51.000Z</time>
      </trkpt>
      <trkpt lat="44.44148" lon="2.48386">
        <ele>344</ele>
        <time>2015-09-06T09:27:56.000Z</time>
      </trkpt>
      <trkpt lat="44.44138" lon="2.48385">
        <ele>345</ele>
        <time>2015-09-06T09:27:59.000Z</time>
      </trkpt>
      <trkpt lat="44.44128" lon="2.48374">
        <ele>345</ele>
        <time>2015-09-06T09:28:03.000Z</time>
      </trkpt>
      <trkpt lat="44.44121" lon="2.48364">
        <ele>346</ele>
        <time>2015-09-06T09:28:07.000Z</time>
      </trkpt>
      <trkpt lat="44.44116" lon="2.48345">
        <ele>347</ele>
        <time>2015-09-06T09:28:13.000Z</time>
      </trkpt>
      <trkpt lat="44.44105" lon="2.48336">
        <ele>347</ele>
        <time>2015-09-06T09:28:17.000Z</time>
      </trkpt>
      <trkpt lat="44.44093" lon="2.48343">
        <ele>348</ele>
        <time>2015-09-06T09:28:25.000Z</time>
      </trkpt>
      <trkpt lat="44.44082" lon="2.48347">
        <ele>351</ele>
        <time>2015-09-06T09:28:32.000Z</time>
      </trkpt>
      <trkpt lat="44.4407" lon="2.48351">
        <ele>352</ele>
        <time>2015-09-06T09:28:37.000Z</time>
      </trkpt>
      <trkpt lat="44.4406" lon="2.48356">
        <ele>353</ele>
        <time>2015-09-06T09:28:40.000Z</time>
      </trkpt>
      <trkpt lat="44.44047" lon="2.48363">
        <ele>353</ele>
        <time>2015-09-06T09:28:45.000Z</time>
      </trkpt>
      <trkpt lat="44.44033" lon="2.48364">
        <ele>354</ele>
        <time>2015-09-06T09:28:49.010Z</time>
      </trkpt>
      <trkpt lat="44.44015" lon="2.48357">
        <ele>357</ele>
        <time>2015-09-06T09:28:56.000Z</time>
      </trkpt>
      <trkpt lat="44.44003" lon="2.48363">
        <ele>357</ele>
        <time>2015-09-06T09:29:00.000Z</time>
      </trkpt>
      <trkpt lat="44.4399" lon="2.48373">
        <ele>363</ele>
        <time>2015-09-06T09:29:04.000Z</time>
      </trkpt>
      <trkpt lat="44.43979" lon="2.4838">
        <ele>362</ele>
        <time>2015-09-06T09:29:07.000Z</time>
      </trkpt>
      <trkpt lat="44.4397" lon="2.48385">
        <ele>362</ele>
        <time>2015-09-06T09:29:09.990Z</time>
      </trkpt>
      <trkpt lat="44.43959" lon="2.48387">
        <ele>363</ele>
        <time>2015-09-06T09:29:15.000Z</time>
      </trkpt>
      <trkpt lat="44.43948" lon="2.48393">
        <ele>363</ele>
        <time>2015-09-06T09:29:19.000Z</time>
      </trkpt>
      <trkpt lat="44.43938" lon="2.48404">
        <ele>362</ele>
        <time>2015-09-06T09:29:23.000Z</time>
      </trkpt>
      <trkpt lat="44.43927" lon="2.4841">
        <ele>360</ele>
        <time>2015-09-06T09:29:27.000Z</time>
      </trkpt>
      <trkpt lat="44.43916" lon="2.48412">
        <ele>361</ele>
        <time>2015-09-06T09:29:31.000Z</time>
      </trkpt>
      <trkpt lat="44.439" lon="2.48412">
        <ele>368</ele>
        <time>2015-09-06T09:29:37.000Z</time>
      </trkpt>
      <trkpt lat="44.43887" lon="2.48411">
        <ele>372</ele>
        <time>2015-09-06T09:29:46.000Z</time>
      </trkpt>
      <trkpt lat="44.43877" lon="2.48415">
        <ele>374</ele>
        <time>2015-09-06T09:29:50.000Z</time>
      </trkpt>
      <trkpt lat="44.43866" lon="2.48419">
        <ele>365</ele>
        <time>2015-09-06T09:29:56.000Z</time>
      </trkpt>
      <trkpt lat="44.43855" lon="2.48423">
        <ele>367</ele>
        <time>2015-09-06T09:30:00.000Z</time>
      </trkpt>
      <trkpt lat="44.43845" lon="2.48432">
        <ele>368</ele>
        <time>2015-09-06T09:30:05.000Z</time>
      </trkpt>
      <trkpt lat="44.43835" lon="2.48438">
        <ele>367</ele>
        <time>2015-09-06T09:30:15.000Z</time>
      </trkpt>
      <trkpt lat="44.43824" lon="2.48437">
        <ele>374</ele>
        <time>2015-09-06T09:30:22.000Z</time>
      </trkpt>
      <trkpt lat="44.43814" lon="2.48442">
        <ele>374</ele>
        <time>2015-09-06T09:30:29.000Z</time>
      </trkpt>
      <trkpt lat="44.43802" lon="2.48444">
        <ele>375</ele>
        <time>2015-09-06T09:30:36.000Z</time>
      </trkpt>
      <trkpt lat="44.43791" lon="2.48445">
        <ele>376</ele>
        <time>2015-09-06T09:30:41.000Z</time>
      </trkpt>
      <trkpt lat="44.43783" lon="2.48453">
        <ele>376</ele>
        <time>2015-09-06T09:30:46.000Z</time>
      </trkpt>
      <trkpt lat="44.43769" lon="2.48452">
        <ele>378</ele>
        <time>2015-09-06T09:30:53.000Z</time>
      </trkpt>
      <trkpt lat="44.43759" lon="2.48458">
        <ele>377</ele>
        <time>2015-09-06T09:30:59.000Z</time>
      </trkpt>
      <trkpt lat="44.43748" lon="2.48462">
        <ele>390</ele>
        <time>2015-09-06T09:31:05.000Z</time>
      </trkpt>
      <trkpt lat="44.43739" lon="2.48468">
        <ele>389</ele>
        <time>2015-09-06T09:31:11.000Z</time>
      </trkpt>
      <trkpt lat="44.43729" lon="2.48473">
        <ele>390</ele>
        <time>2015-09-06T09:31:16.000Z</time>
      </trkpt>
      <trkpt lat="44.43719" lon="2.48482">
        <ele>390</ele>
        <time>2015-09-06T09:31:20.000Z</time>
      </trkpt>
      <trkpt lat="44.43708" lon="2.4849">
        <ele>392</ele>
        <time>2015-09-06T09:31:24.990Z</time>
      </trkpt>
      <trkpt lat="44.43698" lon="2.48497">
        <ele>393</ele>
        <time>2015-09-06T09:31:28.990Z</time>
      </trkpt>
      <trkpt lat="44.43688" lon="2.48501">
        <ele>387</ele>
        <time>2015-09-06T09:31:32.990Z</time>
      </trkpt>
      <trkpt lat="44.43677" lon="2.48505">
        <ele>390</ele>
        <time>2015-09-06T09:31:37.000Z</time>
      </trkpt>
      <trkpt lat="44.43665" lon="2.48505">
        <ele>396</ele>
        <time>2015-09-06T09:31:42.000Z</time>
      </trkpt>
      <trkpt lat="44.43648" lon="2.48509">
        <ele>398</ele>
        <time>2015-09-06T09:31:49.000Z</time>
      </trkpt>
      <trkpt lat="44.43631" lon="2.48508">
        <ele>400</ele>
        <time>2015-09-06T09:31:55.000Z</time>
      </trkpt>
      <trkpt lat="44.4362" lon="2.48513">
        <ele>402</ele>
        <time>2015-09-06T09:32:00.000Z</time>
      </trkpt>
      <trkpt lat="44.43609" lon="2.48519">
        <ele>404</ele>
        <time>2015-09-06T09:32:05.000Z</time>
      </trkpt>
      <trkpt lat="44.43599" lon="2.48524">
        <ele>405</ele>
        <time>2015-09-06T09:32:10.000Z</time>
      </trkpt>
      <trkpt lat="44.4359" lon="2.48532">
        <ele>404</ele>
        <time>2015-09-06T09:32:15.000Z</time>
      </trkpt>
      <trkpt lat="44.43581" lon="2.48544">
        <ele>418</ele>
        <time>2015-09-06T09:32:22.000Z</time>
      </trkpt>
      <trkpt lat="44.43572" lon="2.48552">
        <ele>418</ele>
        <time>2015-09-06T09:32:26.000Z</time>
      </trkpt>
      <trkpt lat="44.43563" lon="2.48562">
        <ele>418</ele>
        <time>2015-09-06T09:32:31.000Z</time>
      </trkpt>
      <trkpt lat="44.43555" lon="2.48573">
        <ele>418</ele>
        <time>2015-09-06T09:32:38.000Z</time>
      </trkpt>
      <trkpt lat="44.43547" lon="2.48585">
        <ele>415</ele>
        <time>2015-09-06T09:32:45.000Z</time>
      </trkpt>
      <trkpt lat="44.43543" lon="2.486">
        <ele>416</ele>
        <time>2015-09-06T09:32:51.000Z</time>
      </trkpt>
      <trkpt lat="44.43538" lon="2.48613">
        <ele>417</ele>
        <time>2015-09-06T09:32:56.000Z</time>
      </trkpt>
      <trkpt lat="44.43531" lon="2.48625">
        <ele>418</ele>
        <time>2015-09-06T09:32:58.990Z</time>
      </trkpt>
      <trkpt lat="44.43528" lon="2.48638">
        <ele>418</ele>
        <time>2015-09-06T09:33:03.000Z</time>
      </trkpt>
      <trkpt lat="44.43522" lon="2.4865">
        <ele>420</ele>
        <time>2015-09-06T09:33:08.000Z</time>
      </trkpt>
      <trkpt lat="44.43516" lon="2.48663">
        <ele>422</ele>
        <time>2015-09-06T09:33:13.000Z</time>
      </trkpt>
      <trkpt lat="44.43514" lon="2.48679">
        <ele>422</ele>
        <time>2015-09-06T09:33:18.000Z</time>
      </trkpt>
      <trkpt lat="44.43512" lon="2.48693">
        <ele>420</ele>
        <time>2015-09-06T09:33:22.000Z</time>
      </trkpt>
      <trkpt lat="44.43502" lon="2.487">
        <ele>420</ele>
        <time>2015-09-06T09:33:26.000Z</time>
      </trkpt>
      <trkpt lat="44.43498" lon="2.48686">
        <ele>434</ele>
        <time>2015-09-06T09:33:34.000Z</time>
      </trkpt>
      <trkpt lat="44.43494" lon="2.48672">
        <ele>432</ele>
        <time>2015-09-06T09:33:38.000Z</time>
      </trkpt>
      <trkpt lat="44.43487" lon="2.4866">
        <ele>436</ele>
        <time>2015-09-06T09:33:47.000Z</time>
      </trkpt>
      <trkpt lat="44.43483" lon="2.48646">
        <ele>439</ele>
        <time>2015-09-06T09:33:53.000Z</time>
      </trkpt>
      <trkpt lat="44.43483" lon="2.48632">
        <ele>441</ele>
        <time>2015-09-06T09:33:58.000Z</time>
      </trkpt>
      <trkpt lat="44.43483" lon="2.48617">
        <ele>441</ele>
        <time>2015-09-06T09:34:05.000Z</time>
      </trkpt>
      <trkpt lat="44.43485" lon="2.48601">
        <ele>440</ele>
        <time>2015-09-06T09:34:10.000Z</time>
      </trkpt>
      <trkpt lat="44.43483" lon="2.48587">
        <ele>439</ele>
        <time>2015-09-06T09:34:14.990Z</time>
      </trkpt>
      <trkpt lat="44.43473" lon="2.48595">
        <ele>442</ele>
        <time>2015-09-06T09:34:22.000Z</time>
      </trkpt>
      <trkpt lat="44.43472" lon="2.4861">
        <ele>443</ele>
        <time>2015-09-06T09:34:29.990Z</time>
      </trkpt>
      <trkpt lat="44.43464" lon="2.48618">
        <ele>444</ele>
        <time>2015-09-06T09:34:47.990Z</time>
      </trkpt>
      <trkpt lat="44.43461" lon="2.48634">
        <ele>444</ele>
        <time>2015-09-06T09:35:31.010Z</time>
      </trkpt>
      <trkpt lat="44.43457" lon="2.48649">
        <ele>445</ele>
        <time>2015-09-06T09:35:36.000Z</time>
      </trkpt>
      <trkpt lat="44.43454" lon="2.48662">
        <ele>446</ele>
        <time>2015-09-06T09:35:40.010Z</time>
      </trkpt>
      <trkpt lat="44.43454" lon="2.48681">
        <ele>442</ele>
        <time>2015-09-06T09:35:45.000Z</time>
      </trkpt>
      <trkpt lat="44.43456" lon="2.48696">
        <ele>442</ele>
        <time>2015-09-06T09:35:48.000Z</time>
      </trkpt>
      <trkpt lat="44.43457" lon="2.48713">
        <ele>441</ele>
        <time>2015-09-06T09:35:51.000Z</time>
      </trkpt>
      <trkpt lat="44.43458" lon="2.4873">
        <ele>441</ele>
        <time>2015-09-06T09:35:54.990Z</time>
      </trkpt>
      <trkpt lat="44.4346" lon="2.48748">
        <ele>440</ele>
        <time>2015-09-06T09:35:59.000Z</time>
      </trkpt>
      <trkpt lat="44.43462" lon="2.48764">
        <ele>439</ele>
        <time>2015-09-06T09:36:03.000Z</time>
      </trkpt>
      <trkpt lat="44.43459" lon="2.48783">
        <ele>440</ele>
        <time>2015-09-06T09:36:06.000Z</time>
      </trkpt>
      <trkpt lat="44.43452" lon="2.48806">
        <ele>441</ele>
        <time>2015-09-06T09:36:13.000Z</time>
      </trkpt>
      <trkpt lat="44.43451" lon="2.4882">
        <ele>442</ele>
        <time>2015-09-06T09:36:16.000Z</time>
      </trkpt>
      <trkpt lat="44.43452" lon="2.48834">
        <ele>447</ele>
        <time>2015-09-06T09:36:19.010Z</time>
      </trkpt>
      <trkpt lat="44.43452" lon="2.48853">
        <ele>448</ele>
        <time>2015-09-06T09:36:23.000Z</time>
      </trkpt>
      <trkpt lat="44.4345" lon="2.48869">
        <ele>449</ele>
        <time>2015-09-06T09:36:27.000Z</time>
      </trkpt>
      <trkpt lat="44.43444" lon="2.4888">
        <ele>450</ele>
        <time>2015-09-06T09:36:32.000Z</time>
      </trkpt>
      <trkpt lat="44.43435" lon="2.48889">
        <ele>451</ele>
        <time>2015-09-06T09:36:38.000Z</time>
      </trkpt>
      <trkpt lat="44.43426" lon="2.489">
        <ele>452</ele>
        <time>2015-09-06T09:36:47.000Z</time>
      </trkpt>
      <trkpt lat="44.43416" lon="2.48898">
        <ele>457</ele>
        <time>2015-09-06T09:36:55.000Z</time>
      </trkpt>
      <trkpt lat="44.43406" lon="2.48903">
        <ele>458</ele>
        <time>2015-09-06T09:37:07.000Z</time>
      </trkpt>
      <trkpt lat="44.43397" lon="2.4891">
        <ele>459</ele>
        <time>2015-09-06T09:37:14.000Z</time>
      </trkpt>
      <trkpt lat="44.43394" lon="2.48924">
        <ele>465</ele>
        <time>2015-09-06T09:37:31.000Z</time>
      </trkpt>
      <trkpt lat="44.43388" lon="2.48936">
        <ele>469</ele>
        <time>2015-09-06T09:37:42.000Z</time>
      </trkpt>
      <trkpt lat="44.4338" lon="2.48946">
        <ele>471</ele>
        <time>2015-09-06T09:37:52.000Z</time>
      </trkpt>
      <trkpt lat="44.4337" lon="2.48954">
        <ele>473</ele>
        <time>2015-09-06T09:37:58.000Z</time>
      </trkpt>
      <trkpt lat="44.4336" lon="2.48957">
        <ele>474</ele>
        <time>2015-09-06T09:38:05.000Z</time>
      </trkpt>
      <trkpt lat="44.43349" lon="2.48957">
        <ele>474</ele>
        <time>2015-09-06T09:38:14.000Z</time>
      </trkpt>
      <trkpt lat="44.43338" lon="2.48959">
        <ele>475</ele>
        <time>2015-09-06T09:38:23.000Z</time>
      </trkpt>
      <trkpt lat="44.43325" lon="2.48958">
        <ele>484</ele>
        <time>2015-09-06T09:38:33.000Z</time>
      </trkpt>
      <trkpt lat="44.43317" lon="2.4895">
        <ele>483</ele>
        <time>2015-09-06T09:38:40.000Z</time>
      </trkpt>
      <trkpt lat="44.43306" lon="2.48951">
        <ele>484</ele>
        <time>2015-09-06T09:38:52.000Z</time>
      </trkpt>
      <trkpt lat="44.43296" lon="2.48952">
        <ele>485</ele>
        <time>2015-09-06T09:39:03.010Z</time>
      </trkpt>
      <trkpt lat="44.43286" lon="2.48952">
        <ele>486</ele>
        <time>2015-09-06T09:39:10.000Z</time>
      </trkpt>
      <trkpt lat="44.43276" lon="2.48955">
        <ele>488</ele>
        <time>2015-09-06T09:39:17.000Z</time>
      </trkpt>
      <trkpt lat="44.43265" lon="2.48957">
        <ele>488</ele>
        <time>2015-09-06T09:39:26.000Z</time>
      </trkpt>
      <trkpt lat="44.43266" lon="2.48941">
        <ele>488</ele>
        <time>2015-09-06T09:39:44.000Z</time>
      </trkpt>
      <trkpt lat="44.43264" lon="2.48956">
        <ele>488</ele>
        <time>2015-09-06T09:39:54.000Z</time>
      </trkpt>
      <trkpt lat="44.43255" lon="2.48964">
        <ele>489</ele>
        <time>2015-09-06T09:40:07.000Z</time>
      </trkpt>
      <trkpt lat="44.43263" lon="2.48979">
        <ele>491</ele>
        <time>2015-09-06T09:40:19.010Z</time>
      </trkpt>
      <trkpt lat="44.43271" lon="2.48988">
        <ele>490</ele>
        <time>2015-09-06T09:40:27.010Z</time>
      </trkpt>
      <trkpt lat="44.4328" lon="2.48998">
        <ele>490</ele>
        <time>2015-09-06T09:40:33.000Z</time>
      </trkpt>
      <trkpt lat="44.43285" lon="2.4901">
        <ele>499</ele>
        <time>2015-09-06T09:40:39.000Z</time>
      </trkpt>
      <trkpt lat="44.43279" lon="2.49021">
        <ele>500</ele>
        <time>2015-09-06T09:40:46.000Z</time>
      </trkpt>
      <trkpt lat="44.43279" lon="2.49036">
        <ele>502</ele>
        <time>2015-09-06T09:40:56.000Z</time>
      </trkpt>
      <trkpt lat="44.43271" lon="2.49045">
        <ele>503</ele>
        <time>2015-09-06T09:41:04.000Z</time>
      </trkpt>
      <trkpt lat="44.4326" lon="2.49044">
        <ele>504</ele>
        <time>2015-09-06T09:41:12.000Z</time>
      </trkpt>
      <trkpt lat="44.4325" lon="2.49035">
        <ele>502</ele>
        <time>2015-09-06T09:41:17.000Z</time>
      </trkpt>
      <trkpt lat="44.4324" lon="2.49029">
        <ele>509</ele>
        <time>2015-09-06T09:41:23.000Z</time>
      </trkpt>
      <trkpt lat="44.43231" lon="2.49023">
        <ele>509</ele>
        <time>2015-09-06T09:41:30.000Z</time>
      </trkpt>
      <trkpt lat="44.43223" lon="2.49014">
        <ele>509</ele>
        <time>2015-09-06T09:41:37.000Z</time>
      </trkpt>
      <trkpt lat="44.43215" lon="2.48998">
        <ele>503</ele>
        <time>2015-09-06T09:41:46.000Z</time>
      </trkpt>
      <trkpt lat="44.43218" lon="2.49015">
        <ele>511</ele>
        <time>2015-09-06T09:41:55.000Z</time>
      </trkpt>
      <trkpt lat="44.43223" lon="2.49029">
        <ele>511</ele>
        <time>2015-09-06T09:41:59.000Z</time>
      </trkpt>
      <trkpt lat="44.43226" lon="2.49043">
        <ele>513</ele>
        <time>2015-09-06T09:42:06.010Z</time>
      </trkpt>
      <trkpt lat="44.43232" lon="2.49055">
        <ele>514</ele>
        <time>2015-09-06T09:42:12.000Z</time>
      </trkpt>
      <trkpt lat="44.4324" lon="2.49066">
        <ele>514</ele>
        <time>2015-09-06T09:42:16.990Z</time>
      </trkpt>
      <trkpt lat="44.43229" lon="2.49062">
        <ele>514</ele>
        <time>2015-09-06T09:42:26.010Z</time>
      </trkpt>
      <trkpt lat="44.43221" lon="2.49052">
        <ele>514</ele>
        <time>2015-09-06T09:42:37.000Z</time>
      </trkpt>
      <trkpt lat="44.43214" lon="2.49037">
        <ele>513</ele>
        <time>2015-09-06T09:42:41.990Z</time>
      </trkpt>
      <trkpt lat="44.43211" lon="2.49023">
        <ele>512</ele>
        <time>2015-09-06T09:42:45.990Z</time>
      </trkpt>
      <trkpt lat="44.43202" lon="2.49008">
        <ele>513</ele>
        <time>2015-09-06T09:42:51.000Z</time>
      </trkpt>
      <trkpt lat="44.43191" lon="2.49005">
        <ele>514</ele>
        <time>2015-09-06T09:42:54.000Z</time>
      </trkpt>
      <trkpt lat="44.4318" lon="2.49001">
        <ele>515</ele>
        <time>2015-09-06T09:42:57.000Z</time>
      </trkpt>
      <trkpt lat="44.43171" lon="2.4899">
        <ele>512</ele>
        <time>2015-09-06T09:43:01.000Z</time>
      </trkpt>
      <trkpt lat="44.43163" lon="2.48978">
        <ele>512</ele>
        <time>2015-09-06T09:43:05.000Z</time>
      </trkpt>
      <trkpt lat="44.4316" lon="2.48963">
        <ele>510</ele>
        <time>2015-09-06T09:43:08.990Z</time>
      </trkpt>
      <trkpt lat="44.43157" lon="2.48948">
        <ele>508</ele>
        <time>2015-09-06T09:43:12.000Z</time>
      </trkpt>
      <trkpt lat="44.43148" lon="2.48933">
        <ele>507</ele>
        <time>2015-09-06T09:43:15.000Z</time>
      </trkpt>
      <trkpt lat="44.43132" lon="2.48916">
        <ele>502</ele>
        <time>2015-09-06T09:43:21.000Z</time>
      </trkpt>
      <trkpt lat="44.43122" lon="2.48908">
        <ele>502</ele>
        <time>2015-09-06T09:43:24.000Z</time>
      </trkpt>
      <trkpt lat="44.43112" lon="2.48902">
        <ele>502</ele>
        <time>2015-09-06T09:43:26.990Z</time>
      </trkpt>
      <trkpt lat="44.43101" lon="2.48895">
        <ele>502</ele>
        <time>2015-09-06T09:43:30.010Z</time>
      </trkpt>
      <trkpt lat="44.43092" lon="2.48887">
        <ele>502</ele>
        <time>2015-09-06T09:43:32.990Z</time>
      </trkpt>
      <trkpt lat="44.43085" lon="2.48877">
        <ele>502</ele>
        <time>2015-09-06T09:43:35.990Z</time>
      </trkpt>
      <trkpt lat="44.43076" lon="2.48865">
        <ele>500</ele>
        <time>2015-09-06T09:43:40.000Z</time>
      </trkpt>
      <trkpt lat="44.43064" lon="2.48859">
        <ele>500</ele>
        <time>2015-09-06T09:43:42.990Z</time>
      </trkpt>
      <trkpt lat="44.43055" lon="2.4885">
        <ele>500</ele>
        <time>2015-09-06T09:43:47.010Z</time>
      </trkpt>
      <trkpt lat="44.43047" lon="2.48839">
        <ele>500</ele>
        <time>2015-09-06T09:43:50.990Z</time>
      </trkpt>
      <trkpt lat="44.43037" lon="2.48832">
        <ele>502</ele>
        <time>2015-09-06T09:43:55.990Z</time>
      </trkpt>
      <trkpt lat="44.43027" lon="2.48826">
        <ele>502</ele>
        <time>2015-09-06T09:43:59.990Z</time>
      </trkpt>
      <trkpt lat="44.43019" lon="2.48817">
        <ele>502</ele>
        <time>2015-09-06T09:44:03.990Z</time>
      </trkpt>
      <trkpt lat="44.43016" lon="2.488">
        <ele>503</ele>
        <time>2015-09-06T09:44:08.000Z</time>
      </trkpt>
      <trkpt lat="44.43008" lon="2.48791">
        <ele>503</ele>
        <time>2015-09-06T09:44:11.990Z</time>
      </trkpt>
      <trkpt lat="44.42999" lon="2.48783">
        <ele>502</ele>
        <time>2015-09-06T09:44:15.990Z</time>
      </trkpt>
      <trkpt lat="44.42988" lon="2.48777">
        <ele>502</ele>
        <time>2015-09-06T09:44:20.010Z</time>
      </trkpt>
      <trkpt lat="44.42976" lon="2.48767">
        <ele>503</ele>
        <time>2015-09-06T09:44:25.000Z</time>
      </trkpt>
      <trkpt lat="44.42964" lon="2.48766">
        <ele>503</ele>
        <time>2015-09-06T09:44:29.990Z</time>
      </trkpt>
      <trkpt lat="44.42954" lon="2.48762">
        <ele>504</ele>
        <time>2015-09-06T09:44:35.000Z</time>
      </trkpt>
      <trkpt lat="44.42943" lon="2.48766">
        <ele>505</ele>
        <time>2015-09-06T09:44:41.990Z</time>
      </trkpt>
      <trkpt lat="44.42933" lon="2.48768">
        <ele>505</ele>
        <time>2015-09-06T09:44:46.000Z</time>
      </trkpt>
      <trkpt lat="44.42921" lon="2.48767">
        <ele>506</ele>
        <time>2015-09-06T09:44:51.990Z</time>
      </trkpt>
      <trkpt lat="44.4291" lon="2.48769">
        <ele>509</ele>
        <time>2015-09-06T09:44:56.990Z</time>
      </trkpt>
      <trkpt lat="44.42899" lon="2.48772">
        <ele>509</ele>
        <time>2015-09-06T09:45:01.010Z</time>
      </trkpt>
      <trkpt lat="44.42889" lon="2.48771">
        <ele>509</ele>
        <time>2015-09-06T09:45:04.990Z</time>
      </trkpt>
      <trkpt lat="44.42876" lon="2.48774">
        <ele>510</ele>
        <time>2015-09-06T09:45:09.000Z</time>
      </trkpt>
      <trkpt lat="44.42864" lon="2.48783">
        <ele>510</ele>
        <time>2015-09-06T09:45:12.990Z</time>
      </trkpt>
      <trkpt lat="44.42857" lon="2.48798">
        <ele>510</ele>
        <time>2015-09-06T09:45:17.000Z</time>
      </trkpt>
      <trkpt lat="44.42846" lon="2.48806">
        <ele>510</ele>
        <time>2015-09-06T09:45:22.000Z</time>
      </trkpt>
      <trkpt lat="44.42836" lon="2.48811">
        <ele>509</ele>
        <time>2015-09-06T09:45:26.300Z</time>
      </trkpt>
      <trkpt lat="44.42825" lon="2.48811">
        <ele>513</ele>
        <time>2015-09-06T09:45:30.000Z</time>
      </trkpt>
      <trkpt lat="44.42813" lon="2.48819">
        <ele>514</ele>
        <time>2015-09-06T09:45:33.990Z</time>
      </trkpt>
      <trkpt lat="44.42803" lon="2.48826">
        <ele>514</ele>
        <time>2015-09-06T09:45:39.000Z</time>
      </trkpt>
      <trkpt lat="44.4279" lon="2.48832">
        <ele>515</ele>
        <time>2015-09-06T09:45:44.000Z</time>
      </trkpt>
      <trkpt lat="44.42779" lon="2.48834">
        <ele>514</ele>
        <time>2015-09-06T09:45:48.000Z</time>
      </trkpt>
      <trkpt lat="44.42768" lon="2.48835">
        <ele>514</ele>
        <time>2015-09-06T09:45:52.000Z</time>
      </trkpt>
      <trkpt lat="44.42754" lon="2.4884">
        <ele>514</ele>
        <time>2015-09-06T09:45:58.000Z</time>
      </trkpt>
      <trkpt lat="44.42743" lon="2.48847">
        <ele>519</ele>
        <time>2015-09-06T09:46:01.000Z</time>
      </trkpt>
      <trkpt lat="44.42731" lon="2.48847">
        <ele>521</ele>
        <time>2015-09-06T09:46:04.990Z</time>
      </trkpt>
      <trkpt lat="44.42719" lon="2.48852">
        <ele>524</ele>
        <time>2015-09-06T09:46:09.000Z</time>
      </trkpt>
      <trkpt lat="44.42709" lon="2.48857">
        <ele>526</ele>
        <time>2015-09-06T09:46:13.000Z</time>
      </trkpt>
      <trkpt lat="44.42696" lon="2.48865">
        <ele>527</ele>
        <time>2015-09-06T09:46:17.000Z</time>
      </trkpt>
      <trkpt lat="44.4268" lon="2.48866">
        <ele>529</ele>
        <time>2015-09-06T09:46:23.000Z</time>
      </trkpt>
      <trkpt lat="44.42669" lon="2.4887">
        <ele>530</ele>
        <time>2015-09-06T09:46:26.000Z</time>
      </trkpt>
      <trkpt lat="44.42657" lon="2.48874">
        <ele>538</ele>
        <time>2015-09-06T09:46:29.000Z</time>
      </trkpt>
      <trkpt lat="44.42647" lon="2.48877">
        <ele>539</ele>
        <time>2015-09-06T09:46:34.000Z</time>
      </trkpt>
      <trkpt lat="44.42637" lon="2.48871">
        <ele>539</ele>
        <time>2015-09-06T09:46:39.000Z</time>
      </trkpt>
      <trkpt lat="44.42629" lon="2.48861">
        <ele>539</ele>
        <time>2015-09-06T09:46:45.010Z</time>
      </trkpt>
      <trkpt lat="44.42617" lon="2.48855">
        <ele>540</ele>
        <time>2015-09-06T09:46:53.010Z</time>
      </trkpt>
      <trkpt lat="44.42607" lon="2.48857">
        <ele>541</ele>
        <time>2015-09-06T09:46:58.000Z</time>
      </trkpt>
      <trkpt lat="44.42599" lon="2.48867">
        <ele>541</ele>
        <time>2015-09-06T09:47:03.000Z</time>
      </trkpt>
      <trkpt lat="44.42589" lon="2.48869">
        <ele>541</ele>
        <time>2015-09-06T09:47:07.000Z</time>
      </trkpt>
      <trkpt lat="44.42578" lon="2.48869">
        <ele>546</ele>
        <time>2015-09-06T09:47:11.000Z</time>
      </trkpt>
      <trkpt lat="44.42566" lon="2.48869">
        <ele>546</ele>
        <time>2015-09-06T09:47:17.000Z</time>
      </trkpt>
      <trkpt lat="44.42557" lon="2.48862">
        <ele>546</ele>
        <time>2015-09-06T09:47:19.000Z</time>
      </trkpt>
      <trkpt lat="44.42548" lon="2.48854">
        <ele>546</ele>
        <time>2015-09-06T09:47:21.000Z</time>
      </trkpt>
      <trkpt lat="44.42538" lon="2.48848">
        <ele>546</ele>
        <time>2015-09-06T09:47:23.000Z</time>
      </trkpt>
      <trkpt lat="44.42528" lon="2.48842">
        <ele>545</ele>
        <time>2015-09-06T09:47:26.000Z</time>
      </trkpt>
      <trkpt lat="44.42519" lon="2.48836">
        <ele>545</ele>
        <time>2015-09-06T09:47:29.000Z</time>
      </trkpt>
      <trkpt lat="44.42507" lon="2.4883">
        <ele>544</ele>
        <time>2015-09-06T09:47:32.000Z</time>
      </trkpt>
      <trkpt lat="44.42497" lon="2.48821">
        <ele>544</ele>
        <time>2015-09-06T09:47:36.000Z</time>
      </trkpt>
      <trkpt lat="44.42488" lon="2.48817">
        <ele>545</ele>
        <time>2015-09-06T09:47:42.000Z</time>
      </trkpt>
      <trkpt lat="44.42476" lon="2.48806">
        <ele>546</ele>
        <time>2015-09-06T09:47:51.000Z</time>
      </trkpt>
      <trkpt lat="44.42469" lon="2.48793">
        <ele>546</ele>
        <time>2015-09-06T09:47:57.000Z</time>
      </trkpt>
      <trkpt lat="44.4246" lon="2.48786">
        <ele>546</ele>
        <time>2015-09-06T09:48:02.000Z</time>
      </trkpt>
      <trkpt lat="44.4245" lon="2.48777">
        <ele>546</ele>
        <time>2015-09-06T09:48:07.000Z</time>
      </trkpt>
      <trkpt lat="44.42442" lon="2.48768">
        <ele>546</ele>
        <time>2015-09-06T09:48:12.000Z</time>
      </trkpt>
      <trkpt lat="44.42432" lon="2.48761">
        <ele>546</ele>
        <time>2015-09-06T09:48:18.000Z</time>
      </trkpt>
      <trkpt lat="44.42422" lon="2.48761">
        <ele>546</ele>
        <time>2015-09-06T09:48:24.000Z</time>
      </trkpt>
      <trkpt lat="44.4241" lon="2.48763">
        <ele>545</ele>
        <time>2015-09-06T09:48:29.000Z</time>
      </trkpt>
      <trkpt lat="44.42397" lon="2.48768">
        <ele>545</ele>
        <time>2015-09-06T09:48:35.000Z</time>
      </trkpt>
      <trkpt lat="44.42387" lon="2.48769">
        <ele>545</ele>
        <time>2015-09-06T09:48:39.010Z</time>
      </trkpt>
      <trkpt lat="44.42376" lon="2.48771">
        <ele>544</ele>
        <time>2015-09-06T09:48:44.000Z</time>
      </trkpt>
      <trkpt lat="44.42365" lon="2.48772">
        <ele>544</ele>
        <time>2015-09-06T09:48:50.000Z</time>
      </trkpt>
      <trkpt lat="44.42356" lon="2.48764">
        <ele>544</ele>
        <time>2015-09-06T09:48:54.990Z</time>
      </trkpt>
      <trkpt lat="44.42348" lon="2.48754">
        <ele>543</ele>
        <time>2015-09-06T09:48:59.000Z</time>
      </trkpt>
      <trkpt lat="44.42342" lon="2.4874">
        <ele>544</ele>
        <time>2015-09-06T09:49:02.990Z</time>
      </trkpt>
      <trkpt lat="44.42339" lon="2.48724">
        <ele>545</ele>
        <time>2015-09-06T09:49:07.990Z</time>
      </trkpt>
      <trkpt lat="44.42339" lon="2.48709">
        <ele>546</ele>
        <time>2015-09-06T09:49:12.000Z</time>
      </trkpt>
      <trkpt lat="44.42335" lon="2.48691">
        <ele>547</ele>
        <time>2015-09-06T09:49:16.990Z</time>
      </trkpt>
      <trkpt lat="44.42333" lon="2.48677">
        <ele>546</ele>
        <time>2015-09-06T09:49:20.990Z</time>
      </trkpt>
      <trkpt lat="44.42333" lon="2.48663">
        <ele>545</ele>
        <time>2015-09-06T09:49:26.000Z</time>
      </trkpt>
      <trkpt lat="44.4233" lon="2.48649">
        <ele>545</ele>
        <time>2015-09-06T09:49:29.990Z</time>
      </trkpt>
      <trkpt lat="44.42331" lon="2.48634">
        <ele>545</ele>
        <time>2015-09-06T09:49:33.990Z</time>
      </trkpt>
      <trkpt lat="44.42333" lon="2.4862">
        <ele>554</ele>
        <time>2015-09-06T09:49:40.010Z</time>
      </trkpt>
      <trkpt lat="44.42336" lon="2.48605">
        <ele>554</ele>
        <time>2015-09-06T09:49:49.000Z</time>
      </trkpt>
      <trkpt lat="44.42338" lon="2.4859">
        <ele>553</ele>
        <time>2015-09-06T09:49:53.990Z</time>
      </trkpt>
      <trkpt lat="44.42345" lon="2.48576">
        <ele>555</ele>
        <time>2015-09-06T09:50:00.000Z</time>
      </trkpt>
      <trkpt lat="44.42348" lon="2.48562">
        <ele>558</ele>
        <time>2015-09-06T09:50:03.000Z</time>
      </trkpt>
      <trkpt lat="44.42351" lon="2.48548">
        <ele>559</ele>
        <time>2015-09-06T09:50:06.990Z</time>
      </trkpt>
      <trkpt lat="44.42349" lon="2.48531">
        <ele>559</ele>
        <time>2015-09-06T09:50:12.000Z</time>
      </trkpt>
      <trkpt lat="44.42353" lon="2.48517">
        <ele>560</ele>
        <time>2015-09-06T09:50:17.010Z</time>
      </trkpt>
      <trkpt lat="44.42357" lon="2.48502">
        <ele>560</ele>
        <time>2015-09-06T09:50:22.000Z</time>
      </trkpt>
      <trkpt lat="44.42364" lon="2.4849">
        <ele>563</ele>
        <time>2015-09-06T09:50:26.000Z</time>
      </trkpt>
      <trkpt lat="44.42366" lon="2.48477">
        <ele>564</ele>
        <time>2015-09-06T09:50:29.990Z</time>
      </trkpt>
      <trkpt lat="44.42368" lon="2.4846">
        <ele>565</ele>
        <time>2015-09-06T09:50:35.000Z</time>
      </trkpt>
      <trkpt lat="44.42373" lon="2.48441">
        <ele>566</ele>
        <time>2015-09-06T09:50:41.000Z</time>
      </trkpt>
      <trkpt lat="44.42377" lon="2.48428">
        <ele>566</ele>
        <time>2015-09-06T09:50:45.990Z</time>
      </trkpt>
      <trkpt lat="44.42382" lon="2.48412">
        <ele>571</ele>
        <time>2015-09-06T09:50:51.990Z</time>
      </trkpt>
      <trkpt lat="44.42384" lon="2.48399">
        <ele>571</ele>
        <time>2015-09-06T09:50:56.000Z</time>
      </trkpt>
      <trkpt lat="44.42393" lon="2.4839">
        <ele>572</ele>
        <time>2015-09-06T09:51:00.990Z</time>
      </trkpt>
      <trkpt lat="44.424" lon="2.48378">
        <ele>572</ele>
        <time>2015-09-06T09:51:06.000Z</time>
      </trkpt>
      <trkpt lat="44.42405" lon="2.48365">
        <ele>573</ele>
        <time>2015-09-06T09:51:11.000Z</time>
      </trkpt>
      <trkpt lat="44.42411" lon="2.48353">
        <ele>573</ele>
        <time>2015-09-06T09:51:16.000Z</time>
      </trkpt>
      <trkpt lat="44.42418" lon="2.4834">
        <ele>573</ele>
        <time>2015-09-06T09:51:21.990Z</time>
      </trkpt>
      <trkpt lat="44.42422" lon="2.48328">
        <ele>574</ele>
        <time>2015-09-06T09:51:26.000Z</time>
      </trkpt>
      <trkpt lat="44.42429" lon="2.48316">
        <ele>576</ele>
        <time>2015-09-06T09:51:32.000Z</time>
      </trkpt>
      <trkpt lat="44.42434" lon="2.48304">
        <ele>577</ele>
        <time>2015-09-06T09:51:37.990Z</time>
      </trkpt>
      <trkpt lat="44.42442" lon="2.48295">
        <ele>578</ele>
        <time>2015-09-06T09:51:43.000Z</time>
      </trkpt>
      <trkpt lat="44.42451" lon="2.48284">
        <ele>578</ele>
        <time>2015-09-06T09:51:47.990Z</time>
      </trkpt>
      <trkpt lat="44.42461" lon="2.48277">
        <ele>579</ele>
        <time>2015-09-06T09:51:55.000Z</time>
      </trkpt>
      <trkpt lat="44.42469" lon="2.48269">
        <ele>579</ele>
        <time>2015-09-06T09:54:39.000Z</time>
      </trkpt>
      <trkpt lat="44.42478" lon="2.48259">
        <ele>580</ele>
        <time>2015-09-06T09:54:54.000Z</time>
      </trkpt>
      <trkpt lat="44.42484" lon="2.48247">
        <ele>584</ele>
        <time>2015-09-06T09:55:00.990Z</time>
      </trkpt>
      <trkpt lat="44.42491" lon="2.48234">
        <ele>584</ele>
        <time>2015-09-06T09:55:06.990Z</time>
      </trkpt>
      <trkpt lat="44.42499" lon="2.48223">
        <ele>585</ele>
        <time>2015-09-06T09:55:13.990Z</time>
      </trkpt>
      <trkpt lat="44.42505" lon="2.4821">
        <ele>586</ele>
        <time>2015-09-06T09:55:18.990Z</time>
      </trkpt>
      <trkpt lat="44.42507" lon="2.48195">
        <ele>586</ele>
        <time>2015-09-06T09:55:24.990Z</time>
      </trkpt>
      <trkpt lat="44.42507" lon="2.48181">
        <ele>587</ele>
        <time>2015-09-06T09:55:29.990Z</time>
      </trkpt>
      <trkpt lat="44.42515" lon="2.4817">
        <ele>588</ele>
        <time>2015-09-06T09:55:35.990Z</time>
      </trkpt>
      <trkpt lat="44.42525" lon="2.48165">
        <ele>590</ele>
        <time>2015-09-06T09:55:41.000Z</time>
      </trkpt>
      <trkpt lat="44.42535" lon="2.48163">
        <ele>590</ele>
        <time>2015-09-06T09:55:44.990Z</time>
      </trkpt>
      <trkpt lat="44.42547" lon="2.48161">
        <ele>590</ele>
        <time>2015-09-06T09:55:48.990Z</time>
      </trkpt>
      <trkpt lat="44.42558" lon="2.4816">
        <ele>590</ele>
        <time>2015-09-06T09:55:52.990Z</time>
      </trkpt>
      <trkpt lat="44.4257" lon="2.48163">
        <ele>590</ele>
        <time>2015-09-06T09:55:57.000Z</time>
      </trkpt>
      <trkpt lat="44.4258" lon="2.48166">
        <ele>589</ele>
        <time>2015-09-06T09:55:59.990Z</time>
      </trkpt>
      <trkpt lat="44.4259" lon="2.48166">
        <ele>588</ele>
        <time>2015-09-06T09:56:02.990Z</time>
      </trkpt>
      <trkpt lat="44.42599" lon="2.48167">
        <ele>586</ele>
        <time>2015-09-06T09:56:05.990Z</time>
      </trkpt>
      <trkpt lat="44.42609" lon="2.48167">
        <ele>584</ele>
        <time>2015-09-06T09:56:08.990Z</time>
      </trkpt>
      <trkpt lat="44.4262" lon="2.48169">
        <ele>583</ele>
        <time>2015-09-06T09:56:12.990Z</time>
      </trkpt>
      <trkpt lat="44.4263" lon="2.48167">
        <ele>586</ele>
        <time>2015-09-06T09:56:15.990Z</time>
      </trkpt>
      <trkpt lat="44.42638" lon="2.48157">
        <ele>585</ele>
        <time>2015-09-06T09:56:19.990Z</time>
      </trkpt>
      <trkpt lat="44.42643" lon="2.48148">
        <ele>585</ele>
        <time>2015-09-06T09:56:22.990Z</time>
      </trkpt>
      <trkpt lat="44.42648" lon="2.48137">
        <ele>585</ele>
        <time>2015-09-06T09:56:25.990Z</time>
      </trkpt>
      <trkpt lat="44.42658" lon="2.48125">
        <ele>585</ele>
        <time>2015-09-06T09:56:29.990Z</time>
      </trkpt>
      <trkpt lat="44.42666" lon="2.48117">
        <ele>585</ele>
        <time>2015-09-06T09:56:32.990Z</time>
      </trkpt>
      <trkpt lat="44.42676" lon="2.48107">
        <ele>582</ele>
        <time>2015-09-06T09:56:37.000Z</time>
      </trkpt>
      <trkpt lat="44.42686" lon="2.48098">
        <ele>582</ele>
        <time>2015-09-06T09:56:41.000Z</time>
      </trkpt>
      <trkpt lat="44.42695" lon="2.48088">
        <ele>582</ele>
        <time>2015-09-06T09:56:45.000Z</time>
      </trkpt>
      <trkpt lat="44.42704" lon="2.48074">
        <ele>582</ele>
        <time>2015-09-06T09:56:49.000Z</time>
      </trkpt>
      <trkpt lat="44.42711" lon="2.4806">
        <ele>581</ele>
        <time>2015-09-06T09:56:53.000Z</time>
      </trkpt>
      <trkpt lat="44.4272" lon="2.48047">
        <ele>581</ele>
        <time>2015-09-06T09:56:57.000Z</time>
      </trkpt>
      <trkpt lat="44.42728" lon="2.48034">
        <ele>581</ele>
        <time>2015-09-06T09:57:01.000Z</time>
      </trkpt>
      <trkpt lat="44.42736" lon="2.48022">
        <ele>580</ele>
        <time>2015-09-06T09:57:05.000Z</time>
      </trkpt>
      <trkpt lat="44.42746" lon="2.4801">
        <ele>579</ele>
        <time>2015-09-06T09:57:09.000Z</time>
      </trkpt>
      <trkpt lat="44.42754" lon="2.48">
        <ele>577</ele>
        <time>2015-09-06T09:57:12.000Z</time>
      </trkpt>
      <trkpt lat="44.42761" lon="2.47988">
        <ele>575</ele>
        <time>2015-09-06T09:57:15.000Z</time>
      </trkpt>
      <trkpt lat="44.42767" lon="2.47976">
        <ele>574</ele>
        <time>2015-09-06T09:57:18.000Z</time>
      </trkpt>
      <trkpt lat="44.42774" lon="2.47963">
        <ele>573</ele>
        <time>2015-09-06T09:57:21.000Z</time>
      </trkpt>
      <trkpt lat="44.42781" lon="2.47952">
        <ele>572</ele>
        <time>2015-09-06T09:57:24.000Z</time>
      </trkpt>
      <trkpt lat="44.42789" lon="2.47941">
        <ele>572</ele>
        <time>2015-09-06T09:57:27.000Z</time>
      </trkpt>
      <trkpt lat="44.42796" lon="2.47931">
        <ele>571</ele>
        <time>2015-09-06T09:57:30.000Z</time>
      </trkpt>
      <trkpt lat="44.42804" lon="2.47921">
        <ele>570</ele>
        <time>2015-09-06T09:57:33.000Z</time>
      </trkpt>
      <trkpt lat="44.42811" lon="2.47911">
        <ele>566</ele>
        <time>2015-09-06T09:57:36.000Z</time>
      </trkpt>
      <trkpt lat="44.42819" lon="2.47902">
        <ele>566</ele>
        <time>2015-09-06T09:57:39.000Z</time>
      </trkpt>
      <trkpt lat="44.42827" lon="2.47891">
        <ele>566</ele>
        <time>2015-09-06T09:57:42.000Z</time>
      </trkpt>
      <trkpt lat="44.42834" lon="2.47879">
        <ele>560</ele>
        <time>2015-09-06T09:57:45.000Z</time>
      </trkpt>
      <trkpt lat="44.4284" lon="2.47867">
        <ele>559</ele>
        <time>2015-09-06T09:57:47.990Z</time>
      </trkpt>
      <trkpt lat="44.42848" lon="2.47852">
        <ele>559</ele>
        <time>2015-09-06T09:57:51.990Z</time>
      </trkpt>
      <trkpt lat="44.42856" lon="2.47837">
        <ele>559</ele>
        <time>2015-09-06T09:57:55.990Z</time>
      </trkpt>
      <trkpt lat="44.42862" lon="2.47825">
        <ele>555</ele>
        <time>2015-09-06T09:57:58.990Z</time>
      </trkpt>
      <trkpt lat="44.42867" lon="2.47812">
        <ele>555</ele>
        <time>2015-09-06T09:58:01.990Z</time>
      </trkpt>
      <trkpt lat="44.42869" lon="2.47796">
        <ele>554</ele>
        <time>2015-09-06T09:58:05.990Z</time>
      </trkpt>
      <trkpt lat="44.42867" lon="2.47782">
        <ele>554</ele>
        <time>2015-09-06T09:58:08.990Z</time>
      </trkpt>
      <trkpt lat="44.42866" lon="2.47766">
        <ele>554</ele>
        <time>2015-09-06T09:58:12.990Z</time>
      </trkpt>
      <trkpt lat="44.42869" lon="2.47747">
        <ele>552</ele>
        <time>2015-09-06T09:58:16.990Z</time>
      </trkpt>
      <trkpt lat="44.42873" lon="2.47733">
        <ele>552</ele>
        <time>2015-09-06T09:58:20.010Z</time>
      </trkpt>
      <trkpt lat="44.4288" lon="2.4772">
        <ele>552</ele>
        <time>2015-09-06T09:58:23.990Z</time>
      </trkpt>
      <trkpt lat="44.42889" lon="2.47709">
        <ele>552</ele>
        <time>2015-09-06T09:58:27.990Z</time>
      </trkpt>
      <trkpt lat="44.429" lon="2.47702">
        <ele>552</ele>
        <time>2015-09-06T09:58:31.990Z</time>
      </trkpt>
      <trkpt lat="44.42911" lon="2.477">
        <ele>552</ele>
        <time>2015-09-06T09:58:35.000Z</time>
      </trkpt>
      <trkpt lat="44.42924" lon="2.47697">
        <ele>551</ele>
        <time>2015-09-06T09:58:38.990Z</time>
      </trkpt>
      <trkpt lat="44.42937" lon="2.47692">
        <ele>551</ele>
        <time>2015-09-06T09:58:43.000Z</time>
      </trkpt>
      <trkpt lat="44.42947" lon="2.47686">
        <ele>551</ele>
        <time>2015-09-06T09:58:46.000Z</time>
      </trkpt>
      <trkpt lat="44.42957" lon="2.47678">
        <ele>551</ele>
        <time>2015-09-06T09:58:49.990Z</time>
      </trkpt>
      <trkpt lat="44.42968" lon="2.47682">
        <ele>550</ele>
        <time>2015-09-06T09:58:54.000Z</time>
      </trkpt>
      <trkpt lat="44.42979" lon="2.47685">
        <ele>550</ele>
        <time>2015-09-06T09:58:57.010Z</time>
      </trkpt>
      <trkpt lat="44.42994" lon="2.47693">
        <ele>550</ele>
        <time>2015-09-06T09:59:02.000Z</time>
      </trkpt>
      <trkpt lat="44.43007" lon="2.47697">
        <ele>549</ele>
        <time>2015-09-06T09:59:06.010Z</time>
      </trkpt>
      <trkpt lat="44.43017" lon="2.47702">
        <ele>549</ele>
        <time>2015-09-06T09:59:08.990Z</time>
      </trkpt>
      <trkpt lat="44.43028" lon="2.47707">
        <ele>548</ele>
        <time>2015-09-06T09:59:12.000Z</time>
      </trkpt>
      <trkpt lat="44.43041" lon="2.47711">
        <ele>548</ele>
        <time>2015-09-06T09:59:16.010Z</time>
      </trkpt>
      <trkpt lat="44.43053" lon="2.47711">
        <ele>548</ele>
        <time>2015-09-06T09:59:21.000Z</time>
      </trkpt>
      <trkpt lat="44.43065" lon="2.47708">
        <ele>547</ele>
        <time>2015-09-06T09:59:24.990Z</time>
      </trkpt>
      <trkpt lat="44.43078" lon="2.47704">
        <ele>547</ele>
        <time>2015-09-06T09:59:28.990Z</time>
      </trkpt>
      <trkpt lat="44.43089" lon="2.47703">
        <ele>544</ele>
        <time>2015-09-06T09:59:32.100Z</time>
      </trkpt>
      <trkpt lat="44.431" lon="2.47699">
        <ele>544</ele>
        <time>2015-09-06T09:59:35.010Z</time>
      </trkpt>
      <trkpt lat="44.4311" lon="2.47696">
        <ele>543</ele>
        <time>2015-09-06T09:59:37.990Z</time>
      </trkpt>
      <trkpt lat="44.43121" lon="2.47698">
        <ele>543</ele>
        <time>2015-09-06T09:59:40.990Z</time>
      </trkpt>
      <trkpt lat="44.43131" lon="2.47706">
        <ele>543</ele>
        <time>2015-09-06T09:59:43.990Z</time>
      </trkpt>
      <trkpt lat="44.43144" lon="2.47721">
        <ele>543</ele>
        <time>2015-09-06T09:59:48.000Z</time>
      </trkpt>
      <trkpt lat="44.43153" lon="2.47732">
        <ele>543</ele>
        <time>2015-09-06T09:59:51.000Z</time>
      </trkpt>
      <trkpt lat="44.43164" lon="2.47741">
        <ele>542</ele>
        <time>2015-09-06T09:59:53.990Z</time>
      </trkpt>
      <trkpt lat="44.43178" lon="2.47747">
        <ele>538</ele>
        <time>2015-09-06T09:59:57.010Z</time>
      </trkpt>
      <trkpt lat="44.43191" lon="2.47747">
        <ele>535</ele>
        <time>2015-09-06T09:59:59.990Z</time>
      </trkpt>
      <trkpt lat="44.43209" lon="2.47744">
        <ele>532</ele>
        <time>2015-09-06T10:00:05.000Z</time>
      </trkpt>
      <trkpt lat="44.4322" lon="2.47739">
        <ele>530</ele>
        <time>2015-09-06T10:00:08.000Z</time>
      </trkpt>
      <trkpt lat="44.43231" lon="2.47735">
        <ele>529</ele>
        <time>2015-09-06T10:00:11.000Z</time>
      </trkpt>
      <trkpt lat="44.43241" lon="2.4773">
        <ele>528</ele>
        <time>2015-09-06T10:00:14.000Z</time>
      </trkpt>
      <trkpt lat="44.43241" lon="2.47714">
        <ele>529</ele>
        <time>2015-09-06T10:00:17.990Z</time>
      </trkpt>
      <trkpt lat="44.43238" lon="2.47696">
        <ele>528</ele>
        <time>2015-09-06T10:00:21.990Z</time>
      </trkpt>
      <trkpt lat="44.43237" lon="2.4768">
        <ele>527</ele>
        <time>2015-09-06T10:00:24.990Z</time>
      </trkpt>
      <trkpt lat="44.43236" lon="2.47664">
        <ele>525</ele>
        <time>2015-09-06T10:00:27.990Z</time>
      </trkpt>
      <trkpt lat="44.43236" lon="2.47647">
        <ele>526</ele>
        <time>2015-09-06T10:00:30.990Z</time>
      </trkpt>
      <trkpt lat="44.43236" lon="2.47632">
        <ele>527</ele>
        <time>2015-09-06T10:00:34.000Z</time>
      </trkpt>
      <trkpt lat="44.43236" lon="2.47615">
        <ele>527</ele>
        <time>2015-09-06T10:00:38.000Z</time>
      </trkpt>
      <trkpt lat="44.43234" lon="2.47599">
        <ele>526</ele>
        <time>2015-09-06T10:00:42.000Z</time>
      </trkpt>
      <trkpt lat="44.4323" lon="2.47578">
        <ele>526</ele>
        <time>2015-09-06T10:00:47.000Z</time>
      </trkpt>
      <trkpt lat="44.43233" lon="2.47564">
        <ele>526</ele>
        <time>2015-09-06T10:00:50.000Z</time>
      </trkpt>
      <trkpt lat="44.43236" lon="2.47551">
        <ele>527</ele>
        <time>2015-09-06T10:00:53.990Z</time>
      </trkpt>
      <trkpt lat="44.43237" lon="2.47533">
        <ele>527</ele>
        <time>2015-09-06T10:00:58.000Z</time>
      </trkpt>
      <trkpt lat="44.43239" lon="2.47517">
        <ele>527</ele>
        <time>2015-09-06T10:01:01.000Z</time>
      </trkpt>
      <trkpt lat="44.43239" lon="2.475">
        <ele>526</ele>
        <time>2015-09-06T10:01:04.990Z</time>
      </trkpt>
      <trkpt lat="44.43237" lon="2.47478">
        <ele>527</ele>
        <time>2015-09-06T10:01:10.000Z</time>
      </trkpt>
      <trkpt lat="44.43237" lon="2.47462">
        <ele>527</ele>
        <time>2015-09-06T10:01:13.000Z</time>
      </trkpt>
      <trkpt lat="44.43237" lon="2.47446">
        <ele>527</ele>
        <time>2015-09-06T10:01:16.000Z</time>
      </trkpt>
      <trkpt lat="44.43237" lon="2.47432">
        <ele>526</ele>
        <time>2015-09-06T10:01:19.000Z</time>
      </trkpt>
      <trkpt lat="44.43235" lon="2.47418">
        <ele>526</ele>
        <time>2015-09-06T10:01:23.000Z</time>
      </trkpt>
      <trkpt lat="44.4323" lon="2.47402">
        <ele>525</ele>
        <time>2015-09-06T10:01:27.000Z</time>
      </trkpt>
      <trkpt lat="44.43223" lon="2.47389">
        <ele>525</ele>
        <time>2015-09-06T10:01:32.010Z</time>
      </trkpt>
      <trkpt lat="44.43215" lon="2.47376">
        <ele>526</ele>
        <time>2015-09-06T10:01:35.000Z</time>
      </trkpt>
      <trkpt lat="44.43206" lon="2.47367">
        <ele>526</ele>
        <time>2015-09-06T10:01:38.000Z</time>
      </trkpt>
      <trkpt lat="44.43196" lon="2.47346">
        <ele>526</ele>
        <time>2015-09-06T10:01:43.000Z</time>
      </trkpt>
      <trkpt lat="44.43189" lon="2.47332">
        <ele>526</ele>
        <time>2015-09-06T10:01:45.000Z</time>
      </trkpt>
      <trkpt lat="44.43185" lon="2.47319">
        <ele>526</ele>
        <time>2015-09-06T10:01:47.000Z</time>
      </trkpt>
      <trkpt lat="44.43186" lon="2.47299">
        <ele>526</ele>
        <time>2015-09-06T10:01:50.000Z</time>
      </trkpt>
      <trkpt lat="44.43185" lon="2.47281">
        <ele>526</ele>
        <time>2015-09-06T10:01:55.990Z</time>
      </trkpt>
      <trkpt lat="44.43184" lon="2.47264">
        <ele>526</ele>
        <time>2015-09-06T10:02:00.000Z</time>
      </trkpt>
      <trkpt lat="44.43194" lon="2.47257">
        <ele>526</ele>
        <time>2015-09-06T10:02:06.000Z</time>
      </trkpt>
      <trkpt lat="44.43204" lon="2.47254">
        <ele>525</ele>
        <time>2015-09-06T10:02:12.000Z</time>
      </trkpt>
      <trkpt lat="44.43216" lon="2.47255">
        <ele>524</ele>
        <time>2015-09-06T10:02:18.990Z</time>
      </trkpt>
      <trkpt lat="44.43226" lon="2.47248">
        <ele>526</ele>
        <time>2015-09-06T10:02:24.000Z</time>
      </trkpt>
      <trkpt lat="44.4324" lon="2.47241">
        <ele>525</ele>
        <time>2015-09-06T10:02:30.100Z</time>
      </trkpt>
      <trkpt lat="44.43248" lon="2.47229">
        <ele>526</ele>
        <time>2015-09-06T10:02:34.990Z</time>
      </trkpt>
      <trkpt lat="44.43261" lon="2.47224">
        <ele>526</ele>
        <time>2015-09-06T10:02:39.000Z</time>
      </trkpt>
      <trkpt lat="44.43271" lon="2.47221">
        <ele>526</ele>
        <time>2015-09-06T10:02:43.000Z</time>
      </trkpt>
      <trkpt lat="44.43283" lon="2.47224">
        <ele>526</ele>
        <time>2015-09-06T10:02:48.000Z</time>
      </trkpt>
      <trkpt lat="44.43293" lon="2.47223">
        <ele>526</ele>
        <time>2015-09-06T10:02:51.000Z</time>
      </trkpt>
      <trkpt lat="44.43308" lon="2.47222">
        <ele>526</ele>
        <time>2015-09-06T10:02:57.000Z</time>
      </trkpt>
      <trkpt lat="44.43319" lon="2.47222">
        <ele>526</ele>
        <time>2015-09-06T10:03:01.000Z</time>
      </trkpt>
      <trkpt lat="44.43328" lon="2.47227">
        <ele>526</ele>
        <time>2015-09-06T10:03:03.990Z</time>
      </trkpt>
      <trkpt lat="44.4334" lon="2.47232">
        <ele>525</ele>
        <time>2015-09-06T10:03:07.990Z</time>
      </trkpt>
      <trkpt lat="44.43352" lon="2.47236">
        <ele>525</ele>
        <time>2015-09-06T10:03:12.000Z</time>
      </trkpt>
      <trkpt lat="44.43365" lon="2.47237">
        <ele>525</ele>
        <time>2015-09-06T10:03:15.990Z</time>
      </trkpt>
      <trkpt lat="44.43376" lon="2.47234">
        <ele>525</ele>
        <time>2015-09-06T10:03:20.000Z</time>
      </trkpt>
      <trkpt lat="44.43385" lon="2.47229">
        <ele>525</ele>
        <time>2015-09-06T10:03:23.000Z</time>
      </trkpt>
      <trkpt lat="44.43393" lon="2.47221">
        <ele>525</ele>
        <time>2015-09-06T10:03:26.000Z</time>
      </trkpt>
      <trkpt lat="44.43403" lon="2.47214">
        <ele>525</ele>
        <time>2015-09-06T10:03:29.990Z</time>
      </trkpt>
      <trkpt lat="44.43412" lon="2.47202">
        <ele>524</ele>
        <time>2015-09-06T10:03:35.000Z</time>
      </trkpt>
      <trkpt lat="44.43426" lon="2.47188">
        <ele>518</ele>
        <time>2015-09-06T10:03:40.000Z</time>
      </trkpt>
      <trkpt lat="44.43425" lon="2.47171">
        <ele>519</ele>
        <time>2015-09-06T10:03:44.000Z</time>
      </trkpt>
      <trkpt lat="44.43436" lon="2.47166">
        <ele>515</ele>
        <time>2015-09-06T10:03:49.990Z</time>
      </trkpt>
      <trkpt lat="44.43447" lon="2.47173">
        <ele>516</ele>
        <time>2015-09-06T10:03:52.990Z</time>
      </trkpt>
      <trkpt lat="44.43456" lon="2.47182">
        <ele>515</ele>
        <time>2015-09-06T10:03:55.990Z</time>
      </trkpt>
      <trkpt lat="44.43468" lon="2.47185">
        <ele>514</ele>
        <time>2015-09-06T10:03:59.000Z</time>
      </trkpt>
      <trkpt lat="44.43479" lon="2.47188">
        <ele>512</ele>
        <time>2015-09-06T10:04:01.990Z</time>
      </trkpt>
      <trkpt lat="44.43489" lon="2.4719">
        <ele>511</ele>
        <time>2015-09-06T10:04:05.000Z</time>
      </trkpt>
      <trkpt lat="44.43499" lon="2.47192">
        <ele>511</ele>
        <time>2015-09-06T10:04:08.000Z</time>
      </trkpt>
      <trkpt lat="44.4351" lon="2.47194">
        <ele>501</ele>
        <time>2015-09-06T10:04:12.000Z</time>
      </trkpt>
      <trkpt lat="44.43519" lon="2.47186">
        <ele>501</ele>
        <time>2015-09-06T10:04:16.990Z</time>
      </trkpt>
      <trkpt lat="44.43529" lon="2.47173">
        <ele>500</ele>
        <time>2015-09-06T10:04:21.000Z</time>
      </trkpt>
      <trkpt lat="44.43537" lon="2.47163">
        <ele>496</ele>
        <time>2015-09-06T10:04:23.990Z</time>
      </trkpt>
      <trkpt lat="44.43544" lon="2.47151">
        <ele>495</ele>
        <time>2015-09-06T10:04:26.990Z</time>
      </trkpt>
      <trkpt lat="44.43553" lon="2.4714">
        <ele>494</ele>
        <time>2015-09-06T10:04:30.990Z</time>
      </trkpt>
      <trkpt lat="44.43562" lon="2.47128">
        <ele>493</ele>
        <time>2015-09-06T10:04:34.990Z</time>
      </trkpt>
      <trkpt lat="44.43569" lon="2.47114">
        <ele>492</ele>
        <time>2015-09-06T10:04:39.000Z</time>
      </trkpt>
      <trkpt lat="44.43575" lon="2.47101">
        <ele>490</ele>
        <time>2015-09-06T10:04:42.000Z</time>
      </trkpt>
      <trkpt lat="44.43583" lon="2.47088">
        <ele>487</ele>
        <time>2015-09-06T10:04:44.990Z</time>
      </trkpt>
      <trkpt lat="44.43591" lon="2.47075">
        <ele>483</ele>
        <time>2015-09-06T10:04:48.990Z</time>
      </trkpt>
      <trkpt lat="44.43601" lon="2.47061">
        <ele>481</ele>
        <time>2015-09-06T10:04:52.010Z</time>
      </trkpt>
      <trkpt lat="44.43611" lon="2.47051">
        <ele>480</ele>
        <time>2015-09-06T10:04:55.000Z</time>
      </trkpt>
      <trkpt lat="44.4362" lon="2.47045">
        <ele>479</ele>
        <time>2015-09-06T10:04:58.000Z</time>
      </trkpt>
      <trkpt lat="44.4363" lon="2.47039">
        <ele>478</ele>
        <time>2015-09-06T10:05:00.990Z</time>
      </trkpt>
      <trkpt lat="44.43641" lon="2.47035">
        <ele>478</ele>
        <time>2015-09-06T10:05:04.000Z</time>
      </trkpt>
      <trkpt lat="44.4365" lon="2.47029">
        <ele>477</ele>
        <time>2015-09-06T10:05:07.000Z</time>
      </trkpt>
      <trkpt lat="44.43665" lon="2.47023">
        <ele>476</ele>
        <time>2015-09-06T10:05:11.000Z</time>
      </trkpt>
      <trkpt lat="44.43676" lon="2.47019">
        <ele>472</ele>
        <time>2015-09-06T10:05:13.990Z</time>
      </trkpt>
      <trkpt lat="44.43688" lon="2.47011">
        <ele>472</ele>
        <time>2015-09-06T10:05:17.990Z</time>
      </trkpt>
      <trkpt lat="44.43698" lon="2.47001">
        <ele>471</ele>
        <time>2015-09-06T10:05:22.000Z</time>
      </trkpt>
      <trkpt lat="44.43708" lon="2.46991">
        <ele>465</ele>
        <time>2015-09-06T10:05:26.000Z</time>
      </trkpt>
      <trkpt lat="44.43719" lon="2.46983">
        <ele>464</ele>
        <time>2015-09-06T10:05:29.000Z</time>
      </trkpt>
      <trkpt lat="44.43727" lon="2.46974">
        <ele>463</ele>
        <time>2015-09-06T10:05:32.000Z</time>
      </trkpt>
      <trkpt lat="44.43738" lon="2.46966">
        <ele>463</ele>
        <time>2015-09-06T10:05:36.000Z</time>
      </trkpt>
      <trkpt lat="44.43748" lon="2.46961">
        <ele>462</ele>
        <time>2015-09-06T10:05:39.000Z</time>
      </trkpt>
      <trkpt lat="44.43759" lon="2.46957">
        <ele>457</ele>
        <time>2015-09-06T10:05:41.990Z</time>
      </trkpt>
      <trkpt lat="44.43769" lon="2.46952">
        <ele>457</ele>
        <time>2015-09-06T10:05:45.000Z</time>
      </trkpt>
      <trkpt lat="44.43778" lon="2.46946">
        <ele>456</ele>
        <time>2015-09-06T10:05:48.000Z</time>
      </trkpt>
      <trkpt lat="44.43789" lon="2.46942">
        <ele>456</ele>
        <time>2015-09-06T10:05:50.990Z</time>
      </trkpt>
      <trkpt lat="44.43797" lon="2.46935">
        <ele>455</ele>
        <time>2015-09-06T10:05:54.000Z</time>
      </trkpt>
      <trkpt lat="44.43807" lon="2.46928">
        <ele>454</ele>
        <time>2015-09-06T10:05:56.990Z</time>
      </trkpt>
      <trkpt lat="44.43815" lon="2.4692">
        <ele>453</ele>
        <time>2015-09-06T10:06:00.000Z</time>
      </trkpt>
      <trkpt lat="44.43827" lon="2.46913">
        <ele>450</ele>
        <time>2015-09-06T10:06:03.990Z</time>
      </trkpt>
      <trkpt lat="44.43836" lon="2.46903">
        <ele>447</ele>
        <time>2015-09-06T10:06:07.010Z</time>
      </trkpt>
      <trkpt lat="44.43844" lon="2.46895">
        <ele>446</ele>
        <time>2015-09-06T10:06:09.990Z</time>
      </trkpt>
      <trkpt lat="44.43853" lon="2.46888">
        <ele>444</ele>
        <time>2015-09-06T10:06:12.990Z</time>
      </trkpt>
      <trkpt lat="44.43861" lon="2.46879">
        <ele>444</ele>
        <time>2015-09-06T10:06:17.010Z</time>
      </trkpt>
      <trkpt lat="44.43866" lon="2.46861">
        <ele>443</ele>
        <time>2015-09-06T10:06:21.000Z</time>
      </trkpt>
      <trkpt lat="44.43874" lon="2.46849">
        <ele>442</ele>
        <time>2015-09-06T10:06:34.010Z</time>
      </trkpt>
      <trkpt lat="44.43879" lon="2.46835">
        <ele>442</ele>
        <time>2015-09-06T10:06:36.990Z</time>
      </trkpt>
      <trkpt lat="44.43887" lon="2.46822">
        <ele>439</ele>
        <time>2015-09-06T10:06:40.990Z</time>
      </trkpt>
      <trkpt lat="44.43895" lon="2.4681">
        <ele>439</ele>
        <time>2015-09-06T10:06:45.000Z</time>
      </trkpt>
      <trkpt lat="44.43902" lon="2.468">
        <ele>439</ele>
        <time>2015-09-06T10:06:48.010Z</time>
      </trkpt>
      <trkpt lat="44.43908" lon="2.46789">
        <ele>439</ele>
        <time>2015-09-06T10:06:50.990Z</time>
      </trkpt>
      <trkpt lat="44.43914" lon="2.46777">
        <ele>438</ele>
        <time>2015-09-06T10:06:53.990Z</time>
      </trkpt>
      <trkpt lat="44.4392" lon="2.46761">
        <ele>437</ele>
        <time>2015-09-06T10:06:58.000Z</time>
      </trkpt>
      <trkpt lat="44.43925" lon="2.46746">
        <ele>438</ele>
        <time>2015-09-06T10:07:03.000Z</time>
      </trkpt>
      <trkpt lat="44.4393" lon="2.4673">
        <ele>439</ele>
        <time>2015-09-06T10:07:07.000Z</time>
      </trkpt>
      <trkpt lat="44.43939" lon="2.46721">
        <ele>440</ele>
        <time>2015-09-06T10:07:11.000Z</time>
      </trkpt>
      <trkpt lat="44.43951" lon="2.46722">
        <ele>441</ele>
        <time>2015-09-06T10:07:15.000Z</time>
      </trkpt>
      <trkpt lat="44.43962" lon="2.4672">
        <ele>441</ele>
        <time>2015-09-06T10:07:20.000Z</time>
      </trkpt>
      <trkpt lat="44.43974" lon="2.46721">
        <ele>441</ele>
        <time>2015-09-06T10:07:23.990Z</time>
      </trkpt>
      <trkpt lat="44.43985" lon="2.46719">
        <ele>442</ele>
        <time>2015-09-06T10:07:28.000Z</time>
      </trkpt>
      <trkpt lat="44.43997" lon="2.46716">
        <ele>442</ele>
        <time>2015-09-06T10:07:31.990Z</time>
      </trkpt>
      <trkpt lat="44.44008" lon="2.46711">
        <ele>444</ele>
        <time>2015-09-06T10:07:36.000Z</time>
      </trkpt>
      <trkpt lat="44.44018" lon="2.46713">
        <ele>444</ele>
        <time>2015-09-06T10:07:39.990Z</time>
      </trkpt>
      <trkpt lat="44.44029" lon="2.46714">
        <ele>444</ele>
        <time>2015-09-06T10:07:45.000Z</time>
      </trkpt>
      <trkpt lat="44.4404" lon="2.46715">
        <ele>444</ele>
        <time>2015-09-06T10:07:51.000Z</time>
      </trkpt>
      <trkpt lat="44.44051" lon="2.46713">
        <ele>444</ele>
        <time>2015-09-06T10:07:55.000Z</time>
      </trkpt>
      <trkpt lat="44.44062" lon="2.46707">
        <ele>445</ele>
        <time>2015-09-06T10:07:58.990Z</time>
      </trkpt>
      <trkpt lat="44.44074" lon="2.46702">
        <ele>445</ele>
        <time>2015-09-06T10:08:02.990Z</time>
      </trkpt>
      <trkpt lat="44.44085" lon="2.46702">
        <ele>446</ele>
        <time>2015-09-06T10:08:05.990Z</time>
      </trkpt>
      <trkpt lat="44.44096" lon="2.46703">
        <ele>446</ele>
        <time>2015-09-06T10:08:08.990Z</time>
      </trkpt>
      <trkpt lat="44.44106" lon="2.46704">
        <ele>445</ele>
        <time>2015-09-06T10:08:11.990Z</time>
      </trkpt>
      <trkpt lat="44.44117" lon="2.46705">
        <ele>445</ele>
        <time>2015-09-06T10:08:15.010Z</time>
      </trkpt>
      <trkpt lat="44.44127" lon="2.46705">
        <ele>445</ele>
        <time>2015-09-06T10:08:17.990Z</time>
      </trkpt>
      <trkpt lat="44.44139" lon="2.46706">
        <ele>445</ele>
        <time>2015-09-06T10:08:20.990Z</time>
      </trkpt>
      <trkpt lat="44.44151" lon="2.46706">
        <ele>445</ele>
        <time>2015-09-06T10:08:23.990Z</time>
      </trkpt>
      <trkpt lat="44.44163" lon="2.46708">
        <ele>445</ele>
        <time>2015-09-06T10:08:27.990Z</time>
      </trkpt>
      <trkpt lat="44.44175" lon="2.46709">
        <ele>445</ele>
        <time>2015-09-06T10:08:31.990Z</time>
      </trkpt>
      <trkpt lat="44.44187" lon="2.4671">
        <ele>445</ele>
        <time>2015-09-06T10:08:35.000Z</time>
      </trkpt>
      <trkpt lat="44.44198" lon="2.46709">
        <ele>445</ele>
        <time>2015-09-06T10:08:37.990Z</time>
      </trkpt>
      <trkpt lat="44.44208" lon="2.46709">
        <ele>444</ele>
        <time>2015-09-06T10:08:40.990Z</time>
      </trkpt>
      <trkpt lat="44.44218" lon="2.46708">
        <ele>444</ele>
        <time>2015-09-06T10:08:43.990Z</time>
      </trkpt>
      <trkpt lat="44.44228" lon="2.46708">
        <ele>444</ele>
        <time>2015-09-06T10:08:46.990Z</time>
      </trkpt>
      <trkpt lat="44.44239" lon="2.46711">
        <ele>444</ele>
        <time>2015-09-06T10:08:50.000Z</time>
      </trkpt>
      <trkpt lat="44.44249" lon="2.46717">
        <ele>444</ele>
        <time>2015-09-06T10:08:52.990Z</time>
      </trkpt>
      <trkpt lat="44.44259" lon="2.46723">
        <ele>443</ele>
        <time>2015-09-06T10:08:55.990Z</time>
      </trkpt>
      <trkpt lat="44.44268" lon="2.46729">
        <ele>443</ele>
        <time>2015-09-06T10:08:58.990Z</time>
      </trkpt>
      <trkpt lat="44.44277" lon="2.46735">
        <ele>443</ele>
        <time>2015-09-06T10:09:01.990Z</time>
      </trkpt>
      <trkpt lat="44.44288" lon="2.46742">
        <ele>443</ele>
        <time>2015-09-06T10:09:05.100Z</time>
      </trkpt>
      <trkpt lat="44.44297" lon="2.46748">
        <ele>443</ele>
        <time>2015-09-06T10:09:08.000Z</time>
      </trkpt>
      <trkpt lat="44.44309" lon="2.46756">
        <ele>443</ele>
        <time>2015-09-06T10:09:11.990Z</time>
      </trkpt>
      <trkpt lat="44.44319" lon="2.46761">
        <ele>443</ele>
        <time>2015-09-06T10:09:14.990Z</time>
      </trkpt>
      <trkpt lat="44.4433" lon="2.46767">
        <ele>443</ele>
        <time>2015-09-06T10:09:17.990Z</time>
      </trkpt>
      <trkpt lat="44.4434" lon="2.46773">
        <ele>442</ele>
        <time>2015-09-06T10:09:20.990Z</time>
      </trkpt>
      <trkpt lat="44.44351" lon="2.46777">
        <ele>441</ele>
        <time>2015-09-06T10:09:24.000Z</time>
      </trkpt>
      <trkpt lat="44.44362" lon="2.46779">
        <ele>440</ele>
        <time>2015-09-06T10:09:26.990Z</time>
      </trkpt>
      <trkpt lat="44.44372" lon="2.46783">
        <ele>440</ele>
        <time>2015-09-06T10:09:29.990Z</time>
      </trkpt>
      <trkpt lat="44.44382" lon="2.46788">
        <ele>439</ele>
        <time>2015-09-06T10:09:32.990Z</time>
      </trkpt>
      <trkpt lat="44.44393" lon="2.46795">
        <ele>439</ele>
        <time>2015-09-06T10:09:35.990Z</time>
      </trkpt>
      <trkpt lat="44.44404" lon="2.46802">
        <ele>439</ele>
        <time>2015-09-06T10:09:39.000Z</time>
      </trkpt>
      <trkpt lat="44.44412" lon="2.46806">
        <ele>438</ele>
        <time>2015-09-06T10:09:41.990Z</time>
      </trkpt>
      <trkpt lat="44.44422" lon="2.46811">
        <ele>432</ele>
        <time>2015-09-06T10:09:44.990Z</time>
      </trkpt>
      <trkpt lat="44.44432" lon="2.46818">
        <ele>431</ele>
        <time>2015-09-06T10:09:47.990Z</time>
      </trkpt>
      <trkpt lat="44.4444" lon="2.46824">
        <ele>431</ele>
        <time>2015-09-06T10:09:50.990Z</time>
      </trkpt>
      <trkpt lat="44.4445" lon="2.4683">
        <ele>429</ele>
        <time>2015-09-06T10:09:54.000Z</time>
      </trkpt>
      <trkpt lat="44.44459" lon="2.46835">
        <ele>428</ele>
        <time>2015-09-06T10:09:57.000Z</time>
      </trkpt>
      <trkpt lat="44.44471" lon="2.46833">
        <ele>426</ele>
        <time>2015-09-06T10:10:01.990Z</time>
      </trkpt>
      <trkpt lat="44.44482" lon="2.46832">
        <ele>424</ele>
        <time>2015-09-06T10:10:06.000Z</time>
      </trkpt>
      <trkpt lat="44.44493" lon="2.46832">
        <ele>421</ele>
        <time>2015-09-06T10:10:12.000Z</time>
      </trkpt>
      <trkpt lat="44.44503" lon="2.46834">
        <ele>418</ele>
        <time>2015-09-06T10:10:19.990Z</time>
      </trkpt>
      <trkpt lat="44.44515" lon="2.46843">
        <ele>414</ele>
        <time>2015-09-06T10:10:25.000Z</time>
      </trkpt>
      <trkpt lat="44.44525" lon="2.46843">
        <ele>412</ele>
        <time>2015-09-06T10:10:29.990Z</time>
      </trkpt>
      <trkpt lat="44.44536" lon="2.46843">
        <ele>410</ele>
        <time>2015-09-06T10:10:33.990Z</time>
      </trkpt>
      <trkpt lat="44.44547" lon="2.46843">
        <ele>408</ele>
        <time>2015-09-06T10:10:38.000Z</time>
      </trkpt>
      <trkpt lat="44.44559" lon="2.4684">
        <ele>404</ele>
        <time>2015-09-06T10:10:41.990Z</time>
      </trkpt>
      <trkpt lat="44.4457" lon="2.46842">
        <ele>401</ele>
        <time>2015-09-06T10:10:44.990Z</time>
      </trkpt>
      <trkpt lat="44.4458" lon="2.46843">
        <ele>398</ele>
        <time>2015-09-06T10:10:48.000Z</time>
      </trkpt>
      <trkpt lat="44.44594" lon="2.46847">
        <ele>386</ele>
        <time>2015-09-06T10:10:51.000Z</time>
      </trkpt>
      <trkpt lat="44.44606" lon="2.46854">
        <ele>384</ele>
        <time>2015-09-06T10:10:54.990Z</time>
      </trkpt>
      <trkpt lat="44.44616" lon="2.46849">
        <ele>381</ele>
        <time>2015-09-06T10:10:58.990Z</time>
      </trkpt>
      <trkpt lat="44.44629" lon="2.46848">
        <ele>378</ele>
        <time>2015-09-06T10:11:02.990Z</time>
      </trkpt>
      <trkpt lat="44.4464" lon="2.46858">
        <ele>376</ele>
        <time>2015-09-06T10:11:07.000Z</time>
      </trkpt>
      <trkpt lat="44.4465" lon="2.46865">
        <ele>375</ele>
        <time>2015-09-06T10:11:09.990Z</time>
      </trkpt>
      <trkpt lat="44.44662" lon="2.46875">
        <ele>375</ele>
        <time>2015-09-06T10:11:13.990Z</time>
      </trkpt>
      <trkpt lat="44.44673" lon="2.46882">
        <ele>356</ele>
        <time>2015-09-06T10:11:17.990Z</time>
      </trkpt>
      <trkpt lat="44.44684" lon="2.46886">
        <ele>355</ele>
        <time>2015-09-06T10:11:22.000Z</time>
      </trkpt>
      <trkpt lat="44.44692" lon="2.46876">
        <ele>352</ele>
        <time>2015-09-06T10:11:27.990Z</time>
      </trkpt>
      <trkpt lat="44.44691" lon="2.46862">
        <ele>351</ele>
        <time>2015-09-06T10:11:32.000Z</time>
      </trkpt>
      <trkpt lat="44.44692" lon="2.46847">
        <ele>351</ele>
        <time>2015-09-06T10:11:35.990Z</time>
      </trkpt>
      <trkpt lat="44.44698" lon="2.46836">
        <ele>349</ele>
        <time>2015-09-06T10:11:40.990Z</time>
      </trkpt>
      <trkpt lat="44.4471" lon="2.46843">
        <ele>347</ele>
        <time>2015-09-06T10:11:43.990Z</time>
      </trkpt>
      <trkpt lat="44.4472" lon="2.4685">
        <ele>346</ele>
        <time>2015-09-06T10:11:47.990Z</time>
      </trkpt>
      <trkpt lat="44.4473" lon="2.46859">
        <ele>344</ele>
        <time>2015-09-06T10:11:52.000Z</time>
      </trkpt>
      <trkpt lat="44.44742" lon="2.46866">
        <ele>344</ele>
        <time>2015-09-06T10:11:54.990Z</time>
      </trkpt>
      <trkpt lat="44.44751" lon="2.46874">
        <ele>331</ele>
        <time>2015-09-06T10:11:57.990Z</time>
      </trkpt>
      <trkpt lat="44.44762" lon="2.46882">
        <ele>331</ele>
        <time>2015-09-06T10:12:02.000Z</time>
      </trkpt>
      <trkpt lat="44.44774" lon="2.46891">
        <ele>330</ele>
        <time>2015-09-06T10:12:05.990Z</time>
      </trkpt>
      <trkpt lat="44.44785" lon="2.46896">
        <ele>329</ele>
        <time>2015-09-06T10:12:09.990Z</time>
      </trkpt>
      <trkpt lat="44.44796" lon="2.46904">
        <ele>327</ele>
        <time>2015-09-06T10:12:12.990Z</time>
      </trkpt>
      <trkpt lat="44.44807" lon="2.46911">
        <ele>325</ele>
        <time>2015-09-06T10:12:15.990Z</time>
      </trkpt>
      <trkpt lat="44.44816" lon="2.46922">
        <ele>324</ele>
        <time>2015-09-06T10:12:18.990Z</time>
      </trkpt>
      <trkpt lat="44.44822" lon="2.46932">
        <ele>323</ele>
        <time>2015-09-06T10:12:22.010Z</time>
      </trkpt>
      <trkpt lat="44.44834" lon="2.4693">
        <ele>316</ele>
        <time>2015-09-06T10:13:29.990Z</time>
      </trkpt>
      <trkpt lat="44.44846" lon="2.46925">
        <ele>315</ele>
        <time>2015-09-06T10:13:33.990Z</time>
      </trkpt>
      <trkpt lat="44.44856" lon="2.46931">
        <ele>315</ele>
        <time>2015-09-06T10:13:36.990Z</time>
      </trkpt>
      <trkpt lat="44.44866" lon="2.46942">
        <ele>315</ele>
        <time>2015-09-06T10:13:39.990Z</time>
      </trkpt>
      <trkpt lat="44.44873" lon="2.4695">
        <ele>314</ele>
        <time>2015-09-06T10:13:42.990Z</time>
      </trkpt>
      <trkpt lat="44.44881" lon="2.46962">
        <ele>314</ele>
        <time>2015-09-06T10:13:46.000Z</time>
      </trkpt>
      <trkpt lat="44.44889" lon="2.46974">
        <ele>314</ele>
        <time>2015-09-06T10:13:48.990Z</time>
      </trkpt>
      <trkpt lat="44.44897" lon="2.46986">
        <ele>314</ele>
        <time>2015-09-06T10:13:51.990Z</time>
      </trkpt>
      <trkpt lat="44.44904" lon="2.46995">
        <ele>313</ele>
        <time>2015-09-06T10:13:54.990Z</time>
      </trkpt>
      <trkpt lat="44.44913" lon="2.47002">
        <ele>314</ele>
        <time>2015-09-06T10:13:57.990Z</time>
      </trkpt>
      <trkpt lat="44.44922" lon="2.47011">
        <ele>314</ele>
        <time>2015-09-06T10:14:01.000Z</time>
      </trkpt>
      <trkpt lat="44.44933" lon="2.47017">
        <ele>315</ele>
        <time>2015-09-06T10:14:05.000Z</time>
      </trkpt>
      <trkpt lat="44.44945" lon="2.47019">
        <ele>316</ele>
        <time>2015-09-06T10:14:08.000Z</time>
      </trkpt>
      <trkpt lat="44.44954" lon="2.47027">
        <ele>316</ele>
        <time>2015-09-06T10:14:10.990Z</time>
      </trkpt>
      <trkpt lat="44.44966" lon="2.47032">
        <ele>317</ele>
        <time>2015-09-06T10:14:14.000Z</time>
      </trkpt>
      <trkpt lat="44.44978" lon="2.47043">
        <ele>317</ele>
        <time>2015-09-06T10:14:17.000Z</time>
      </trkpt>
      <trkpt lat="44.44987" lon="2.4705">
        <ele>317</ele>
        <time>2015-09-06T10:14:19.990Z</time>
      </trkpt>
      <trkpt lat="44.44999" lon="2.4706">
        <ele>317</ele>
        <time>2015-09-06T10:14:24.000Z</time>
      </trkpt>
      <trkpt lat="44.4501" lon="2.47078">
        <ele>317</ele>
        <time>2015-09-06T10:14:28.000Z</time>
      </trkpt>
      <trkpt lat="44.45018" lon="2.4709">
        <ele>316</ele>
        <time>2015-09-06T10:14:30.990Z</time>
      </trkpt>
      <trkpt lat="44.45025" lon="2.47103">
        <ele>316</ele>
        <time>2015-09-06T10:14:34.990Z</time>
      </trkpt>
      <trkpt lat="44.45032" lon="2.47113">
        <ele>316</ele>
        <time>2015-09-06T10:14:38.000Z</time>
      </trkpt>
      <trkpt lat="44.4504" lon="2.47126">
        <ele>316</ele>
        <time>2015-09-06T10:14:41.990Z</time>
      </trkpt>
      <trkpt lat="44.4505" lon="2.47137">
        <ele>316</ele>
        <time>2015-09-06T10:14:45.990Z</time>
      </trkpt>
      <trkpt lat="44.45061" lon="2.47147">
        <ele>315</ele>
        <time>2015-09-06T10:14:49.990Z</time>
      </trkpt>
      <trkpt lat="44.45071" lon="2.47162">
        <ele>313</ele>
        <time>2015-09-06T10:14:54.000Z</time>
      </trkpt>
      <trkpt lat="44.45078" lon="2.47175">
        <ele>315</ele>
        <time>2015-09-06T10:14:57.000Z</time>
      </trkpt>
      <trkpt lat="44.45088" lon="2.47186">
        <ele>310</ele>
        <time>2015-09-06T10:15:01.100Z</time>
      </trkpt>
      <trkpt lat="44.45098" lon="2.47195">
        <ele>310</ele>
        <time>2015-09-06T10:15:04.990Z</time>
      </trkpt>
      <trkpt lat="44.45109" lon="2.47203">
        <ele>310</ele>
        <time>2015-09-06T10:15:09.000Z</time>
      </trkpt>
      <trkpt lat="44.45119" lon="2.47208">
        <ele>309</ele>
        <time>2015-09-06T10:15:12.990Z</time>
      </trkpt>
      <trkpt lat="44.45131" lon="2.47202">
        <ele>309</ele>
        <time>2015-09-06T10:15:17.000Z</time>
      </trkpt>
      <trkpt lat="44.4514" lon="2.4719">
        <ele>308</ele>
        <time>2015-09-06T10:15:20.000Z</time>
      </trkpt>
      <trkpt lat="44.45148" lon="2.4718">
        <ele>308</ele>
        <time>2015-09-06T10:15:22.990Z</time>
      </trkpt>
      <trkpt lat="44.45152" lon="2.47165">
        <ele>310</ele>
        <time>2015-09-06T10:15:28.990Z</time>
      </trkpt>
      <trkpt lat="44.45164" lon="2.47152">
        <ele>310</ele>
        <time>2015-09-06T10:15:36.000Z</time>
      </trkpt>
      <trkpt lat="44.45176" lon="2.4715">
        <ele>310</ele>
        <time>2015-09-06T10:15:40.000Z</time>
      </trkpt>
      <trkpt lat="44.45188" lon="2.47152">
        <ele>310</ele>
        <time>2015-09-06T10:15:43.000Z</time>
      </trkpt>
      <trkpt lat="44.45199" lon="2.47153">
        <ele>310</ele>
        <time>2015-09-06T10:15:46.000Z</time>
      </trkpt>
      <trkpt lat="44.4521" lon="2.47152">
        <ele>310</ele>
        <time>2015-09-06T10:15:49.000Z</time>
      </trkpt>
      <trkpt lat="44.4522" lon="2.47149">
        <ele>310</ele>
        <time>2015-09-06T10:15:52.000Z</time>
      </trkpt>
      <trkpt lat="44.4523" lon="2.47145">
        <ele>310</ele>
        <time>2015-09-06T10:15:56.000Z</time>
      </trkpt>
      <trkpt lat="44.4524" lon="2.47146">
        <ele>309</ele>
        <time>2015-09-06T10:15:59.000Z</time>
      </trkpt>
      <trkpt lat="44.45254" lon="2.47138">
        <ele>307</ele>
        <time>2015-09-06T10:16:06.000Z</time>
      </trkpt>
      <trkpt lat="44.45265" lon="2.47133">
        <ele>307</ele>
        <time>2015-09-06T10:16:09.000Z</time>
      </trkpt>
      <trkpt lat="44.45275" lon="2.47129">
        <ele>307</ele>
        <time>2015-09-06T10:16:12.000Z</time>
      </trkpt>
      <trkpt lat="44.45286" lon="2.47123">
        <ele>306</ele>
        <time>2015-09-06T10:16:16.000Z</time>
      </trkpt>
      <trkpt lat="44.45298" lon="2.4711">
        <ele>306</ele>
        <time>2015-09-06T10:16:21.000Z</time>
      </trkpt>
      <trkpt lat="44.45308" lon="2.47103">
        <ele>306</ele>
        <time>2015-09-06T10:16:24.000Z</time>
      </trkpt>
      <trkpt lat="44.45321" lon="2.47107">
        <ele>305</ele>
        <time>2015-09-06T10:16:26.000Z</time>
      </trkpt>
      <trkpt lat="44.45335" lon="2.47109">
        <ele>301</ele>
        <time>2015-09-06T10:16:29.000Z</time>
      </trkpt>
      <trkpt lat="44.45349" lon="2.47099">
        <ele>301</ele>
        <time>2015-09-06T10:16:33.000Z</time>
      </trkpt>
      <trkpt lat="44.4536" lon="2.47091">
        <ele>301</ele>
        <time>2015-09-06T10:16:36.000Z</time>
      </trkpt>
      <trkpt lat="44.45369" lon="2.47084">
        <ele>301</ele>
        <time>2015-09-06T10:16:39.000Z</time>
      </trkpt>
      <trkpt lat="44.45378" lon="2.47077">
        <ele>304</ele>
        <time>2015-09-06T10:16:42.000Z</time>
      </trkpt>
      <trkpt lat="44.4539" lon="2.47068">
        <ele>304</ele>
        <time>2015-09-06T10:16:46.000Z</time>
      </trkpt>
      <trkpt lat="44.45402" lon="2.47062">
        <ele>304</ele>
        <time>2015-09-06T10:16:49.000Z</time>
      </trkpt>
      <trkpt lat="44.45414" lon="2.47058">
        <ele>303</ele>
        <time>2015-09-06T10:16:51.990Z</time>
      </trkpt>
      <trkpt lat="44.45426" lon="2.47053">
        <ele>300</ele>
        <time>2015-09-06T10:16:55.000Z</time>
      </trkpt>
      <trkpt lat="44.45436" lon="2.47049">
        <ele>300</ele>
        <time>2015-09-06T10:16:58.000Z</time>
      </trkpt>
      <trkpt lat="44.45446" lon="2.47043">
        <ele>300</ele>
        <time>2015-09-06T10:17:01.000Z</time>
      </trkpt>
      <trkpt lat="44.45455" lon="2.47034">
        <ele>300</ele>
        <time>2015-09-06T10:17:04.000Z</time>
      </trkpt>
      <trkpt lat="44.45469" lon="2.47018">
        <ele>300</ele>
        <time>2015-09-06T10:17:10.000Z</time>
      </trkpt>
      <trkpt lat="44.45474" lon="2.47003">
        <ele>299</ele>
        <time>2015-09-06T10:17:13.000Z</time>
      </trkpt>
      <trkpt lat="44.45481" lon="2.46992">
        <ele>303</ele>
        <time>2015-09-06T10:17:14.990Z</time>
      </trkpt>
      <trkpt lat="44.45486" lon="2.46979">
        <ele>304</ele>
        <time>2015-09-06T10:17:17.990Z</time>
      </trkpt>
      <trkpt lat="44.45496" lon="2.46965">
        <ele>306</ele>
        <time>2015-09-06T10:17:23.000Z</time>
      </trkpt>
      <trkpt lat="44.45506" lon="2.46956">
        <ele>302</ele>
        <time>2015-09-06T10:17:26.000Z</time>
      </trkpt>
      <trkpt lat="44.45514" lon="2.46945">
        <ele>303</ele>
        <time>2015-09-06T10:17:29.990Z</time>
      </trkpt>
      <trkpt lat="44.45519" lon="2.46933">
        <ele>304</ele>
        <time>2015-09-06T10:17:34.000Z</time>
      </trkpt>
      <trkpt lat="44.45527" lon="2.46919">
        <ele>304</ele>
        <time>2015-09-06T10:17:39.000Z</time>
      </trkpt>
      <trkpt lat="44.45537" lon="2.46911">
        <ele>311</ele>
        <time>2015-09-06T10:17:43.000Z</time>
      </trkpt>
      <trkpt lat="44.45549" lon="2.46906">
        <ele>310</ele>
        <time>2015-09-06T10:17:46.000Z</time>
      </trkpt>
      <trkpt lat="44.45559" lon="2.46905">
        <ele>309</ele>
        <time>2015-09-06T10:17:49.000Z</time>
      </trkpt>
      <trkpt lat="44.45572" lon="2.46907">
        <ele>307</ele>
        <time>2015-09-06T10:17:53.000Z</time>
      </trkpt>
      <trkpt lat="44.4559" lon="2.46912">
        <ele>303</ele>
        <time>2015-09-06T10:17:58.000Z</time>
      </trkpt>
      <trkpt lat="44.456" lon="2.46916">
        <ele>303</ele>
        <time>2015-09-06T10:18:01.000Z</time>
      </trkpt>
      <trkpt lat="44.45615" lon="2.46907">
        <ele>303</ele>
        <time>2015-09-06T10:18:08.000Z</time>
      </trkpt>
      <trkpt lat="44.45625" lon="2.46903">
        <ele>303</ele>
        <time>2015-09-06T10:18:11.000Z</time>
      </trkpt>
      <trkpt lat="44.45641" lon="2.46903">
        <ele>302</ele>
        <time>2015-09-06T10:18:16.110Z</time>
      </trkpt>
      <trkpt lat="44.45652" lon="2.469">
        <ele>301</ele>
        <time>2015-09-06T10:18:19.000Z</time>
      </trkpt>
      <trkpt lat="44.45663" lon="2.46894">
        <ele>301</ele>
        <time>2015-09-06T10:18:23.000Z</time>
      </trkpt>
      <trkpt lat="44.45676" lon="2.4689">
        <ele>300</ele>
        <time>2015-09-06T10:18:26.000Z</time>
      </trkpt>
      <trkpt lat="44.45687" lon="2.46888">
        <ele>300</ele>
        <time>2015-09-06T10:18:29.000Z</time>
      </trkpt>
      <trkpt lat="44.457" lon="2.46884">
        <ele>300</ele>
        <time>2015-09-06T10:18:33.000Z</time>
      </trkpt>
      <trkpt lat="44.45714" lon="2.4688">
        <ele>300</ele>
        <time>2015-09-06T10:18:36.990Z</time>
      </trkpt>
      <trkpt lat="44.45724" lon="2.46877">
        <ele>300</ele>
        <time>2015-09-06T10:18:40.000Z</time>
      </trkpt>
      <trkpt lat="44.45734" lon="2.46872">
        <ele>300</ele>
        <time>2015-09-06T10:18:42.990Z</time>
      </trkpt>
      <trkpt lat="44.45745" lon="2.46867">
        <ele>301</ele>
        <time>2015-09-06T10:18:46.000Z</time>
      </trkpt>
      <trkpt lat="44.45756" lon="2.46861">
        <ele>299</ele>
        <time>2015-09-06T10:18:50.000Z</time>
      </trkpt>
      <trkpt lat="44.45769" lon="2.46865">
        <ele>298</ele>
        <time>2015-09-06T10:18:54.000Z</time>
      </trkpt>
      <trkpt lat="44.45778" lon="2.46868">
        <ele>298</ele>
        <time>2015-09-06T10:18:57.000Z</time>
      </trkpt>
      <trkpt lat="44.45789" lon="2.46869">
        <ele>298</ele>
        <time>2015-09-06T10:19:00.000Z</time>
      </trkpt>
      <trkpt lat="44.45801" lon="2.46867">
        <ele>297</ele>
        <time>2015-09-06T10:19:04.000Z</time>
      </trkpt>
      <trkpt lat="44.45811" lon="2.46865">
        <ele>297</ele>
        <time>2015-09-06T10:19:07.000Z</time>
      </trkpt>
      <trkpt lat="44.45822" lon="2.46865">
        <ele>297</ele>
        <time>2015-09-06T10:19:11.000Z</time>
      </trkpt>
      <trkpt lat="44.45834" lon="2.46859">
        <ele>295</ele>
        <time>2015-09-06T10:19:15.000Z</time>
      </trkpt>
      <trkpt lat="44.45844" lon="2.46852">
        <ele>295</ele>
        <time>2015-09-06T10:19:18.000Z</time>
      </trkpt>
      <trkpt lat="44.45848" lon="2.46837">
        <ele>295</ele>
        <time>2015-09-06T10:19:22.000Z</time>
      </trkpt>
      <trkpt lat="44.45854" lon="2.46822">
        <ele>296</ele>
        <time>2015-09-06T10:19:25.000Z</time>
      </trkpt>
      <trkpt lat="44.45864" lon="2.4681">
        <ele>297</ele>
        <time>2015-09-06T10:19:30.000Z</time>
      </trkpt>
      <trkpt lat="44.45875" lon="2.46801">
        <ele>297</ele>
        <time>2015-09-06T10:19:34.000Z</time>
      </trkpt>
      <trkpt lat="44.45885" lon="2.46792">
        <ele>297</ele>
        <time>2015-09-06T10:19:37.990Z</time>
      </trkpt>
      <trkpt lat="44.45895" lon="2.4678">
        <ele>297</ele>
        <time>2015-09-06T10:19:42.000Z</time>
      </trkpt>
      <trkpt lat="44.45904" lon="2.46767">
        <ele>297</ele>
        <time>2015-09-06T10:19:45.000Z</time>
      </trkpt>
      <trkpt lat="44.45916" lon="2.46764">
        <ele>296</ele>
        <time>2015-09-06T10:19:47.990Z</time>
      </trkpt>
      <trkpt lat="44.45927" lon="2.46754">
        <ele>295</ele>
        <time>2015-09-06T10:19:51.990Z</time>
      </trkpt>
      <trkpt lat="44.45936" lon="2.46745">
        <ele>298</ele>
        <time>2015-09-06T10:19:55.000Z</time>
      </trkpt>
      <trkpt lat="44.45945" lon="2.46736">
        <ele>299</ele>
        <time>2015-09-06T10:19:58.000Z</time>
      </trkpt>
      <trkpt lat="44.45955" lon="2.46733">
        <ele>299</ele>
        <time>2015-09-06T10:20:02.990Z</time>
      </trkpt>
      <trkpt lat="44.45965" lon="2.46738">
        <ele>299</ele>
        <time>2015-09-06T10:20:05.990Z</time>
      </trkpt>
      <trkpt lat="44.45975" lon="2.46741">
        <ele>298</ele>
        <time>2015-09-06T10:20:09.000Z</time>
      </trkpt>
      <trkpt lat="44.45995" lon="2.46745">
        <ele>296</ele>
        <time>2015-09-06T10:20:15.000Z</time>
      </trkpt>
      <trkpt lat="44.46006" lon="2.4675">
        <ele>296</ele>
        <time>2015-09-06T10:20:18.000Z</time>
      </trkpt>
      <trkpt lat="44.46019" lon="2.46747">
        <ele>297</ele>
        <time>2015-09-06T10:20:22.990Z</time>
      </trkpt>
      <trkpt lat="44.46029" lon="2.46748">
        <ele>298</ele>
        <time>2015-09-06T10:20:26.000Z</time>
      </trkpt>
      <trkpt lat="44.4604" lon="2.46748">
        <ele>298</ele>
        <time>2015-09-06T10:20:29.000Z</time>
      </trkpt>
      <trkpt lat="44.46052" lon="2.4675">
        <ele>294</ele>
        <time>2015-09-06T10:20:31.990Z</time>
      </trkpt>
      <trkpt lat="44.46066" lon="2.46748">
        <ele>297</ele>
        <time>2015-09-06T10:20:36.000Z</time>
      </trkpt>
      <trkpt lat="44.46076" lon="2.46745">
        <ele>296</ele>
        <time>2015-09-06T10:20:39.000Z</time>
      </trkpt>
      <trkpt lat="44.46086" lon="2.46745">
        <ele>295</ele>
        <time>2015-09-06T10:20:41.990Z</time>
      </trkpt>
      <trkpt lat="44.46095" lon="2.46741">
        <ele>295</ele>
        <time>2015-09-06T10:20:45.000Z</time>
      </trkpt>
      <trkpt lat="44.46107" lon="2.46734">
        <ele>296</ele>
        <time>2015-09-06T10:20:48.000Z</time>
      </trkpt>
      <trkpt lat="44.46117" lon="2.46731">
        <ele>296</ele>
        <time>2015-09-06T10:20:50.990Z</time>
      </trkpt>
      <trkpt lat="44.46136" lon="2.46723">
        <ele>295</ele>
        <time>2015-09-06T10:20:57.000Z</time>
      </trkpt>
      <trkpt lat="44.46147" lon="2.46717">
        <ele>295</ele>
        <time>2015-09-06T10:21:00.000Z</time>
      </trkpt>
      <trkpt lat="44.46159" lon="2.46713">
        <ele>295</ele>
        <time>2015-09-06T10:21:05.000Z</time>
      </trkpt>
      <trkpt lat="44.4617" lon="2.46711">
        <ele>294</ele>
        <time>2015-09-06T10:21:08.000Z</time>
      </trkpt>
      <trkpt lat="44.4618" lon="2.46707">
        <ele>294</ele>
        <time>2015-09-06T10:21:11.000Z</time>
      </trkpt>
      <trkpt lat="44.46191" lon="2.46705">
        <ele>294</ele>
        <time>2015-09-06T10:21:12.990Z</time>
      </trkpt>
      <trkpt lat="44.46205" lon="2.46702">
        <ele>295</ele>
        <time>2015-09-06T10:21:18.000Z</time>
      </trkpt>
      <trkpt lat="44.46216" lon="2.46693">
        <ele>295</ele>
        <time>2015-09-06T10:21:22.000Z</time>
      </trkpt>
      <trkpt lat="44.46227" lon="2.46695">
        <ele>295</ele>
        <time>2015-09-06T10:21:25.990Z</time>
      </trkpt>
      <trkpt lat="44.4624" lon="2.46693">
        <ele>296</ele>
        <time>2015-09-06T10:21:30.000Z</time>
      </trkpt>
      <trkpt lat="44.46252" lon="2.46689">
        <ele>296</ele>
        <time>2015-09-06T10:21:33.000Z</time>
      </trkpt>
      <trkpt lat="44.46266" lon="2.46688">
        <ele>296</ele>
        <time>2015-09-06T10:21:37.000Z</time>
      </trkpt>
      <trkpt lat="44.46277" lon="2.46684">
        <ele>296</ele>
        <time>2015-09-06T10:21:40.000Z</time>
      </trkpt>
      <trkpt lat="44.46288" lon="2.46681">
        <ele>296</ele>
        <time>2015-09-06T10:21:44.000Z</time>
      </trkpt>
      <trkpt lat="44.46298" lon="2.46675">
        <ele>296</ele>
        <time>2015-09-06T10:21:48.000Z</time>
      </trkpt>
      <trkpt lat="44.46309" lon="2.46672">
        <ele>296</ele>
        <time>2015-09-06T10:21:52.000Z</time>
      </trkpt>
      <trkpt lat="44.46319" lon="2.46669">
        <ele>297</ele>
        <time>2015-09-06T10:21:56.000Z</time>
      </trkpt>
      <trkpt lat="44.46331" lon="2.46667">
        <ele>299</ele>
        <time>2015-09-06T10:22:00.000Z</time>
      </trkpt>
      <trkpt lat="44.46342" lon="2.46671">
        <ele>297</ele>
        <time>2015-09-06T10:22:03.000Z</time>
      </trkpt>
      <trkpt lat="44.4635" lon="2.46679">
        <ele>296</ele>
        <time>2015-09-06T10:22:06.990Z</time>
      </trkpt>
      <trkpt lat="44.4636" lon="2.4669">
        <ele>295</ele>
        <time>2015-09-06T10:22:10.990Z</time>
      </trkpt>
      <trkpt lat="44.46372" lon="2.46697">
        <ele>294</ele>
        <time>2015-09-06T10:22:14.000Z</time>
      </trkpt>
      <trkpt lat="44.46387" lon="2.46706">
        <ele>294</ele>
        <time>2015-09-06T10:22:18.000Z</time>
      </trkpt>
      <trkpt lat="44.46397" lon="2.46709">
        <ele>293</ele>
        <time>2015-09-06T10:22:22.000Z</time>
      </trkpt>
      <trkpt lat="44.46417" lon="2.46703">
        <ele>294</ele>
        <time>2015-09-06T10:22:28.000Z</time>
      </trkpt>
      <trkpt lat="44.46426" lon="2.467">
        <ele>294</ele>
        <time>2015-09-06T10:22:31.000Z</time>
      </trkpt>
      <trkpt lat="44.4644" lon="2.46698">
        <ele>294</ele>
        <time>2015-09-06T10:22:33.990Z</time>
      </trkpt>
      <trkpt lat="44.4645" lon="2.46698">
        <ele>294</ele>
        <time>2015-09-06T10:22:37.000Z</time>
      </trkpt>
      <trkpt lat="44.46464" lon="2.46699">
        <ele>294</ele>
        <time>2015-09-06T10:22:42.000Z</time>
      </trkpt>
      <trkpt lat="44.46475" lon="2.46697">
        <ele>294</ele>
        <time>2015-09-06T10:22:45.000Z</time>
      </trkpt>
      <trkpt lat="44.46486" lon="2.46693">
        <ele>294</ele>
        <time>2015-09-06T10:22:49.000Z</time>
      </trkpt>
      <trkpt lat="44.46498" lon="2.46694">
        <ele>294</ele>
        <time>2015-09-06T10:22:53.000Z</time>
      </trkpt>
      <trkpt lat="44.46513" lon="2.46694">
        <ele>295</ele>
        <time>2015-09-06T10:22:56.000Z</time>
      </trkpt>
      <trkpt lat="44.46526" lon="2.46695">
        <ele>294</ele>
        <time>2015-09-06T10:22:59.000Z</time>
      </trkpt>
      <trkpt lat="44.46537" lon="2.46697">
        <ele>294</ele>
        <time>2015-09-06T10:23:02.000Z</time>
      </trkpt>
      <trkpt lat="44.46549" lon="2.46696">
        <ele>294</ele>
        <time>2015-09-06T10:23:05.000Z</time>
      </trkpt>
      <trkpt lat="44.4656" lon="2.46696">
        <ele>295</ele>
        <time>2015-09-06T10:23:08.000Z</time>
      </trkpt>
      <trkpt lat="44.46572" lon="2.46698">
        <ele>295</ele>
        <time>2015-09-06T10:23:11.000Z</time>
      </trkpt>
      <trkpt lat="44.46585" lon="2.467">
        <ele>294</ele>
        <time>2015-09-06T10:23:14.000Z</time>
      </trkpt>
      <trkpt lat="44.46599" lon="2.46699">
        <ele>293</ele>
        <time>2015-09-06T10:23:18.010Z</time>
      </trkpt>
      <trkpt lat="44.46609" lon="2.46698">
        <ele>293</ele>
        <time>2015-09-06T10:23:21.000Z</time>
      </trkpt>
      <trkpt lat="44.46622" lon="2.46698">
        <ele>293</ele>
        <time>2015-09-06T10:23:25.000Z</time>
      </trkpt>
      <trkpt lat="44.46634" lon="2.46693">
        <ele>292</ele>
        <time>2015-09-06T10:23:29.000Z</time>
      </trkpt>
      <trkpt lat="44.46645" lon="2.46686">
        <ele>292</ele>
        <time>2015-09-06T10:23:32.000Z</time>
      </trkpt>
      <trkpt lat="44.46655" lon="2.46675">
        <ele>292</ele>
        <time>2015-09-06T10:23:35.000Z</time>
      </trkpt>
      <trkpt lat="44.4667" lon="2.46672">
        <ele>291</ele>
        <time>2015-09-06T10:23:40.000Z</time>
      </trkpt>
      <trkpt lat="44.4668" lon="2.46665">
        <ele>293</ele>
        <time>2015-09-06T10:23:43.000Z</time>
      </trkpt>
      <trkpt lat="44.46691" lon="2.46659">
        <ele>294</ele>
        <time>2015-09-06T10:23:47.000Z</time>
      </trkpt>
      <trkpt lat="44.46702" lon="2.4665">
        <ele>294</ele>
        <time>2015-09-06T10:23:51.000Z</time>
      </trkpt>
      <trkpt lat="44.46717" lon="2.46635">
        <ele>294</ele>
        <time>2015-09-06T10:23:56.000Z</time>
      </trkpt>
      <trkpt lat="44.46729" lon="2.4662">
        <ele>294</ele>
        <time>2015-09-06T10:23:59.000Z</time>
      </trkpt>
      <trkpt lat="44.46741" lon="2.46606">
        <ele>294</ele>
        <time>2015-09-06T10:24:04.000Z</time>
      </trkpt>
      <trkpt lat="44.46749" lon="2.46594">
        <ele>294</ele>
        <time>2015-09-06T10:24:06.000Z</time>
      </trkpt>
      <trkpt lat="44.46759" lon="2.46586">
        <ele>293</ele>
        <time>2015-09-06T10:24:08.990Z</time>
      </trkpt>
      <trkpt lat="44.4677" lon="2.46577">
        <ele>297</ele>
        <time>2015-09-06T10:24:13.000Z</time>
      </trkpt>
      <trkpt lat="44.4678" lon="2.4657">
        <ele>297</ele>
        <time>2015-09-06T10:24:18.000Z</time>
      </trkpt>
      <trkpt lat="44.46795" lon="2.4656">
        <ele>298</ele>
        <time>2015-09-06T10:24:23.000Z</time>
      </trkpt>
      <trkpt lat="44.46808" lon="2.46553">
        <ele>297</ele>
        <time>2015-09-06T10:24:26.000Z</time>
      </trkpt>
      <trkpt lat="44.46818" lon="2.46547">
        <ele>298</ele>
        <time>2015-09-06T10:24:28.000Z</time>
      </trkpt>
      <trkpt lat="44.46831" lon="2.4654">
        <ele>298</ele>
        <time>2015-09-06T10:24:31.000Z</time>
      </trkpt>
      <trkpt lat="44.46837" lon="2.46526">
        <ele>295</ele>
        <time>2015-09-06T10:24:35.000Z</time>
      </trkpt>
      <trkpt lat="44.46847" lon="2.46515">
        <ele>296</ele>
        <time>2015-09-06T10:24:39.000Z</time>
      </trkpt>
      <trkpt lat="44.46859" lon="2.46509">
        <ele>295</ele>
        <time>2015-09-06T10:24:42.000Z</time>
      </trkpt>
      <trkpt lat="44.46869" lon="2.46507">
        <ele>294</ele>
        <time>2015-09-06T10:24:45.000Z</time>
      </trkpt>
      <trkpt lat="44.46879" lon="2.46508">
        <ele>293</ele>
        <time>2015-09-06T10:24:48.000Z</time>
      </trkpt>
      <trkpt lat="44.46891" lon="2.46504">
        <ele>292</ele>
        <time>2015-09-06T10:24:52.000Z</time>
      </trkpt>
      <trkpt lat="44.46904" lon="2.46495">
        <ele>295</ele>
        <time>2015-09-06T10:24:56.000Z</time>
      </trkpt>
      <trkpt lat="44.46914" lon="2.46489">
        <ele>294</ele>
        <time>2015-09-06T10:24:59.000Z</time>
      </trkpt>
      <trkpt lat="44.46924" lon="2.46481">
        <ele>292</ele>
        <time>2015-09-06T10:25:02.000Z</time>
      </trkpt>
      <trkpt lat="44.46935" lon="2.4647">
        <ele>293</ele>
        <time>2015-09-06T10:25:07.000Z</time>
      </trkpt>
      <trkpt lat="44.46946" lon="2.46463">
        <ele>294</ele>
        <time>2015-09-06T10:25:10.000Z</time>
      </trkpt>
      <trkpt lat="44.46956" lon="2.4646">
        <ele>293</ele>
        <time>2015-09-06T10:25:13.000Z</time>
      </trkpt>
      <trkpt lat="44.46966" lon="2.46459">
        <ele>293</ele>
        <time>2015-09-06T10:25:16.000Z</time>
      </trkpt>
      <trkpt lat="44.46978" lon="2.46456">
        <ele>293</ele>
        <time>2015-09-06T10:25:20.000Z</time>
      </trkpt>
      <trkpt lat="44.4699" lon="2.46453">
        <ele>293</ele>
        <time>2015-09-06T10:25:24.000Z</time>
      </trkpt>
      <trkpt lat="44.47001" lon="2.46449">
        <ele>290</ele>
        <time>2015-09-06T10:25:28.000Z</time>
      </trkpt>
      <trkpt lat="44.47014" lon="2.46445">
        <ele>290</ele>
        <time>2015-09-06T10:25:30.990Z</time>
      </trkpt>
      <trkpt lat="44.47024" lon="2.46442">
        <ele>290</ele>
        <time>2015-09-06T10:25:34.000Z</time>
      </trkpt>
      <trkpt lat="44.47038" lon="2.46438">
        <ele>290</ele>
        <time>2015-09-06T10:25:38.000Z</time>
      </trkpt>
      <trkpt lat="44.47049" lon="2.46435">
        <ele>290</ele>
        <time>2015-09-06T10:25:41.000Z</time>
      </trkpt>
      <trkpt lat="44.47065" lon="2.46428">
        <ele>291</ele>
        <time>2015-09-06T10:25:45.000Z</time>
      </trkpt>
      <trkpt lat="44.47074" lon="2.46421">
        <ele>292</ele>
        <time>2015-09-06T10:25:48.000Z</time>
      </trkpt>
      <trkpt lat="44.47086" lon="2.46415">
        <ele>293</ele>
        <time>2015-09-06T10:25:51.000Z</time>
      </trkpt>
      <trkpt lat="44.47096" lon="2.46414">
        <ele>292</ele>
        <time>2015-09-06T10:25:53.990Z</time>
      </trkpt>
      <trkpt lat="44.4711" lon="2.46411">
        <ele>291</ele>
        <time>2015-09-06T10:25:58.000Z</time>
      </trkpt>
      <trkpt lat="44.47124" lon="2.46407">
        <ele>290</ele>
        <time>2015-09-06T10:26:02.000Z</time>
      </trkpt>
      <trkpt lat="44.47137" lon="2.46405">
        <ele>289</ele>
        <time>2015-09-06T10:26:05.000Z</time>
      </trkpt>
      <trkpt lat="44.47148" lon="2.46405">
        <ele>288</ele>
        <time>2015-09-06T10:26:08.000Z</time>
      </trkpt>
      <trkpt lat="44.47159" lon="2.46406">
        <ele>286</ele>
        <time>2015-09-06T10:26:10.990Z</time>
      </trkpt>
      <trkpt lat="44.4717" lon="2.46406">
        <ele>283</ele>
        <time>2015-09-06T10:26:14.000Z</time>
      </trkpt>
      <trkpt lat="44.47182" lon="2.46406">
        <ele>283</ele>
        <time>2015-09-06T10:26:16.990Z</time>
      </trkpt>
      <trkpt lat="44.47192" lon="2.46412">
        <ele>283</ele>
        <time>2015-09-06T10:26:19.990Z</time>
      </trkpt>
      <trkpt lat="44.47204" lon="2.46415">
        <ele>283</ele>
        <time>2015-09-06T10:26:22.990Z</time>
      </trkpt>
      <trkpt lat="44.47219" lon="2.46417">
        <ele>283</ele>
        <time>2015-09-06T10:26:27.000Z</time>
      </trkpt>
      <trkpt lat="44.4723" lon="2.4642">
        <ele>282</ele>
        <time>2015-09-06T10:26:31.000Z</time>
      </trkpt>
      <trkpt lat="44.47242" lon="2.46427">
        <ele>282</ele>
        <time>2015-09-06T10:26:35.000Z</time>
      </trkpt>
      <trkpt lat="44.47246" lon="2.4644">
        <ele>282</ele>
        <time>2015-09-06T10:26:38.000Z</time>
      </trkpt>
      <trkpt lat="44.47246" lon="2.46458">
        <ele>283</ele>
        <time>2015-09-06T10:26:41.990Z</time>
      </trkpt>
      <trkpt lat="44.47249" lon="2.46473">
        <ele>283</ele>
        <time>2015-09-06T10:26:45.990Z</time>
      </trkpt>
      <trkpt lat="44.47252" lon="2.46487">
        <ele>283</ele>
        <time>2015-09-06T10:26:49.990Z</time>
      </trkpt>
      <trkpt lat="44.47248" lon="2.46501">
        <ele>283</ele>
        <time>2015-09-06T10:26:56.000Z</time>
      </trkpt>
      <trkpt lat="44.47234" lon="2.465">
        <ele>283</ele>
        <time>2015-09-06T10:26:59.000Z</time>
      </trkpt>
      <trkpt lat="44.47224" lon="2.465">
        <ele>283</ele>
        <time>2015-09-06T10:27:02.000Z</time>
      </trkpt>
      <trkpt lat="44.47211" lon="2.46496">
        <ele>283</ele>
        <time>2015-09-06T10:27:05.000Z</time>
      </trkpt>
      <trkpt lat="44.47203" lon="2.46487">
        <ele>283</ele>
        <time>2015-09-06T10:27:07.990Z</time>
      </trkpt>
      <trkpt lat="44.47192" lon="2.46489">
        <ele>283</ele>
        <time>2015-09-06T10:27:10.990Z</time>
      </trkpt>
      <trkpt lat="44.47182" lon="2.46486">
        <ele>283</ele>
        <time>2015-09-06T10:27:17.000Z</time>
      </trkpt>
      <trkpt lat="44.47171" lon="2.46488">
        <ele>283</ele>
        <time>2015-09-06T10:27:38.000Z</time>
      </trkpt>
      <trkpt lat="44.47161" lon="2.46488">
        <ele>284</ele>
        <time>2015-09-06T10:27:51.000Z</time>
      </trkpt>
      <trkpt lat="44.47151" lon="2.46493">
        <ele>284</ele>
        <time>2015-09-06T10:28:07.000Z</time>
      </trkpt>
      <trkpt lat="44.47147" lon="2.46496">
        <ele>284</ele>
        <time>2015-09-06T10:28:10.000Z</time>
      </trkpt>
    </trkseg>
  </trk>
</gpx>